[[{"header":{"parameterUnit":"m.s-1","parameterCategory":1,"la1":30.6,"la2":28.766,"lo1":-90.7593,"lo2":-88.6598,"dy":0.0162,"dx":0.0183,"nx":116,"ny":114,"refTime":"2023-07-23T06:00:00:Z","depth":0,"parameterNumber":2,"parameterNumberName":"U-component_of_WINDS"},"data":[0.0,0.0,0.0,0.0,0.0,0.0,0.0,0.0,0.0,0.0,0.0,0.0,0.0,0.0,0.0,0.0,0.0,0.0,0.0,0.0,0.0,0.0,0.0,0.0,0.0,0.0,0.0,0.0,0.0,0.0,0.0,0.0,0.0,0.0,0.0,0.0,0.0,0.0,0.0,0.0,0.0,0.0,0.0,0.0,0.0,0.0,0.0,0.0,0.0,0.0,0.0,0.0,0.0,0.0,0.0,0.0,0.0,0.0,0.0,0.0,0.0,0.0,0.0,0.0,0.0,0.0,0.0,0.0,0.0,0.0,0.0,0.0,0.0,0.0,0.0,0.0,0.0,0.0,0.0,0.0,0.0,0.0,0.0,0.0,0.0,0.0,0.0,0.0,0.0,0.0,0.0,0.0,0.0,0.0,0.0,0.0,0.0,0.0,0.0,0.0,0.0,0.0,0.0,0.0,0.0,0.0,0.0,0.0,0.0,0.0,0.0,0.0,0.0,0.0,0.0,0.0,0.0,0.0,0.0,0.0,0.0,0.0,0.0,0.0,0.0,0.0,0.0,0.0,0.0,0.0,0.0,0.0,0.0,0.0,0.0,0.0,0.0,0.0,0.0,0.0,0.0,0.0,0.0,0.0,0.0,0.0,0.0,0.0,0.0,0.0,0.0,0.0,0.0,0.0,0.0,0.0,0.0,0.0,0.0,0.0,0.0,0.0,0.0,0.0,0.0,0.0,0.0,0.0,0.0,0.0,0.0,0.0,0.0,0.0,0.0,0.0,0.0,0.0,0.0,0.0,0.0,0.0,0.0,0.0,0.0,0.0,0.0,0.0,0.0,0.0,0.0,0.0,0.0,0.0,0.0,0.0,0.0,0.0,0.0,0.0,0.0,0.0,0.0,0.0,0.0,0.0,0.0,0.0,0.0,0.0,0.0,0.0,0.0,0.0,0.0,0.0,0.0,0.0,0.0,0.0,0.0,0.0,0.0,0.0,0.0,0.0,0.0,0.0,0.0,0.0,0.0,0.0,0.0,0.0,0.0,0.0,0.0,0.0,0.0,0.0,0.0,0.0,0.0,0.0,0.0,0.0,0.0,0.0,0.0,0.0,0.0,0.0,0.0,0.0,0.0,0.0,0.0,0.0,0.0,0.0,0.0,0.0,0.0,0.0,0.0,0.0,0.0,0.0,0.0,0.0,0.0,0.0,0.0,0.0,0.0,0.0,0.0,0.0,0.0,0.0,0.0,0.0,0.0,0.0,0.0,0.0,0.0,0.0,0.0,0.0,0.0,0.0,0.0,0.0,0.0,0.0,0.0,0.0,0.0,0.0,0.0,0.0,0.0,0.0,0.0,0.0,0.0,0.0,0.0,0.0,0.0,0.0,0.0,0.0,0.0,0.0,0.0,0.0,0.0,0.0,0.0,0.0,0.0,0.0,0.0,0.0,0.0,0.0,0.0,0.0,0.0,0.0,0.0,0.0,0.0,0.0,0.0,0.0,0.0,0.0,0.0,0.0,0.0,0.0,0.0,0.0,0.0,0.0,0.0,0.0,0.0,0.0,0.0,0.0,0.0,0.0,0.0,0.0,0.0,0.0,0.0,0.0,0.0,0.0,0.0,0.0,0.0,0.0,0.0,0.0,0.0,0.0,0.0,0.0,0.0,0.0,0.0,0.0,0.0,0.0,0.0,0.0,0.0,0.0,0.0,0.0,0.0,0.0,0.0,0.0,0.0,0.0,0.0,0.0,0.0,0.0,0.0,0.0,0.0,0.0,0.0,0.0,0.0,0.0,0.0,0.0,0.0,0.0,0.0,0.0,0.0,0.0,0.0,0.0,0.0,0.0,0.0,0.0,0.0,0.0,0.0,0.0,0.0,0.0,0.0,0.0,0.0,0.0,0.0,0.0,0.0,0.0,0.0,0.0,0.0,0.0,0.0,0.0,0.0,0.0,0.0,0.0,0.0,0.0,0.0,0.0,0.0,0.0,0.0,0.0,0.0,0.0,0.0,0.0,0.0,0.0,0.0,0.0,0.0,0.0,0.0,0.0,0.0,0.0,0.0,0.0,0.0,0.0,0.0,0.0,0.0,0.0,0.0,0.0,0.0,0.0,0.0,0.0,0.0,0.0,0.0,0.0,0.0,0.0,0.0,0.0,0.0,0.0,0.0,0.0,0.0,0.0,0.0,0.0,0.0,0.0,0.0,0.0,0.0,0.0,0.0,0.0,0.0,0.0,0.0,0.0,0.0,0.0,0.0,0.0,0.0,0.0,0.0,0.0,0.0,0.0,0.0,0.0,0.0,0.0,0.0,0.0,0.0,0.0,0.0,0.0,0.0,0.0,0.0,0.0,0.0,0.0,0.0,0.0,0.0,0.0,0.0,0.0,0.0,0.0,0.0,0.0,0.0,0.0,0.0,0.0,0.0,0.0,0.0,0.0,0.0,0.0,0.0,0.0,0.0,0.0,0.0,0.0,0.0,0.0,0.0,0.0,0.0,0.0,0.0,0.0,0.0,0.0,0.0,0.0,0.0,0.0,0.0,0.0,0.0,0.0,0.0,0.0,0.0,0.0,0.0,0.0,0.0,0.0,0.0,0.0,0.0,0.0,0.0,0.0,0.0,0.0,0.0,0.0,0.0,0.0,0.0,0.0,0.0,0.0,0.0,0.0,0.0,0.0,0.0,0.0,0.0,0.0,0.0,0.0,0.0,0.0,0.0,0.0,0.0,0.0,0.0,0.0,0.0,0.0,0.0,0.0,0.0,0.0,0.0,0.0,0.0,0.0,0.0,0.0,0.0,0.0,0.0,0.0,0.0,0.0,0.0,0.0,0.0,0.0,0.0,0.0,0.0,0.0,0.0,0.0,0.0,0.0,0.0,0.0,0.0,0.0,0.0,0.0,0.0,0.0,0.0,0.0,0.0,0.0,0.0,0.0,0.0,0.0,0.0,0.0,0.0,0.0,0.0,0.0,0.0,0.0,0.0,0.0,0.0,0.0,0.0,0.0,0.0,0.0,0.0,0.0,0.0,0.0,0.0,0.0,0.0,0.0,0.0,0.0,0.0,0.0,0.0,0.0,0.0,0.0,0.0,0.0,0.0,0.0,0.0,0.0,0.0,0.0,0.0,0.0,0.0,0.0,0.0,0.0,0.0,0.0,0.0,0.0,0.0,0.0,0.0,0.0,0.0,0.0,0.0,0.0,0.0,0.0,0.0,0.0,0.0,0.0,0.0,0.0,0.0,0.0,0.0,0.0,0.0,0.0,0.0,0.0,0.0,0.0,0.0,0.0,0.0,0.0,0.0,0.0,0.0,0.0,0.0,0.0,0.0,0.0,0.0,0.0,0.0,0.0,0.0,0.0,0.0,0.0,0.0,0.0,0.0,0.0,0.0,0.0,0.0,0.0,0.0,0.0,0.0,0.0,0.0,0.0,0.0,0.0,0.0,0.0,0.0,0.0,0.0,0.0,0.0,0.0,0.0,0.0,0.0,0.0,0.0,0.0,0.0,0.0,0.0,0.0,0.0,0.0,0.0,0.0,0.0,0.0,0.0,0.0,0.0,0.0,0.0,0.0,0.0,0.0,0.0,0.0,0.0,0.0,0.0,0.0,0.0,0.0,0.0,0.0,0.0,0.0,0.0,0.0,0.0,0.0,0.0,0.0,0.0,0.0,0.0,0.0,0.0,0.0,0.0,0.0,0.0,0.0,0.0,0.0,0.0,0.0,0.0,0.0,0.0,0.0,0.0,0.0,0.0,0.0,0.0,0.0,0.0,0.0,0.0,0.0,0.0,0.0,0.0,0.0,0.0,0.0,0.0,0.0,0.0,0.0,0.0,0.0,0.0,0.0,0.0,0.0,0.0,0.0,0.0,0.0,0.0,0.0,0.0,0.0,0.0,0.0,0.0,0.0,0.0,0.0,0.0,0.0,0.0,0.0,0.0,0.0,0.0,0.0,0.0,0.0,0.0,0.0,0.0,0.0,0.0,0.0,0.0,0.0,0.0,0.0,0.0,0.0,0.0,0.0,0.0,0.0,0.0,0.0,0.0,0.0,0.0,0.0,0.0,0.0,0.0,0.0,0.0,0.0,0.0,0.0,0.0,0.0,0.0,0.0,0.0,0.0,0.0,0.0,0.0,0.0,0.0,0.0,0.0,0.0,0.0,0.0,0.0,0.0,0.0,0.0,0.0,0.0,0.0,0.0,0.0,0.0,0.0,0.0,0.0,0.0,0.0,0.0,0.0,0.0,0.0,0.0,0.0,0.0,0.0,0.0,0.0,0.0,0.0,0.0,0.0,0.0,0.0,0.0,0.0,0.0,0.0,0.0,0.0,0.0,0.0,0.0,0.0,0.0,0.0,0.0,0.0,0.0,0.0,0.0,0.0,0.0,0.0,0.0,0.0,0.0,0.0,0.0,0.0,0.0,0.0,0.0,0.0,0.0,0.0,0.0,0.0,0.0,0.0,0.0,0.0,0.0,0.0,0.0,0.0,0.0,0.0,0.0,0.0,0.0,0.0,0.0,0.0,0.0,0.0,0.0,0.0,0.0,0.0,0.0,0.0,0.0,0.0,0.0,0.0,0.0,0.0,0.0,0.0,0.0,0.0,0.0,0.0,0.0,0.0,0.0,0.0,0.0,0.0,0.0,0.0,0.0,0.0,0.0,0.0,0.0,0.0,0.0,0.0,0.0,0.0,0.0,0.0,0.0,0.0,0.0,0.0,0.0,0.0,0.0,0.0,0.0,0.0,0.0,0.0,0.0,0.0,0.0,0.0,0.0,0.0,0.0,0.0,0.0,0.0,0.0,0.0,0.0,0.0,0.0,0.0,0.0,0.0,0.0,0.0,0.0,0.0,0.0,0.0,0.0,0.0,0.0,0.0,0.0,0.0,0.0,0.0,0.0,0.0,0.0,0.0,0.0,0.0,0.0,0.0,0.0,0.0,0.0,0.0,0.0,0.0,0.0,0.0,0.0,0.0,0.0,0.0,0.0,0.0,0.0,0.0,0.0,0.0,0.0,0.0,0.0,0.0,0.0,0.0,0.0,0.0,0.0,0.0,0.0,0.0,0.0,0.0,0.0,0.0,0.0,0.0,0.0,0.0,0.0,0.0,0.0,0.0,0.0,0.0,0.0,0.0,0.0,0.0,0.0,0.0,0.0,0.0,0.0,0.0,0.0,0.0,0.0,0.0,0.0,0.0,0.0,0.0,0.0,0.0,0.0,0.0,0.0,0.0,0.0,0.0,0.0,0.0,0.0,0.0,0.0,0.0,0.0,0.0,0.0,0.0,0.0,0.0,0.0,0.0,0.0,0.0,0.0,0.0,0.0,0.0,0.0,0.0,0.0,0.0,0.0,0.0,0.0,0.0,0.0,0.0,0.0,0.0,0.0,0.0,0.0,0.0,0.0,0.0,0.0,0.0,0.0,0.0,0.0,0.0,0.0,0.0,0.0,0.0,0.0,0.0,0.0,0.0,0.0,0.0,0.0,0.0,0.0,0.0,0.0,0.0,0.0,0.0,0.0,0.0,0.0,0.0,0.0,0.0,0.0,0.0,0.0,0.0,0.0,0.0,0.0,0.0,0.0,0.0,0.0,0.0,0.0,0.0,0.0,0.0,0.0,0.0,0.0,0.0,0.0,0.0,0.0,0.0,0.0,0.0,0.0,0.0,0.0,0.0,0.0,0.0,0.0,0.0,0.0,0.0,0.0,0.0,0.0,0.0,0.0,0.0,0.0,0.0,0.0,0.0,0.0,0.0,0.0,0.0,0.0,0.0,0.0,0.0,0.0,0.0,0.0,0.0,0.0,0.0,0.0,0.0,0.0,0.0,0.0,0.0,0.0,0.0,0.0,0.0,0.0,0.0,0.0,0.0,0.0,0.0,0.0,0.0,0.0,0.0,0.0,0.0,0.0,0.0,0.0,0.0,0.0,0.0,0.0,0.0,0.0,0.0,0.0,0.0,0.0,0.0,0.0,0.0,0.0,0.0,0.0,0.0,0.0,0.0,0.0,0.0,0.0,0.0,0.0,0.0,0.0,0.0,0.0,0.0,0.0,0.0,0.0,0.0,0.0,0.0,0.0,0.0,0.0,0.0,0.0,0.0,0.0,0.0,0.0,-2.0439,0.0,0.0,0.0,0.0,0.0,0.0,0.0,0.0,0.0,0.0,0.0,0.0,0.0,0.0,0.0,0.0,0.0,0.0,0.0,0.0,0.0,0.0,0.0,0.0,0.0,0.0,0.0,0.0,0.0,0.0,0.0,0.0,0.0,0.0,0.0,0.0,0.0,0.0,0.0,0.0,0.0,0.0,0.0,0.0,0.0,0.0,0.0,0.0,0.0,0.0,0.0,0.0,0.0,0.0,0.0,0.0,0.0,0.0,0.0,0.0,0.0,0.0,0.0,0.0,0.0,0.0,0.0,0.0,0.0,0.0,0.0,0.0,0.0,0.0,0.0,0.0,0.0,0.0,0.0,0.0,0.0,0.0,0.0,0.0,0.0,0.0,0.0,0.0,0.0,0.0,0.0,0.0,0.0,0.0,0.0,0.0,0.0,0.0,0.0,0.0,0.0,0.0,0.0,0.0,0.0,0.0,0.0,0.0,0.0,0.0,0.0,0.0,0.0,0.0,0.0,0.0,-2.1045,0.0,0.0,0.0,0.0,0.0,0.0,0.0,0.0,0.0,0.0,0.0,0.0,0.0,0.0,0.0,0.0,0.0,0.0,0.0,0.0,0.0,0.0,0.0,0.0,0.0,0.0,0.0,0.0,0.0,0.0,0.0,0.0,0.0,0.0,0.0,0.0,0.0,0.0,0.0,0.0,0.0,0.0,0.0,0.0,0.0,0.0,0.0,0.0,0.0,0.0,0.0,0.0,0.0,0.0,0.0,0.0,0.0,0.0,0.0,0.0,0.0,0.0,0.0,0.0,0.0,0.0,0.0,0.0,0.0,0.0,0.0,0.0,0.0,0.0,0.0,0.0,0.0,0.0,0.0,0.0,0.0,0.0,0.0,0.0,0.0,0.0,0.0,0.0,0.0,0.0,0.0,0.0,0.0,0.0,0.0,0.0,0.0,0.0,0.0,0.0,0.0,0.0,0.0,0.0,0.0,0.0,0.0,0.0,-2.4815,-2.4176,-2.3111,-2.2803,-2.2697,-2.2811,-2.3095,-2.3271,-2.3223,0.0,0.0,0.0,0.0,0.0,0.0,0.0,0.0,0.0,0.0,0.0,0.0,0.0,0.0,0.0,0.0,0.0,0.0,0.0,0.0,0.0,0.0,0.0,0.0,0.0,0.0,0.0,0.0,0.0,0.0,0.0,0.0,0.0,0.0,0.0,0.0,0.0,0.0,0.0,-2.1127,-2.0998,-2.0452,-1.9582,0.0,0.0,0.0,0.0,0.0,0.0,0.0,0.0,0.0,0.0,0.0,0.0,0.0,0.0,0.0,0.0,0.0,0.0,0.0,0.0,0.0,0.0,0.0,0.0,0.0,0.0,0.0,0.0,0.0,0.0,0.0,0.0,0.0,0.0,0.0,0.0,0.0,0.0,0.0,0.0,0.0,0.0,0.0,0.0,-2.3387,-2.214,0.0,0.0,0.0,0.0,0.0,0.0,0.0,0.0,0.0,0.0,0.0,0.0,0.0,-2.4437,-2.4961,-2.4788,-2.4907,-2.5329,-2.4446,-2.4577,-2.55,-2.3911,-2.3776,-2.4728,-2.4226,0.0,-2.3363,-2.2069,0.0,0.0,0.0,0.0,0.0,0.0,0.0,0.0,0.0,0.0,0.0,0.0,0.0,0.0,0.0,0.0,0.0,0.0,0.0,0.0,0.0,0.0,0.0,0.0,0.0,0.0,0.0,0.0,0.0,0.0,0.0,0.0,0.0,0.0,0.0,0.0,-2.144,-2.0933,-2.0734,-2.0481,-2.0125,-1.9692,-1.9204,-1.9309,-1.9883,-2.0726,0.0,0.0,0.0,0.0,0.0,0.0,0.0,0.0,0.0,0.0,0.0,0.0,0.0,0.0,0.0,0.0,0.0,0.0,0.0,0.0,0.0,0.0,0.0,0.0,0.0,0.0,0.0,0.0,0.0,0.0,0.0,0.0,0.0,0.0,0.0,0.0,0.0,0.0,0.0,-1.8116,-1.9365,-1.8386,-1.8104,-1.7996,0.0,0.0,0.0,0.0,0.0,0.0,0.0,0.0,0.0,-2.5011,-2.4655,-2.4932,-2.5975,-2.5726,-2.5741,-2.5997,-2.501,-2.467,-2.4909,-2.371,-2.3419,-2.3853,-2.3653,-2.3671,-2.3738,-2.2603,-2.2189,-2.2105,0.0,0.0,0.0,0.0,-1.9747,-1.9048,0.0,0.0,0.0,0.0,0.0,0.0,0.0,0.0,0.0,0.0,0.0,0.0,0.0,0.0,0.0,0.0,0.0,0.0,0.0,0.0,0.0,0.0,0.0,0.0,0.0,0.0,0.0,0.0,-2.1648,-2.1068,-2.0619,-2.0107,-1.9845,-1.9835,-1.9706,-1.9668,-1.9815,-2.1163,-2.0985,0.0,0.0,0.0,0.0,0.0,0.0,0.0,0.0,0.0,0.0,0.0,0.0,0.0,0.0,0.0,0.0,0.0,0.0,0.0,0.0,0.0,0.0,0.0,0.0,0.0,0.0,0.0,0.0,0.0,0.0,0.0,0.0,0.0,0.0,0.0,0.0,0.0,0.0,-1.5481,-1.6735,-1.5987,-1.6501,-1.7132,0.0,0.0,0.0,0.0,0.0,0.0,-2.4107,-2.4237,-2.494,-2.633,-2.5948,-2.6202,-2.721,-2.6581,-2.6243,-2.6166,-2.4999,-2.4216,-2.3776,-2.3301,-2.2992,-2.2895,-2.3037,-2.3352,-2.37,-2.2673,-2.2481,-2.2629,-2.0932,-2.0154,-2.0077,-2.0982,-2.0466,-1.9538,0.0,0.0,0.0,0.0,0.0,0.0,0.0,0.0,0.0,0.0,0.0,0.0,0.0,0.0,0.0,0.0,0.0,0.0,0.0,0.0,0.0,0.0,0.0,0.0,0.0,0.0,0.0,-2.4173,-2.1677,-2.083,-2.1514,-2.0467,-1.9983,-2.0028,-2.0967,-2.0778,-1.9799,-2.0084,-2.0275,-2.0331,0.0,0.0,0.0,0.0,0.0,0.0,0.0,0.0,0.0,0.0,0.0,0.0,0.0,0.0,0.0,0.0,0.0,0.0,0.0,0.0,0.0,0.0,0.0,0.0,0.0,0.0,0.0,0.0,0.0,0.0,0.0,0.0,0.0,0.0,0.0,0.0,0.0,0.0,0.0,-1.767,-1.7296,0.0,0.0,0.0,0.0,-2.1972,-2.2935,-2.3713,-2.4442,-2.5745,-2.6814,-2.7575,-2.8854,-2.9243,-2.8628,-2.7127,-2.6058,-2.5353,-2.3755,-2.2984,-2.2946,-2.291,-2.2895,-2.2895,-2.3037,-2.3059,-2.2886,-2.2016,-2.2076,-2.2643,-2.0863,-2.0302,-2.0479,-2.0675,-2.0692,-2.0627,0.0,0.0,0.0,0.0,0.0,0.0,0.0,0.0,0.0,0.0,0.0,0.0,0.0,0.0,0.0,0.0,0.0,0.0,0.0,0.0,0.0,0.0,0.0,0.0,0.0,0.0,-2.376,-2.3535,-2.2546,-2.1925,-2.1658,-2.1579,-2.1541,-2.1552,-2.1603,-2.1589,-2.1523,-2.1284,-2.0868,-2.0316,-1.995,-1.9541,0.0,0.0,0.0,0.0,0.0,0.0,0.0,0.0,0.0,0.0,0.0,0.0,0.0,0.0,0.0,0.0,0.0,0.0,0.0,0.0,0.0,0.0,0.0,0.0,0.0,0.0,0.0,0.0,0.0,0.0,0.0,0.0,0.0,0.0,0.0,0.0,0.0,-1.499,-1.5222,0.0,-1.6806,-1.8235,-2.0071,-2.2378,-2.5209,-2.692,-2.7171,-2.7664,-2.801,-2.8158,-2.823,-2.7833,-2.6979,-2.6205,-2.5361,-2.4437,-2.3225,-2.2541,-2.2323,-2.1881,-2.1692,-2.1692,-2.1734,-2.1734,-2.1599,-2.0688,-2.1053,-2.2007,-2.0437,-1.9891,-2.0103,-2.0425,-2.01,-1.9521,0.0,0.0,0.0,0.0,0.0,0.0,0.0,0.0,0.0,0.0,0.0,0.0,0.0,0.0,0.0,0.0,0.0,0.0,0.0,0.0,0.0,0.0,0.0,0.0,0.0,-2.1228,-2.1438,-2.0911,-2.2344,-2.2725,-2.2146,-2.246,-2.2594,-2.2564,-2.2384,-2.2419,-2.2578,-2.2253,-2.1727,-2.1051,-2.0292,-1.9893,-1.9668,0.0,0.0,0.0,0.0,0.0,0.0,0.0,0.0,0.0,0.0,0.0,0.0,0.0,0.0,0.0,0.0,0.0,0.0,0.0,0.0,0.0,0.0,0.0,0.0,0.0,0.0,0.0,0.0,0.0,0.0,0.0,0.0,0.0,0.0,0.0,-1.485,-1.3635,-1.4332,-1.5129,-1.5763,-1.8257,-2.0604,-2.246,-2.5624,-2.7451,-2.7451,-2.7684,-2.7729,-2.7575,-2.7392,-2.7023,-2.638,-2.555,-2.4783,-2.4002,-2.2742,-2.2,-2.1641,-2.1198,-2.0995,-2.0995,-2.0995,-2.0879,-2.065,-1.9866,-1.9924,-2.0429,-1.952,-1.9303,-1.9409,-1.9736,-1.9358,-1.8739,0.0,0.0,0.0,0.0,0.0,0.0,0.0,0.0,0.0,0.0,0.0,0.0,0.0,0.0,0.0,0.0,0.0,0.0,0.0,0.0,0.0,0.0,0.0,0.0,-1.0236,-1.4184,-1.6306,-1.6335,0.0,0.0,0.0,0.0,0.0,0.0,-2.3322,-2.3248,-2.281,-2.2748,-2.272,-2.2617,-2.1178,-2.0843,-2.1169,0.0,0.0,0.0,0.0,0.0,0.0,0.0,0.0,0.0,0.0,0.0,0.0,0.0,0.0,0.0,0.0,0.0,0.0,0.0,0.0,0.0,0.0,0.0,0.0,0.0,0.0,0.0,0.0,0.0,0.0,0.0,0.0,0.0,-1.4036,-1.4941,-1.5249,-1.4061,-1.4955,-1.5899,-1.6396,-1.8442,-2.0458,-2.2227,-2.4028,-2.5076,-2.5076,-2.5669,-2.6032,-2.6032,-2.6735,-2.7083,-2.7036,-2.5321,-2.4304,-2.3925,-2.2241,-2.127,-2.0951,-2.0929,-2.0932,-2.0937,-2.0937,-2.0603,-2.002,-1.9577,-1.8841,-1.8024,-1.8293,-1.8463,-1.8549,-1.8549,-1.8549,-1.8466,0.0,0.0,0.0,0.0,0.0,0.0,0.0,0.0,0.0,0.0,0.0,0.0,0.0,0.0,0.0,0.0,0.0,0.0,0.0,0.0,0.0,0.0,0.0,0.0,-0.8843,-0.9413,-0.9919,0.0,0.0,0.0,0.0,0.0,0.0,0.0,0.0,-2.3452,-2.3216,-2.3061,-2.3126,-2.3185,-2.1197,-2.0252,-2.0074,0.0,0.0,0.0,0.0,0.0,0.0,0.0,0.0,0.0,0.0,0.0,0.0,0.0,0.0,0.0,0.0,0.0,0.0,0.0,0.0,0.0,0.0,0.0,0.0,0.0,0.0,0.0,0.0,0.0,0.0,0.0,0.0,-1.5642,-1.5172,-1.5482,-1.5518,-1.507,-1.5175,-1.5207,-1.5043,-1.8357,-2.0701,-2.1204,-2.452,-2.6514,-2.6514,-2.6704,-2.6807,-2.6807,-2.6996,-2.6609,-2.5566,-2.4475,-2.3415,-2.2384,-2.0849,-2.0151,-2.0203,-1.974,-1.9565,-1.9624,-1.9624,-1.9529,-1.9332,-1.8924,-1.8616,-1.83,-1.7807,-1.7527,-1.7337,-1.7262,-1.7219,-1.7193,0.0,0.0,0.0,0.0,0.0,0.0,0.0,0.0,0.0,0.0,0.0,0.0,0.0,0.0,0.0,0.0,0.0,0.0,0.0,0.0,0.0,0.0,0.0,-0.3627,-0.1574,-0.3357,0.0,0.0,0.0,0.0,0.0,0.0,0.0,0.0,0.0,0.0,-2.1056,-2.0925,-2.1881,-2.335,-2.177,-2.0849,-2.0393,-2.0259,-2.0421,-2.0688,-2.068,-2.1203,-2.1888,-2.1788,0.0,0.0,0.0,0.0,0.0,0.0,0.0,0.0,0.0,0.0,0.0,0.0,0.0,0.0,0.0,0.0,0.0,0.0,0.0,0.0,0.0,0.0,0.0,0.0,-1.6257,-1.6701,-1.6427,-1.6251,-1.5868,-1.5116,-1.4962,-1.468,-1.4057,-1.7428,-1.9674,-1.9674,-2.3198,-2.5337,-2.5337,-2.5337,-2.5337,-2.5337,-2.5337,-2.4761,-2.359,-2.2794,-2.1783,-2.0574,-1.9658,-1.9236,-1.9221,-1.9105,-1.9051,0.0,-1.9101,-1.9101,-1.9064,-1.886,-1.8662,0.0,0.0,0.0,0.0,0.0,-1.6626,-1.6626,0.0,0.0,0.0,0.0,0.0,0.0,0.0,0.0,0.0,0.0,0.0,0.0,0.0,0.0,0.0,0.0,0.0,0.0,0.0,0.0,0.0,0.0,0.1411,0.3743,0.8084,0.0,0.0,0.0,0.0,0.0,0.0,0.0,0.0,0.0,0.0,0.0,-1.6592,-1.6551,-1.8398,-2.1351,-2.1338,-2.1434,-2.1521,-2.0929,-2.0834,-2.1076,-2.1442,-2.1792,-2.2232,-2.2901,0.0,0.0,0.0,0.0,0.0,0.0,0.0,0.0,0.0,0.0,0.0,0.0,0.0,0.0,0.0,0.0,0.0,0.0,0.0,0.0,0.0,0.0,0.0,0.0,-1.7369,-1.7591,-1.7249,-1.683,-1.6075,-1.4763,-1.4587,-1.4239,-1.3415,-1.6074,-1.7858,-1.7858,-2.0825,-2.2639,-2.2639,0.0,0.0,0.0,0.0,-2.2298,-2.136,-2.0655,-1.9801,-1.8765,-1.8552,-1.8388,-1.828,-1.8776,-1.9019,-1.909,-1.9104,-1.9101,-1.9101,-1.9101,-1.886,-1.8429,-1.7557,-1.7199,-1.7157,-1.6686,-1.6515,-1.6509,0.0,0.0,0.0,0.0,0.0,0.0,0.0,0.0,0.0,0.0,0.0,0.0,0.0,0.0,0.0,0.0,0.0,0.0,0.0,0.0,0.0,0.3509,0.7118,0.0,0.0,0.0,0.0,0.0,0.0,0.0,0.0,0.0,0.0,0.0,0.0,0.0,-0.9152,-0.888,-0.9021,-0.9769,-1.3766,-1.8053,-2.1956,-2.103,-2.1389,-2.2382,-2.204,-2.2298,-2.294,-2.3761,-2.363,-2.3283,-2.4338,0.0,0.0,0.0,0.0,0.0,0.0,0.0,0.0,0.0,0.0,0.0,0.0,0.0,0.0,0.0,0.0,0.0,0.0,0.0,0.0,-1.6811,-1.717,-1.7171,-1.622,-1.5626,-1.5226,-1.5105,-1.427,-1.3686,-1.3477,-1.5195,-1.6342,-1.6342,-1.9312,-2.1132,-2.1132,-2.225,-2.2561,-2.1861,-2.1852,-2.119,-1.9843,-1.8997,-1.8357,-1.7932,0.0,0.0,-1.8051,-1.8222,-1.8556,-1.9013,-1.9094,-1.9101,-1.9101,-1.9101,-1.886,-1.8429,-1.7557,-1.7199,-1.7157,-1.6686,-1.6515,-1.6453,0.0,0.0,0.0,0.0,0.0,0.0,0.0,0.0,0.0,0.0,0.0,0.0,0.0,0.0,0.0,0.0,0.0,0.0,0.0,0.0,0.0,0.0,0.0,0.0,0.0,0.0,0.0,0.0,0.0,0.0,0.0,0.0,0.0,0.0,0.0,0.0,-0.2549,-0.1875,-0.2827,-0.498,-0.7018,-0.9648,-1.3059,-1.9654,-2.0966,-1.9694,-2.24,-2.2405,-2.1585,-2.4531,-2.3812,-2.2219,-2.5176,-2.4521,-2.2564,0.0,0.0,0.0,0.0,0.0,0.0,0.0,0.0,0.0,0.0,0.0,0.0,0.0,0.0,-1.597,0.0,0.0,-1.7111,-1.6487,-1.6569,-1.6271,-1.5137,-1.4523,-1.4167,-1.4128,-1.3722,-1.3275,-1.2917,-1.4305,-1.5177,-1.5111,-1.7425,-1.8913,-1.904,-2.0193,-2.0573,-1.9968,-2.0216,-1.9675,-1.8254,-1.7816,-1.731,-1.6746,-1.6644,-1.6862,-1.7366,-1.7659,-1.8066,-1.8562,-1.8646,-1.8846,-1.9046,-1.9104,-1.8981,-1.8745,-1.8108,-1.7417,-1.6767,-1.6522,-1.6131,-1.5655,0.0,0.0,0.0,0.0,0.0,0.0,0.0,0.0,0.0,0.0,0.0,0.0,0.0,0.0,0.0,0.0,0.0,0.0,0.0,1.2112,0.0,0.0,0.0,0.0,0.0,0.0,0.0,0.0,0.0,0.0,0.0,0.0,0.0,0.0,0.0,0.0,0.4141,0.5395,0.377,0.0343,0.0118,0.0409,-0.0508,-1.4199,-1.706,-1.4446,-1.9482,-1.9519,-1.7912,-2.2545,-2.1666,-1.9361,-2.3695,-2.279,-2.011,-2.0014,-1.8165,0.0,0.0,0.0,0.0,0.0,0.0,0.0,0.0,0.0,-1.6495,-1.5129,-1.5715,-1.6292,-1.5848,-1.6479,-1.6861,-1.6063,-1.5766,-1.5232,-1.4083,-1.3525,-1.3145,-1.2862,-1.2978,-1.2907,-1.2373,-1.3459,-1.4173,-1.4117,-1.5741,-1.6838,-1.7056,-1.8085,-1.8431,-1.7915,-1.8305,-1.7905,-1.6557,-1.6661,-1.6352,-1.5674,-1.6263,-1.6557,-1.6678,-1.7141,-1.7561,-1.7945,-1.8087,-1.8407,-1.8834,-1.8917,-1.8958,-1.8918,-1.8707,-1.7751,-1.6458,-1.6493,-1.5854,-1.4961,0.0,0.0,0.0,0.0,0.0,0.0,0.0,0.0,0.0,0.0,0.0,0.0,0.0,0.0,0.0,0.0,0.0,0.0,0.0,1.3594,1.4256,0.0,0.0,0.0,0.0,0.0,0.0,0.0,0.0,0.0,0.0,0.0,0.0,0.0,0.0,0.0,1.1885,1.4031,1.4637,1.3759,0.9117,0.9702,1.2077,0.0125,-0.5167,-0.6467,-0.8378,-0.934,-1.024,-1.3718,-1.4166,-1.3794,-1.6813,-1.7257,-1.6661,-1.6717,0.0,-1.6554,-1.7369,-1.7237,-1.706,-1.7882,-1.6601,-1.5463,0.0,0.0,-1.6298,-1.6488,-1.6686,-1.6685,-1.6096,-1.6255,-1.624,-1.5498,-1.5155,-1.4521,-1.3318,-1.2779,-1.238,-1.1899,-1.2193,-1.2384,-1.2287,-1.2769,-1.3184,-1.3378,-1.4933,-1.5868,-1.5879,-1.7335,-1.7636,-1.6473,-1.6483,-1.5909,-1.4631,-1.5071,-1.5268,-1.5193,-1.5684,-1.6128,-1.6523,-1.6725,-1.7016,-1.74,-1.7526,-1.7821,-1.8213,-1.8342,-1.8383,-1.8438,-1.8852,-1.8062,-1.6697,-1.6787,-1.6226,-1.527,0.0,0.0,0.0,0.0,0.0,0.0,0.0,0.0,0.0,0.0,0.0,0.0,0.0,0.0,0.0,0.0,0.0,0.0,1.3195,1.4166,1.4731,1.4903,1.4812,0.0,0.0,0.0,0.0,0.0,0.0,0.0,0.0,0.0,0.0,0.0,0.0,0.0,1.5811,1.7806,1.8525,1.815,1.6358,1.6667,1.7648,1.219,0.9129,0.6542,-0.2637,-0.5362,0.0,0.0,-0.9702,-0.8543,-1.2466,-1.259,-1.1378,-1.1972,-1.1302,0.0,-1.2446,-1.4333,-1.5756,0.0,-1.4766,-1.4357,-1.5458,-1.5511,-1.5481,-1.5762,-1.6213,-1.6357,-1.5328,-1.5343,-1.5111,0.0,-1.3545,-1.2929,-1.2269,-1.2016,-1.1745,-1.1149,-1.1854,-1.2289,-1.2142,-1.2524,-1.2865,-1.2995,-1.4107,-1.4877,-1.5105,-1.602,-1.6214,-1.5511,-1.5558,-1.5151,-1.4294,-1.4536,-1.4628,-1.4634,-1.4812,-1.5034,-1.5213,-1.5295,-1.5745,-1.6496,-1.679,-1.7062,-1.7269,-1.7011,-1.6896,-1.6926,-1.7146,-1.6725,-1.604,-1.6378,-1.5611,-1.4352,0.0,0.0,0.0,0.0,0.0,0.0,0.0,0.0,0.0,0.0,0.0,0.0,0.0,0.0,0.0,0.0,0.0,0.0,0.0,1.4502,1.4994,1.5175,1.5209,0.0,1.5405,0.0,0.0,0.0,0.0,0.0,0.0,0.0,0.0,0.0,0.0,1.8379,1.8352,2.0048,2.0712,2.0678,2.1319,2.144,2.1101,2.0144,1.891,1.6112,0.421,0.066,0.0,0.0,-0.4059,-0.3001,-0.6974,-0.7078,-0.6018,-0.7071,-0.6716,-0.646,-0.8548,-1.1194,0.0,-1.2822,-1.2987,-1.3404,-1.369,-1.3985,-1.4198,-1.4305,-1.4825,-1.4937,-1.4015,-1.3894,-1.3622,-1.2586,-1.2069,-1.1632,-1.1135,-1.1202,-1.1044,-1.0502,-1.1272,-1.1834,-1.1865,-1.2555,-1.3015,-1.3261,-1.3696,-1.4254,-1.4829,-1.5034,-1.5012,-1.4753,-1.4816,-1.453,-1.3941,-1.4025,-1.4118,-1.4118,-1.4253,-1.4228,-1.4149,-1.4013,-1.4438,-1.5293,-1.5599,-1.5849,-1.6014,-1.5782,-1.568,-1.5693,-1.5839,-1.5671,-1.5362,-1.5604,-1.4964,-1.3934,0.0,0.0,0.0,0.0,0.0,0.0,0.0,0.0,0.0,0.0,0.0,0.0,0.0,0.0,0.0,0.0,0.0,0.0,0.0,1.4771,1.5226,1.5951,1.6256,1.6343,1.6169,1.6106,1.6017,0.0,0.0,0.0,0.0,0.0,0.0,0.0,0.0,1.9547,1.9927,2.1358,2.2341,2.304,2.3384,2.3511,2.3422,2.2589,2.1165,1.9004,1.4315,0.0,0.0,0.0,0.4284,0.3057,0.101,-0.0171,0.0,-0.2465,-0.4206,-0.5964,-0.7177,0.0,-0.9325,-1.0775,-1.1529,-1.1992,-1.2583,-1.257,-1.2353,-1.2341,-1.236,-1.2269,-1.1916,-1.1858,-1.1601,-1.1051,-1.1099,-1.0883,-0.9802,-1.011,-1.0339,-0.9983,-1.0269,-1.0743,0.0,-1.2814,-1.3844,-1.4417,-1.397,-1.4118,-1.5132,-1.4751,-1.4425,-1.4141,-1.4111,-1.3768,-1.2934,-1.3387,-1.361,-1.3615,-1.4071,-1.4111,-1.3696,-1.3299,-1.3372,-1.3769,-1.3776,-1.3999,-1.4405,-1.4931,-1.5127,-1.5185,-1.5697,-1.5497,-1.488,-1.4566,-1.4557,-1.4662,0.0,0.0,0.0,0.0,0.0,0.0,0.0,0.0,0.0,0.0,0.0,0.0,0.0,0.0,0.0,0.0,0.0,0.0,0.0,1.4539,1.4813,1.6269,1.5831,1.609,1.7173,1.716,1.7605,1.8504,0.0,0.0,0.0,0.0,0.0,0.0,2.1816,2.1979,2.2155,2.3156,2.3625,2.3737,2.427,2.4227,2.3753,2.2662,2.1459,1.9931,0.0,0.0,0.0,0.0,0.793,0.6289,0.5194,0.3789,0.212,0.0217,-0.1211,-0.2492,-0.3873,0.0,-0.5547,-0.7873,-0.8552,-0.8944,-0.9978,-1.0476,-1.0636,-1.027,-1.0683,-1.0896,-1.0039,-1.0347,-1.0527,-1.0101,-1.0229,-1.0318,-1.0141,-1.0277,-1.0359,-1.0264,-1.0659,0.0,0.0,0.0,0.0,-1.379,-1.3758,-1.3882,-1.4391,-1.3775,-1.3314,-1.3004,-1.2676,-1.2287,-1.1769,-1.2309,-1.2608,-1.2603,-1.2549,-1.2571,-1.2701,-1.231,-1.2383,-1.2766,-1.2757,-1.298,-1.3347,-1.3187,-1.326,-1.3498,-1.341,-1.3543,-1.3683,-1.3058,-1.3219,-1.3779,0.0,0.0,0.0,0.0,0.0,0.0,0.0,0.0,0.0,0.0,0.0,0.0,0.0,0.0,0.0,0.0,0.0,0.0,0.0,0.0,1.4916,1.652,1.6056,1.6306,1.753,1.7538,1.7944,1.8807,0.0,0.0,0.0,0.0,2.2302,2.3133,2.3309,2.3448,2.361,2.4221,2.434,2.4202,2.4671,2.4554,2.4015,2.2766,2.1794,0.0,0.0,0.0,0.0,1.2081,1.0163,0.8547,0.7948,0.625,0.411,0.2299,0.1193,0.0223,-0.1307,-0.1917,-0.2603,-0.4836,-0.567,-0.6108,-0.6894,-0.7591,-0.8,-0.7565,-0.8258,-0.868,-0.7905,-0.852,-0.9025,-0.8642,-0.8774,-0.8956,-0.8992,-0.9334,-0.9554,-0.9578,-1.024,-1.0752,0.0,0.0,0.0,-1.3105,-1.3022,-1.3184,-1.3763,-1.305,-1.2492,-1.2402,-1.1967,-1.1588,-1.1209,-1.156,-1.1769,-1.176,-1.1271,-1.12,-1.1416,-1.093,-1.0948,-1.1336,-1.1326,-1.1551,-1.1921,-1.1726,-1.1704,-1.1808,-1.1667,-1.1947,-1.2289,-1.1768,-1.2026,-1.2723,0.0,0.0,0.0,0.0,0.0,0.0,0.0,0.0,0.0,0.0,0.0,0.0,0.0,0.0,0.0,0.0,0.0,0.0,0.0,0.0,0.0,1.671,1.6805,1.6954,1.7266,1.7197,1.7116,1.7101,1.805,1.8723,1.9166,2.0922,2.212,2.2769,2.3465,2.3959,2.4252,2.4557,2.4582,2.4469,2.4781,2.472,2.4317,2.3025,0.0,0.0,0.0,0.0,0.0,0.0,1.1405,0.9919,0.9316,0.7389,0.5203,0.386,0.2974,0.206,0.0474,0.0,-0.0409,-0.1797,-0.2774,-0.3478,-0.3542,-0.4172,-0.4726,-0.4473,-0.5191,-0.5765,0.0,0.0,-0.6999,-0.6687,-0.684,-0.6824,-0.6369,-0.7197,-0.7924,0.0,0.0,0.0,0.0,0.0,0.0,-1.2287,0.0,-1.2094,-1.3291,-1.2461,-1.2027,-1.2231,-1.1963,-1.1531,-1.1053,-1.1099,-1.1099,-1.1141,-1.0394,-1.0042,-1.0017,-0.9274,-0.9164,-0.9535,-0.9552,-0.9778,-1.0133,-1.054,-1.0487,-1.0209,-1.0573,-1.073,-1.0768,-1.073,-1.0982,-1.1567,0.0,0.0,0.0,0.0,0.0,0.0,0.0,0.0,0.0,0.0,0.0,0.0,0.0,0.0,0.0,0.0,0.0,0.0,0.0,0.0,0.0,0.0,0.0,0.0,0.0,0.0,0.0,0.0,0.0,2.0594,2.2277,2.3497,2.4181,0.0,2.4687,2.4693,2.4548,2.5304,2.5488,2.526,0.0,2.5599,2.4766,0.0,0.0,0.0,0.0,0.0,0.0,0.0,0.0,0.0,0.929,0.8137,0.7087,0.6333,0.5623,0.4842,0.3997,0.3325,0.2523,0.0853,0.0246,-0.0123,-0.1048,-0.171,-0.2154,-0.2192,-0.2974,-0.3499,0.0,0.0,0.0,-0.4323,-0.4655,0.0,-0.5047,-0.5801,0.0,-0.6483,0.0,-0.7875,-0.8145,-0.8164,0.0,0.0,-1.0542,-1.122,-1.1534,-1.1062,-1.0499,-1.0002,-1.0102,-0.9789,-0.9096,-0.9496,-1.0056,-1.0767,-0.9421,-0.9051,-0.9632,-0.8566,-0.8362,-0.8763,-0.8795,-0.8859,-0.9032,-0.9103,-0.9409,-0.9799,-0.9619,-0.9862,-1.0296,-0.9688,-0.9723,-1.0176,0.0,0.0,0.0,0.0,0.0,0.0,0.0,0.0,0.0,0.0,0.0,0.0,0.0,0.0,0.0,0.0,0.0,0.0,0.0,0.0,0.0,0.0,0.0,0.0,0.0,0.0,0.0,0.0,0.0,0.0,0.0,2.2369,2.3241,2.3623,2.4021,2.4067,2.3914,0.0,0.0,0.0,0.0,0.0,0.0,0.0,0.0,0.0,0.0,0.0,0.0,0.0,0.0,1.0956,0.9776,0.8915,0.8249,0.7652,0.0,0.673,0.6099,0.5411,0.4599,0.3558,0.2843,0.2173,0.1408,0.0788,0.0314,0.0128,-0.0517,0.0,-0.0733,-0.1856,0.0,0.0,0.0,0.0,-0.3638,-0.4401,-0.5058,0.0,-0.6208,0.0,-0.7265,-0.7283,-0.7433,0.0,-0.9181,-1.0089,-1.0346,-1.0004,-0.96,-0.9023,-0.9026,-0.8803,-0.8424,-0.8676,-0.9134,-0.9644,-0.8598,-0.8373,-0.878,-0.787,-0.7713,-0.8123,0.0,-0.7814,-0.8037,-0.8037,-0.8152,-0.8387,-0.8318,-0.8561,-0.8899,-0.8542,-0.8673,-0.9039,0.0,0.0,0.0,0.0,0.0,0.0,0.0,0.0,0.0,0.0,0.0,0.0,0.0,0.0,0.0,0.0,0.0,0.0,0.0,0.0,0.0,0.0,0.0,0.0,0.0,0.0,0.0,0.0,0.0,0.0,0.0,0.0,0.0,0.0,0.0,0.0,0.0,0.0,0.0,0.0,0.0,0.0,0.0,0.0,0.0,0.0,0.0,0.0,0.0,0.0,1.2548,1.1482,1.0431,0.9614,0.89,0.8249,0.8034,0.7869,0.7319,0.6726,0.6132,0.5801,0.4826,0.3843,0.3511,0.3051,0.2582,0.2155,0.0,0.127,0.1136,0.0,-0.1035,-0.1129,0.0,-0.2018,-0.1993,-0.2888,-0.3752,-0.4183,-0.5186,-0.602,-0.6602,-0.6556,-0.6531,-0.6577,-0.7572,-0.8573,-0.9272,-0.9066,-0.8816,-0.8564,-0.8273,-0.8153,-0.8206,-0.8153,-0.8153,-0.8203,-0.7877,-0.7693,-0.7571,-0.7075,-0.7047,-0.7301,0.0,0.0,-0.6991,-0.6991,-0.6813,-0.66,-0.693,-0.7083,-0.7082,-0.7278,-0.7582,-0.7924,0.0,0.0,0.0,0.0,0.0,0.0,0.0,0.0,0.0,0.0,0.0,0.0,0.0,0.0,0.0,0.0,0.0,0.0,0.0,0.0,0.0,0.0,0.0,0.0,0.0,0.0,0.0,0.0,0.0,0.0,0.0,0.0,0.0,0.0,0.0,0.0,0.0,0.0,0.0,0.0,0.0,0.0,0.0,0.0,0.0,0.0,0.0,0.0,0.0,0.0,1.238,1.1731,1.1061,1.0064,0.9159,0.8998,0.8682,0.8271,0.8208,0.7705,0.7033,0.6189,0.5784,0.5378,0.4512,0.4164,0.0,0.0,0.2515,0.2147,0.1276,0.0917,0.0731,0.0724,0.068,0.0618,0.0675,-0.0522,-0.1331,0.0,0.0,0.0,0.0,0.0,0.0,0.0,0.0,-0.5778,-0.7082,-0.7517,-0.7512,-0.7139,-0.6766,-0.6745,-0.7063,-0.6745,-0.6745,-0.706,-0.6944,-0.6568,-0.5929,-0.6082,-0.5908,-0.5445,-0.5365,0.0,-0.5389,-0.5389,-0.5585,-0.5871,-0.5815,-0.5839,-0.5864,-0.565,-0.5736,-0.5991,0.0,0.0,0.0,0.0,0.0,0.0,0.0,0.0,0.0,0.0,0.0,0.0,0.0,0.0,0.0,0.0,0.0,0.0,0.0,0.0,0.0,0.0,0.0,0.0,0.0,0.0,0.0,0.0,0.0,0.0,0.0,0.0,0.0,0.0,0.0,0.0,0.0,0.0,0.0,0.0,0.0,0.0,0.0,0.0,0.0,0.0,0.0,0.0,0.0,0.0,1.1792,1.1014,1.1112,1.0113,0.8956,0.8893,0.8738,0.8586,0.8527,0.8096,0.7613,0.7235,0.6856,0.6367,0.5496,0.0,0.0,0.0,0.3097,0.2822,0.2284,0.1967,0.0,0.1529,0.1279,0.1075,0.1062,0.0374,0.0,-0.0291,-0.1136,0.0,0.0,0.0,0.0,0.0,0.0,-0.3953,-0.5555,-0.6073,-0.6239,-0.6041,-0.5823,-0.5823,-0.6036,-0.5823,-0.5655,-0.5534,-0.5505,-0.5302,-0.4919,-0.5003,-0.4825,-0.4538,-0.4363,0.0,-0.3837,-0.3843,-0.3983,-0.417,-0.4134,-0.3912,-0.3755,-0.4221,-0.3978,-0.3631,0.0,0.0,0.0,0.0,0.0,0.0,0.0,0.0,0.0,0.0,0.0,0.0,0.0,0.0,0.0,0.0,0.0,0.0,0.0,0.0,0.0,0.0,0.0,0.0,0.0,0.0,0.0,0.0,0.0,0.0,0.0,0.0,0.0,0.0,0.0,0.0,0.0,0.0,0.0,0.0,0.0,0.0,0.0,0.0,0.0,0.0,0.0,0.0,0.0,0.0,1.1229,1.0444,1.0813,0.9978,0.8775,0.8596,0.8682,0.8831,0.8646,0.84,0.8179,0.8246,0.7852,0.7214,0.6332,0.5657,0.0,0.4179,0.3547,0.3092,0.3158,0.2656,0.2165,0.0,0.1476,0.1129,0.1134,0.0967,0.066,0.0,-0.0214,0.0,0.0,0.0,0.0,0.0,0.0,0.0,-0.43,-0.4587,-0.4778,-0.4942,-0.4833,-0.4778,-0.4942,-0.4833,-0.4498,-0.4053,-0.4161,-0.4053,-0.3831,-0.3833,-0.3715,-0.3571,-0.3248,0.0,0.0,-0.2398,-0.2372,-0.2352,-0.2361,-0.2036,-0.1693,-0.2517,-0.2158,-0.1508,0.0,0.0,0.0,0.0,0.0,0.0,0.0,0.0,0.0,0.0,0.0,0.0,0.0,0.0,0.0,0.0,0.0,0.0,0.0,0.0,0.0,0.0,0.0,0.0,0.0,0.0,0.0,0.0,0.0,0.0,0.0,0.0,0.0,0.0,0.0,0.0,0.0,0.0,0.0,0.0,0.0,0.0,0.0,0.0,0.0,0.0,0.0,0.0,0.0,0.0,0.0,1.0748,1.0283,0.9525,0.8751,0.8498,0.0,0.0,0.8652,0.8823,0.8974,0.8518,0.8525,0.8291,0.6929,0.0,0.5366,0.4803,0.367,0.2819,0.3151,0.2686,0.0,0.0,0.0,0.2213,0.2262,0.1737,0.1496,0.1608,0.0,0.0,0.0,0.0,0.0,0.0,0.0,0.0,-0.2876,-0.2949,-0.3167,-0.3722,-0.3224,-0.3223,-0.3778,-0.3224,-0.2892,-0.2836,-0.3326,-0.3053,-0.2068,-0.2608,-0.2452,-0.1799,-0.1372,0.0,0.0,-0.1004,-0.0877,-0.088,-0.0905,-0.074,-0.0492,-0.0137,-0.0137,-0.0329,0.0,0.0,0.0,0.0,0.0,0.0,0.0,0.0,0.0,0.0,0.0,0.0,0.0,0.0,0.0,0.0,0.0,0.0,0.0,0.0,0.0,0.0,0.0,0.0,0.0,0.0,0.0,0.0,0.0,0.0,0.0,0.0,0.0,0.0,0.0,0.0,0.0,0.0,0.0,0.0,0.0,0.0,0.0,0.0,0.0,0.0,0.0,0.0,0.0,0.0,0.0,0.0,0.9576,0.9087,0.0,0.0,0.8815,0.9039,0.9092,0.9306,0.9449,0.9214,0.8874,0.8339,0.7391,0.0,0.5517,0.4909,0.3858,0.3017,0.3149,0.2643,0.219,0.0,0.0,0.0,0.2306,0.2098,0.1947,0.1998,0.0,0.0,0.0,0.0,0.0,0.0,0.0,0.0,0.0,-0.1065,-0.1893,-0.251,-0.2288,-0.2288,-0.251,-0.1893,-0.1447,-0.1059,-0.1279,-0.0945,-0.0223,-0.078,-0.0719,-0.0109,0.0105,0.0,0.0,0.0847,0.0832,0.0603,0.0722,0.104,0.1288,0.0879,0.1251,0.1873,0.0,0.0,0.0,0.0,0.0,0.0,0.0,0.0,0.0,0.0,0.0,0.0,0.0,0.0,0.0,0.0,0.0,0.0,0.0,0.0,0.0,0.0,0.0,0.0,0.0,0.0,0.0,0.0,0.0,0.0,0.0,0.0,0.0,0.0,0.0,0.0,0.0,0.0,0.0,0.0,0.0,0.0,0.0,0.0,0.0,0.0,0.0,0.0,0.0,0.0,0.0,0.0,0.0,0.0,0.0,0.0,0.8785,0.9117,0.9236,0.9563,0.981,0.981,0.9234,0.8483,0.0,0.0,0.5681,0.5214,0.4115,0.3282,0.3483,0.2821,0.2221,0.0,0.0,0.2175,0.2166,0.2175,0.2181,0.0,0.0,0.0,0.0,0.0,0.0,0.0,0.0,0.0,0.0,0.078,-0.0167,-0.0949,-0.1006,-0.1006,-0.1004,-0.039,0.0111,0.0559,0.0559,0.0782,0.117,0.0893,0.0948,0.1389,0.0,0.0,0.0,0.2528,0.2441,0.2209,0.231,0.2528,0.272,0.1962,0.2431,0.3226,0.0,0.0,0.0,0.0,0.0,0.0,0.0,0.0,0.0,0.0,0.0,0.0,0.0,0.0,0.0,0.0,0.0,0.0,0.0,0.0,0.0,0.0,0.0,0.0,0.0,0.0,0.0,0.0,0.0,0.0,0.0,0.0,0.0,0.0,0.0,0.0,0.0,0.0,0.0,0.0,0.0,0.0,0.0,0.0,0.0,0.0,0.0,0.0,0.0,0.0,0.0,0.0,0.0,0.0,0.0,0.0,0.8543,0.9131,0.8861,0.9431,1.0114,1.0114,0.9669,0.9041,0.0,0.7038,0.6075,0.5919,0.4437,0.3417,0.4152,0.3155,0.2221,0.2221,0.0,0.0,0.2166,0.2175,0.0,0.0,0.0,0.0,0.0,0.0,0.0,0.0,0.0,0.0,0.0,0.2347,0.2119,0.0891,0.0895,0.0895,0.0891,0.1452,0.179,0.179,0.179,0.179,0.179,0.229,0.2455,0.0,0.0,0.0,0.0,0.3844,0.3972,0.4029,0.371,0.3588,0.3592,0.3511,0.3415,0.3283,0.0,0.0,0.0,0.0,0.0,0.0,0.0,0.0,0.0,0.0,0.0,0.0,0.0,0.0,0.0,0.0,0.0,0.0,0.0,0.0,0.0,0.0,0.0,0.0,0.0,0.0,0.0,0.0,0.0,0.0,0.0,0.0,0.0,0.0,0.0,0.0,0.0,0.0,0.0,0.0,0.0,0.0,0.0,0.0,0.0,0.0,0.0,0.0,0.0,0.0,0.0,0.0,0.0,0.0,0.0,0.0,0.0,0.0,0.7932,0.8131,0.8369,0.8422,0.7817,0.7196,0.7104,0.5963,0.4921,0.5106,0.4046,0.3154,0.3485,0.2821,0.2221,0.2221,0.2221,0.0,0.0,0.0,0.0,0.0,0.0,0.0,0.0,0.0,0.0,0.0,0.0,0.0,0.0,0.2794,0.2345,0.1564,0.151,0.1751,0.2187,0.2593,0.2935,0.3117,0.3212,0.3342,0.3456,0.3508,0.0,0.0,0.0,0.0,0.0,0.4604,0.4498,0.401,0.4522,0.4437,0.4071,0.4016,0.413,0.4311,0.0,0.0,0.0,0.0,0.0,0.0,0.0,0.0,0.0,0.0,0.0,0.0,0.0,0.0,0.0,0.0,0.0,0.0,0.0,0.0,0.0,0.0,0.0,0.0,0.0,0.0,0.0,0.0,0.0,0.0,0.0,0.0,0.0,0.0,0.0,0.0,0.0,0.0,0.0,0.0,0.0,0.0,0.7156,0.0,0.0,0.0,0.0,0.0,0.0,0.0,0.0,0.0,0.0,0.0,0.0,0.0,0.635,0.6942,0.0,0.7354,0.754,0.7594,0.6959,0.6256,0.6192,0.5302,0.4388,0.4343,0.3549,0.2888,0.3019,0.2419,0.1951,0.1951,0.2019,0.0,0.0,0.0,0.0,0.0,0.0,0.0,0.0,0.0,0.0,0.0,0.0,0.0,0.0,0.3244,0.2852,0.2517,0.2403,0.2704,0.3329,0.3713,0.3885,0.3909,0.4217,0.426,0.4101,0.4368,0.0,0.0,0.0,0.0,0.0,0.5319,0.522,0.4833,0.5214,0.5138,0.4776,0.4775,0.4788,0.4836,0.0,0.0,0.0,0.0,0.0,0.0,0.0,0.0,0.0,0.0,0.0,0.0,0.0,0.0,0.0,0.0,0.0,0.0,0.0,0.0,0.0,0.0,0.0,0.0,0.0,0.0,0.0,0.4333,0.5475,0.5912,0.5699,0.0,0.0,0.0,0.0,0.0,0.0,0.5903,0.5927,0.5732,0.6078,0.559,0.0,0.0,0.0,0.0,0.0,0.0,0.0,0.0,0.0,0.0,0.0,0.0,0.0,0.0,0.0,0.0,0.0,0.7002,0.7279,0.7274,0.6742,0.6032,0.5381,0.4825,0.0,0.354,0.2964,0.2621,0.2626,0.2086,0.1616,0.1623,0.1756,0.0,0.0,0.0,0.0,0.0,0.0,0.0,0.0,0.0,0.0,0.0,0.0,0.0,0.0,0.3584,0.364,0.3694,0.3516,0.3681,0.4249,0.4737,0.4737,0.4302,0.4792,0.4653,0.4028,0.4914,0.0,0.0,0.0,0.0,0.0,0.6011,0.6114,0.6283,0.586,0.5689,0.5636,0.5717,0.5399,0.4958,0.0,0.0,0.0,0.0,0.0,0.0,0.0,0.0,0.0,0.0,0.0,0.0,0.0,0.0,0.0,0.0,0.0,0.0,0.0,0.0,0.0,0.0,0.0,0.0,0.0,0.0,0.0,0.3789,0.3894,0.428,0.4787,0.4891,0.0,0.0,0.0,0.0,0.4229,0.4315,0.4219,0.3968,0.4057,0.3818,0.0,0.0,0.0,0.0,0.3266,0.3444,0.0,0.0,0.0,0.0,0.0,0.0,0.0,0.0,0.46,0.482,0.5111,0.0,0.5259,0.4786,0.4433,0.4192,0.0,0.3129,0.2588,0.2645,0.0,0.1691,0.1867,0.1774,0.1637,0.1636,0.1689,0.1823,0.0,0.0,0.0,0.0,0.0,0.0,0.0,0.0,0.0,0.0,0.0,0.0,0.0,0.369,0.3962,0.44,0.4568,0.4795,0.4976,0.5302,0.5464,0.548,0.5742,0.5573,0.4966,0.5542,0.0,0.0,0.0,0.0,0.6246,0.6593,0.6577,0.6343,0.6706,0.6463,0.6024,0.6239,0.5998,0.5641,0.0,0.0,0.0,0.0,0.0,0.0,0.0,0.0,0.0,0.0,0.0,0.0,0.0,0.0,0.0,0.0,0.0,0.0,0.0,0.0,0.0,0.0,0.0,0.0,0.0,0.0,0.0,0.0,0.0,0.2678,0.0,0.0,0.0,0.0,0.0,0.2287,0.2234,0.2063,0.1817,0.1695,0.1785,0.0,0.0,0.0,0.0,0.0,0.2415,0.262,0.0,0.2515,0.2622,0.2928,0.0,0.0,0.0,0.0,0.3953,0.4053,0.3838,0.4185,0.4488,0.3913,0.3734,0.3506,0.2751,0.0,0.0,0.0,0.0,0.1283,0.1372,0.1373,0.1384,0.1426,0.1572,0.0,0.0,0.0,0.0,0.0,0.0,0.0,0.0,0.0,0.0,0.0,0.0,0.0,0.0,0.3855,0.4124,0.4453,0.5011,0.5393,0.5546,0.5784,0.5839,0.5765,0.606,0.5801,0.5151,0.5808,0.6013,0.0,0.0,0.0,0.6625,0.6963,0.7028,0.6939,0.6948,0.6833,0.6622,0.6601,0.6424,0.6259,0.0,0.0,0.0,0.0,0.0,0.0,0.0,0.0,0.0,0.0,0.0,0.0,0.0,0.0,0.0,0.0,0.0,0.0,0.0,0.0,0.0,0.0,0.0,0.0,0.0,0.0,0.0,0.0,0.0,0.0,0.0,0.0,0.0897,0.0,0.0,0.0394,0.0395,-0.0056,-0.0285,-0.0407,-0.0227,0.0,0.0,0.0,0.0,0.0,0.0,0.0,0.0,0.214,0.2365,0.2678,0.2764,0.0,0.0,0.0,0.0,0.0,0.2775,0.3417,0.4104,0.3606,0.3484,0.3202,0.1983,0.0,0.0,0.0,0.0,0.0,0.0,0.1104,0.0,0.0,0.0,0.0,0.0,0.0,0.0,0.0,0.0,0.0,0.0,0.0,0.0,0.0,0.0,0.0,0.0,0.4018,0.4289,0.4455,0.523,0.5786,0.6109,0.6173,0.5993,0.5634,0.6018,0.5749,0.5107,0.5876,0.6116,0.0,0.0,0.0,0.7133,0.7248,0.7463,0.7657,0.7066,0.7028,0.727,0.6955,0.686,0.6941,0.0,0.0,0.0,0.0,0.0,0.0,0.0,0.0,0.0,0.0,0.0,0.0,0.0,0.0,0.0,0.0,0.0,0.0,0.0,0.0,0.0,0.0,0.0,0.0,0.0,0.0,0.0,0.0,0.0,0.0,0.095,0.0894,0.0738,0.0,0.0,0.0399,0.0351,-0.0175,-0.0403,-0.0453,-0.0925,0.0,0.0,0.0,0.0,0.0,0.0,0.0,0.0,0.0765,0.0756,0.0857,0.1167,0.0,0.0,0.0,0.0,0.0,0.2487,0.268,0.2644,0.2096,0.1984,0.186,0.1147,0.0,0.0,0.0,0.0,0.0,0.0,0.0,0.0,0.0,0.0,0.0,0.0,0.0,0.0,0.0,0.0,0.0,0.0,0.0,0.0,0.0,0.0,0.0,0.0,0.4348,0.4846,0.5725,0.5734,0.6062,0.6596,0.6334,0.6084,0.5852,0.5904,0.5889,0.5841,0.598,0.6323,0.0,0.0,0.7241,0.7583,0.7619,0.7671,0.7708,0.7606,0.7666,0.7764,0.7598,0.765,0.7761,0.0,0.0,0.0,0.0,0.0,0.0,0.0,0.0,0.0,0.0,0.0,0.0,0.0,0.0,0.0,0.0,0.0,0.0,0.0,0.0,0.0,0.0,0.0,0.0,0.0,0.0,0.0,0.0,0.0,-0.0056,-0.0056,-0.0056,-0.0285,-0.0647,0.0,-0.0692,-0.0965,-0.1421,-0.1648,-0.171,0.0,0.0,0.0,0.0,0.0,0.0,0.0,0.0,0.0,0.0,0.0483,0.0713,0.0874,0.0,0.0,0.0,0.0,0.0,0.1425,0.1301,0.1179,0.0913,0.1291,0.1575,0.1064,0.0,0.0,0.0,0.0,0.0,0.0,0.0,0.0,0.0,0.0,0.0,0.0,0.0,0.0,0.0,0.0,0.0,0.0,0.0,0.0,0.0,0.0,0.0,0.0,0.0,0.5289,0.5784,0.5846,0.6058,0.6438,0.6058,0.5902,0.5909,0.5909,0.5824,0.5739,0.6005,0.634,0.6743,0.0,0.7343,0.7715,0.7715,0.7715,0.7697,0.7521,0.7587,0.7765,0.7732,0.7646,0.7576,0.0,0.0,0.0,0.0,0.0,0.0,0.0,0.0,0.0,0.0,0.0,0.0,0.0,0.0,0.0,0.0,0.0,0.0,0.0,0.0,0.0,0.0,0.0,0.0,0.0,0.0,-0.0667,-0.0896,-0.1064,-0.1176,-0.129,-0.1234,-0.137,0.0,0.0,-0.1686,-0.2093,-0.2464,-0.2653,-0.2703,0.0,0.0,0.0,0.0,0.0,0.0,0.0,0.0,0.0,0.0,0.0,0.0,0.0,0.0,0.0,0.0937,0.0864,0.0776,0.0388,0.0279,0.0224,0.0224,0.0,0.1367,0.099,0.0,0.0,0.0,0.0,0.0,0.0,0.0,0.0,0.0,0.0,0.0,0.0,0.0,0.0,0.0,0.0,0.0,0.0,0.0,0.0,0.0,0.0,0.0,0.0,0.0,0.5563,0.5675,0.5763,0.5918,0.6083,0.572,0.5637,0.5835,0.5837,0.5738,0.562,0.6045,0.6429,0.6705,0.7144,0.7444,0.7715,0.7715,0.7715,0.769,0.7397,0.7477,0.7714,0.7949,0.7674,0.7282,0.0,0.0,0.0,0.0,0.0,0.0,0.0,0.0,0.0,0.0,0.0,0.0,0.0,0.0,0.0,0.0,0.0,0.0,0.0,0.0,0.0,0.0,0.0,0.0,0.0,-0.1972,-0.1895,-0.2344,-0.2344,-0.2348,-0.2354,-0.2184,-0.2109,-0.2055,0.0,-0.1858,-0.2033,-0.2579,-0.2703,-0.259,-0.3135,0.0,0.0,0.0,0.0,0.0,0.0,0.0,0.0,0.0,0.0,0.0,0.0,0.0,0.0097,0.01,0.0104,0.0053,0.0053,0.0109,0.0224,0.0224,0.0287,0.0,0.0572,0.0593,0.0,0.0,0.0,0.0,0.0,0.0,0.0,0.0,0.0,0.0,0.0,0.0,0.0,0.0,0.0,0.0,0.0,0.0,0.0,0.0,0.0,0.0,0.0,0.0,0.0,0.5948,0.5733,0.5639,0.5653,0.5427,0.5417,0.5628,0.5548,0.5636,0.5889,0.6292,0.6722,0.7165,0.7506,0.7693,0.7715,0.7715,0.7715,0.7712,0.769,0.7667,0.7811,0.8613,0.8167,0.736,0.0,0.0,0.0,0.0,0.0,0.0,0.0,0.0,0.0,0.0,0.0,0.0,0.0,0.0,0.0,0.0,0.0,0.0,0.0,0.0,0.0,0.0,0.0,-0.3707,-0.3707,-0.26,-0.2214,-0.2512,-0.2844,-0.3012,-0.3014,-0.3066,0.0,0.0,0.0,-0.2954,-0.3012,-0.3196,-0.3138,-0.2961,-0.3143,-0.3135,0.0,0.0,0.0,0.0,0.0,0.0,0.0,0.0,-0.0254,0.0,0.0,0.0,0.0,0.0,0.0,0.0,0.0,0.0056,0.0056,0.0,0.0057,0.0,0.0,0.0,0.0,0.0,0.0,0.0,0.0,0.0,0.0,0.0,0.0,0.0,0.0,0.0,0.0,0.0,0.0,0.0,0.0,0.0,0.0,0.0,0.0,0.0,0.0,0.0,0.0,0.5705,0.5142,0.5015,0.527,0.5242,0.528,0.5335,0.5658,0.5852,0.5902,0.63,0.6744,0.7197,0.7317,0.7488,0.7715,0.7715,0.7715,0.7715,0.7715,0.768,0.7733,0.8063,0.8085,0.801,0.0,0.0,0.0,0.0,0.0,0.0,0.0,0.0,0.0,0.0,0.0,0.0,0.0,0.0,0.0,0.0,0.0,0.0,0.0,0.0,0.0,0.0,0.0,-0.4294,-0.4391,-0.3358,-0.2936,-0.3124,-0.3622,-0.3877,-0.3889,0.0,0.0,0.0,0.0,0.0,0.0,-0.3871,-0.3832,-0.369,-0.373,-0.3654,0.0,0.0,0.0,0.0,0.0,0.0,0.0,0.0,-0.0517,0.0,0.0,0.0,0.0,0.0,0.0,0.0,0.0,-0.0056,-0.0112,0.0,0.0,0.0,0.0,0.0,0.0,0.0,0.0,0.0,0.0,0.0,0.0,0.0,0.0,0.0,0.0,0.0,0.0,0.0,0.0,0.0,0.0,0.0,0.0,0.0,0.0,0.0,0.0,0.0,0.0,0.0,0.4632,0.4492,0.4875,0.5063,0.5148,0.5197,0.5975,0.6209,0.5977,0.6497,0.6905,0.7193,0.7299,0.7507,0.7715,0.7715,0.7715,0.7715,0.7715,0.7694,0.771,0.7706,0.8006,0.8412,0.0,0.0,0.0,0.0,0.0,0.0,0.0,0.0,0.0,0.0,0.0,0.0,0.0,0.0,0.0,0.0,0.0,0.0,0.0,0.0,0.0,0.0,0.0,-0.435,-0.4608,-0.4357,-0.4326,-0.4513,-0.4903,-0.5141,-0.5174,-0.4983,0.0,0.0,0.0,0.0,0.0,0.0,-0.4639,-0.4761,-0.5084,-0.485,-0.4436,0.0,0.0,0.0,0.0,0.0,0.0,0.0,-0.0482,0.0,0.0,0.0,0.0,0.0,0.0,0.0,0.0,-0.0109,-0.0224,0.0,0.0,0.0,0.0,0.0,0.0,0.0,0.0,0.0,0.0,0.0,0.0,0.0,0.0,0.0,0.0,0.0,0.0,0.0,0.0,0.0,0.0,0.0,0.0,0.0,0.0,0.0,0.0,0.0,0.0,0.0,0.4289,0.4256,0.4421,0.4793,0.5096,0.5214,0.6419,0.6677,0.6129,0.6852,0.7193,0.7212,0.7573,0.7715,0.7715,0.7715,0.7715,0.7715,0.7715,0.772,0.7706,0.7721,0.8019,0.8455,0.0,0.0,0.0,0.0,0.0,0.0,0.0,0.0,0.0,0.0,0.0,0.0,0.0,0.0,0.0,0.0,0.0,0.0,0.0,0.0,0.0,0.0,0.0,0.0,0.0,0.0,-0.4748,-0.4508,-0.5327,-0.5625,0.0,0.0,0.0,-0.5327,0.0,0.0,0.0,0.0,-0.5107,-0.5155,-0.516,-0.4888,-0.4387,0.0,0.0,0.0,0.0,0.0,0.0,0.0,0.0,0.0,0.0,0.0,0.0,-0.0152,-0.0208,-0.0264,-0.0274,-0.0334,0.0,0.0,0.0,0.0,0.0,0.0,0.0,0.0,0.0,0.0,0.0,0.0,0.0,0.0,0.0,0.0,0.0,0.0,0.0,0.0,0.0,0.0,0.0,0.0,0.0,0.0,0.0,0.0,0.0,0.0,0.0,0.0,0.4168,0.4187,0.4626,0.5392,0.5814,0.5905,0.6993,0.7231,0.6764,0.7318,0.7569,0.7576,0.7675,0.7715,0.7715,0.7715,0.7715,0.7715,0.7715,0.7698,0.7706,0.7679,0.8175,0.8857,0.0,0.0,0.0,0.0,0.0,0.0,0.0,0.0,0.0,0.0,0.0,0.0,0.0,0.0,0.0,0.0,0.0,0.0,0.0,0.0,0.0,0.0,0.0,0.0,0.0,-0.6179,-0.5858,0.0,0.0,0.0,0.0,0.0,0.0,-0.5623,0.0,-0.542,0.0,0.0,-0.5722,-0.5731,-0.5784,-0.5525,-0.5097,0.0,0.0,0.0,0.0,0.0,0.0,0.0,0.0,0.0,0.0,0.0,0.0,-0.0262,-0.0319,-0.0376,-0.0389,-0.0449,0.0,0.0,0.0,0.0,0.0,0.0,0.0,0.0,0.0,0.0,0.0,0.0,0.0,0.0,0.0,0.0,0.0,0.0,0.0,0.0,0.0,0.0,0.0,0.0,0.0,0.0,0.0,0.0,0.0,0.0,0.0,0.0,0.4444,0.447,0.4969,0.5786,0.6271,0.6425,0.7429,0.778,0.7569,0.7666,0.7715,0.7715,0.7715,0.7795,0.7965,0.7757,0.7795,0.7961,0.7757,0.7795,0.7961,0.7961,0.8525,0.9244,0.0,0.0,0.0,0.0,0.0,0.0,0.0,0.0,0.0,0.0,0.0,0.0,0.0,0.0,0.0,0.0,0.0,0.0,0.0,0.0,0.0,0.0,0.0,0.0,0.0,0.0,0.0,0.0,0.0,0.0,0.0,0.0,-0.5699,-0.5392,0.0,-0.5655,0.0,-0.6083,-0.6294,-0.6345,-0.6622,-0.649,-0.6126,-0.618,0.0,0.0,0.0,0.0,0.0,0.0,0.0,0.0,-0.1275,0.0,-0.051,-0.0424,-0.0428,-0.0431,-0.0445,0.0,0.0,0.0,0.0,0.0,0.0,0.0,0.0,0.0,0.0,0.0,0.0,0.0,0.0,0.0,0.0,0.0,0.0,0.0,0.0,0.0,0.0,0.0,0.0,0.0,0.0,0.0,0.0,0.0,0.0,0.0,0.0,0.5141,0.4998,0.5074,0.547,0.6117,0.6578,0.0,0.7762,0.8271,0.8414,0.8002,0.7799,0.7753,0.7795,0.8044,0.8373,0.7961,0.804,0.841,0.7957,0.8044,0.8414,0.8451,0.8918,0.9584,0.0,0.0,0.0,0.0,0.0,0.0,0.0,0.0,0.0,0.0,0.0,0.0,0.0,0.0,0.0,0.0,0.0,0.0,0.0,0.0,0.0,0.0,0.0,0.0,0.0,0.0,0.0,0.0,0.0,0.0,0.0,0.0,0.0,-0.5388,0.0,-0.5864,-0.5816,-0.6258,-0.6408,-0.6432,-0.691,-0.6494,-0.5604,-0.5868,-0.5483,0.0,0.0,0.0,0.0,0.0,0.0,0.0,-0.1539,-0.132,-0.1269,-0.0769,-0.0721,-0.0778,0.0,-0.0561,0.0,0.0,0.0,0.0,0.0,0.0,0.0,0.0,0.0,0.0,0.0,0.0,0.0,0.0,0.0,0.0,0.0,0.0,0.0,0.0,0.0,0.0,0.0,0.0,0.0,0.0,0.0,0.0,0.0,0.0,0.0,0.5496,0.5572,0.5732,0.6019,0.655,0.7099,0.0,0.7934,0.8263,0.8712,0.8724,0.8533,0.8254,0.8574,0.8614,0.8414,0.8513,0.8622,0.8707,0.8582,0.859,0.8643,0.8712,0.899,0.9355,0.0,0.0,0.0,0.0,0.0,0.0,0.0,0.0,0.0,0.0,0.0,0.0,0.0,0.0,0.0,0.0,0.0,0.0,0.0,0.0,0.0,0.0,0.0,0.0,0.0,0.0,0.0,0.0,0.0,0.0,0.0,0.0,0.0,-0.5648,0.0,-0.6042,-0.6026,-0.6163,-0.6349,-0.6454,-0.6484,-0.6274,-0.5998,-0.5945,-0.5726,-0.5294,-0.4643,0.0,0.0,0.0,0.0,0.0,0.0,0.0,-0.1749,-0.1171,-0.101,-0.1066,0.0,0.0,0.0,0.0,0.0,0.0,0.0,0.0,0.0,0.0,0.0,0.0,0.0,0.0,0.0,0.0,0.0,0.0,0.0,0.0,0.0,0.0,0.0,0.0,0.0,0.0,0.0,0.0,0.0,0.0,0.0,0.6593,0.6382,0.623,0.6201,0.6415,0.6902,0.7152,0.7606,0.8226,0.8476,0.8837,0.9359,0.9039,0.876,0.857,0.8769,0.8846,0.8809,0.8793,0.8869,0.9026,0.8829,0.8833,0.8999,0.9035,0.9279,0.9651,0.0,0.0,0.0,0.0,0.0,0.0,0.0,0.0,0.0,0.0,0.0,0.0,0.0,0.0,0.0,0.0,0.0,0.0,0.0,0.0,0.0,0.0,0.0,0.0,0.0,0.0,0.0,0.0,0.0,0.0,0.0,0.0,0.0,-0.5906,0.0,0.0,-0.6013,-0.6095,-0.6268,-0.6406,-0.614,-0.6258,-0.6539,-0.6236,-0.6034,-0.5876,-0.5132,-0.4758,-0.4581,-0.4087,0.0,0.0,0.0,0.0,-0.222,-0.1556,-0.134,-0.1235,0.0,0.0,0.0,0.0,0.0,0.0,0.0,0.0,0.0,0.0,0.0,0.0,0.0,0.0,0.0,0.0,0.0,0.0,0.0,0.0,0.0,0.0,0.0,0.0,0.0,0.0,0.0,0.0,0.0,0.0,0.7077,0.6719,0.6624,0.6907,0.6756,0.698,0.7554,0.7596,0.7893,0.8476,0.9052,0.9541,0.9941,0.9279,0.891,0.8801,0.8882,0.9079,0.9279,0.8999,0.9083,0.9364,0.9003,0.9083,0.9364,0.9364,0.9616,0.9946,0.0,0.0,0.0,0.0,0.0,0.0,0.0,0.0,0.0,0.0,0.0,0.0,0.0,0.0,0.0,0.0,0.0,0.0,-0.9802,0.0,0.0,-1.0215,-1.0673,0.0,0.0,0.0,0.0,0.0,0.0,0.0,0.0,0.0,0.0,-0.5891,0.0,0.0,0.0,-0.6358,-0.6483,-0.6295,-0.7058,-0.6884,-0.6211,-0.6349,-0.6336,-0.6164,-0.5362,-0.5528,-0.5967,-0.4807,-0.4514,0.0,0.0,0.0,-0.2672,-0.1872,-0.1478,-0.1235,0.0,0.0,0.0,0.0,0.0,0.0,0.0,0.0,0.0,0.0,0.0,0.0,0.0,0.0,0.0,0.0,0.0,0.0,0.0,0.0,0.0,0.0,0.0,0.0,0.0,0.0,0.0,0.0,0.0,0.0,0.7064,0.6949,0.6833,0.6914,0.6949,0.6984,0.7105,0.7105,0.7523,0.8357,0.9252,0.9748,0.9758,0.9704,0.9487,0.9239,0.9655,0.9611,0.9319,0.9571,0.97,0.9739,0.966,0.9669,0.9639,0.9704,0.9748,0.9758,0.0,0.0,0.0,0.0,0.0,0.0,0.0,0.0,0.0,0.0,0.0,0.0,0.0,0.0,0.0,-1.0223,-1.016,-1.0262,-1.0555,-1.0435,-1.0512,-1.0946,-1.1272,-1.1642,0.0,0.0,0.0,0.0,0.0,0.0,0.0,-0.7351,-0.6862,0.0,0.0,0.0,0.0,0.0,-0.6614,-0.6751,-0.6863,-0.6882,-0.685,-0.632,-0.6476,-0.6867,-0.5756,-0.5797,-0.6333,-0.5514,-0.5246,-0.5152,-0.4469,0.0,0.0,0.0,-0.1987,0.0,-0.1116,0.0,0.0,0.0,0.0,0.0,0.0,0.0,0.0,0.0,0.0,0.0,0.0,0.0,0.0,0.0,0.0,0.0,0.0,0.0,0.0,0.0,0.0,0.0,0.0,0.0,0.0,0.0,0.0,0.6502,0.6712,0.668,0.6702,0.6793,0.6868,0.7196,0.7731,0.7731,0.8185,0.9101,0.9545,0.9718,0.9683,0.9718,0.9669,0.9545,0.9748,0.9709,0.9545,0.9669,0.9753,0.9753,0.9753,0.9713,0.9723,0.9718,0.9713,0.9683,0.0,0.0,0.0,0.0,0.0,0.0,0.0,0.0,0.0,0.0,0.0,0.0,0.0,0.0,0.0,0.0,-1.0467,-1.0685,-1.119,-1.1338,-1.1507,-1.1659,-1.1801,-1.1993,-1.2197,0.0,0.0,0.0,0.0,0.0,-0.8676,-0.7886,-0.7439,0.0,-0.6906,0.0,0.0,0.0,0.0,0.0,0.0,0.0,0.0,0.0,0.0,0.0,-0.6326,-0.636,-0.6857,-0.6226,-0.6003,-0.5893,-0.5215,-0.4759,0.0,0.0,0.0,0.0,0.0,0.0,0.0,0.0,0.0,0.0,0.0,0.0,0.0,0.0,0.0,0.0,0.0,0.0,0.0,0.0,0.0,0.0,0.0,0.0,0.0,0.0,0.0,0.0,0.0,0.0,0.0,0.0,0.0,0.6666,0.6666,0.6735,0.682,0.7002,0.7122,0.7534,0.8275,0.8402,0.8814,0.9519,0.9639,0.9683,0.9683,0.9683,0.9683,0.9683,0.9683,0.9683,0.9683,0.9683,0.9683,0.9683,0.9683,0.9683,0.9683,0.9683,0.9683,0.9683,0.0,0.0,0.0,0.0,0.0,0.0,0.0,0.0,0.0,0.0,0.0,0.0,0.0,-1.1867,-1.1773,-1.2473,-1.1682,-1.1331,-1.1742,-1.2141,-1.2351,-1.2418,-1.2387,0.0,-1.2684,0.0,0.0,0.0,0.0,0.0,-0.8977,-0.7987,-0.7538,-0.7544,-0.7291,-0.6676,-0.5909,0.0,0.0,0.0,0.0,0.0,0.0,0.0,0.0,0.0,0.0,-0.7528,-0.7944,-0.6998,-0.6824,-0.6883,-0.5948,-0.5377,-0.48,0.0,0.0,0.0,0.0,0.0,0.0,0.0,0.0,0.0,0.0,0.0,0.0,0.0,0.0,0.0,0.0,0.0,0.0,0.0,0.0,0.0,0.0,0.0,0.0,0.0,0.0,0.0,0.0,0.0,0.0,0.0,0.0,0.7332,0.7332,0.7405,0.7569,0.7833,0.7904,0.8066,0.8316,0.8728,0.898,0.906,0.9475,0.9683,0.9683,0.9683,0.9683,0.9683,0.9683,0.9683,0.9683,0.9683,0.9683,0.9683,0.9683,0.9683,0.9683,0.9683,0.9683,0.9683,0.0,0.0,0.0,0.0,0.0,0.0,0.0,0.0,0.0,0.0,0.0,0.0,0.0,-1.1152,-1.138,-1.1894,-1.2321,-1.2725,-1.3205,-1.3294,-1.3175,-1.2942,-1.2931,-1.2686,-1.2235,-1.2196,0.0,0.0,0.0,-0.9825,-0.8995,-0.8433,-0.7942,-0.7538,-0.7153,-0.6943,-0.6853,-0.7094,0.0,0.0,0.0,0.0,0.0,0.0,0.0,0.0,0.0,0.0,0.0,-0.8357,-0.801,-0.7716,-0.7072,-0.6208,-0.5196,-0.3839,0.0,0.0,0.0,0.0,0.0,0.0,0.0,0.0,0.0,0.0,0.0,0.0,0.0,0.0,0.0,0.0,0.0,0.0,0.0,0.0,0.0,0.0,0.0,0.0,0.0,0.0,0.0,0.0,0.0,0.0,0.0,0.0,0.7416,0.7412,0.7489,0.7655,0.7648,0.7976,0.8557,0.8963,0.9297,0.943,0.9365,0.9317,0.9317,0.9317,0.9317,0.9331,0.9607,0.9683,0.966,0.9428,0.9474,0.9655,0.9423,0.9483,0.9683,0.9683,0.9683,0.9683,0.0,0.0,0.0,0.0,0.0,0.0,0.0,0.0,0.0,0.0,0.0,0.0,0.0,0.0,-1.1486,-1.2043,-1.3019,-1.3729,-1.405,-1.4041,-1.3817,-1.336,-1.3183,-1.2823,-1.2158,-1.2082,0.0,0.0,0.0,0.0,0.0,-0.8879,-0.8232,-0.7433,-0.7055,-0.6957,0.0,0.0,0.0,-0.8066,0.0,0.0,-0.9302,0.0,0.0,0.0,0.0,0.0,0.0,0.0,-0.8901,-0.8284,-0.8009,0.0,0.0,0.0,0.0,0.0,-0.2082,0.0,0.0,0.0,0.0,0.0,0.0,0.0,0.0,0.0,0.0,0.0,0.0,0.0,0.0,0.0,0.0,0.0,0.0,0.0,0.0,0.0,0.0,0.0,0.0,0.0,0.0,0.0,0.0,0.0,0.775,0.775,0.7784,0.7889,0.7976,0.8267,0.8805,0.9083,0.9293,0.947,0.9269,0.9176,0.9176,0.9256,0.9299,0.9317,0.9598,0.9644,0.9488,0.9207,0.9179,0.9299,0.9147,0.9262,0.9529,0.9667,0.9634,0.9585,0.0,0.0,0.0,0.0,0.0,0.0,0.0,0.0,0.0,0.0,0.0,0.0,0.0,0.0,0.0,-1.3251,-1.3855,-1.4222,-1.4222,-1.4326,-1.4148,-1.3655,-1.3249,-1.2825,-1.2389,-1.1974,0.0,0.0,0.0,0.0,0.0,0.0,-0.8299,-0.7405,-0.7034,-0.673,-0.6431,0.0,-0.7206,-0.8148,0.0,-0.8717,-0.9991,0.0,0.0,0.0,-1.0058,-1.002,0.0,-1.002,0.0,0.0,0.0,0.0,0.0,0.0,0.0,0.0,0.0,0.0,0.0,0.0,0.0,0.0,0.0,0.0,0.0,0.0,0.0,0.0,0.0,0.0,0.0,0.0,0.0,0.0,0.0,0.0,0.0,0.0,0.0,0.0,0.0,0.0,0.0,0.0,0.0,0.8418,0.8418,0.8418,0.8492,0.8679,0.889,0.898,0.8975,0.8975,0.8975,0.902,0.9191,0.9262,0.9262,0.9527,0.966,0.966,0.9678,0.944,0.9087,0.9078,0.8852,0.8553,0.8926,0.9087,0.9156,0.9532,0.9506,0.9284,0.0,0.0,0.0,0.0,0.0,0.0,0.0,0.0,0.0,0.0,0.0,0.0,0.0,0.0,0.0,-1.3917,-1.4337,-1.4558,-1.4558,-1.461,-1.4433,-1.4026,-1.363,-1.3128,-1.2553,-1.2167,0.0,0.0,0.0,0.0,0.0,0.0,0.0,0.0,-0.7069,-0.6861,-0.6754,-0.6858,0.0,0.0,-0.8522,-0.9114,0.0,0.0,0.0,0.0,0.0,-1.0916,-1.089,0.0,-1.0235,-0.95,0.0,0.0,0.0,0.0,0.0,0.0,-0.3188,0.0,0.0,0.0,0.0,0.0,0.0,0.0,0.0,0.0,0.0,0.0,0.0,0.0,0.0,0.0,0.0,0.0,0.0,0.0,0.0,0.0,0.0,0.0,0.0,0.0,0.0,0.0,0.852,0.8418,0.8418,0.8418,0.8414,0.8492,0.8537,0.8651,0.876,0.8805,0.885,0.9016,0.8764,0.8664,0.8664,0.8711,0.8754,0.8767,0.9055,0.8954,0.86,0.8631,0.8765,0.8908,0.8514,0.8713,0.9256,0.9222,0.9141,0.9092,0.0,0.0,0.0,0.0,0.0,0.0,0.0,0.0,0.0,0.0,0.0,0.0,0.0,0.0,0.0,-1.3961,-1.4222,-1.4395,-1.4395,-1.4494,-1.4419,-1.4124,-1.3889,-1.3452,-1.2711,-1.2437,0.0,0.0,0.0,0.0,0.0,0.0,0.0,0.0,0.0,0.0,0.0,0.0,0.0,0.0,-0.8622,0.0,0.0,-1.0623,-1.0944,0.0,0.0,0.0,-1.1304,-1.1294,-1.0836,0.0,0.0,0.0,0.0,0.0,0.0,0.0,0.0,0.0,0.0,0.0,0.0,0.0,0.1576,0.2464,0.3192,0.0,0.0,0.0,0.0,0.0,0.0,0.0,0.0,0.0,0.0,0.0,0.0,0.0,0.0,0.0,0.0,0.9295,0.9008,0.8917,0.8576,0.8418,0.8418,0.8418,0.8418,0.8418,0.8418,0.8451,0.8565,0.8565,0.8647,0.8737,0.8583,0.8514,0.8514,0.8596,0.8639,0.8651,0.8882,0.8754,0.8399,0.8299,0.8384,0.8535,0.8328,0.8499,0.8937,0.8996,0.8935,0.889,0.0,0.0,0.0,0.0,0.0,0.0,0.0,0.0,0.0,0.0,0.0,0.0,0.0,0.0,0.0,0.0,-1.3874,-1.4026,-1.4082,-1.4321,0.0,-1.4118,-1.4071,-1.3684,-1.2914,-1.2711,0.0,0.0,0.0,0.0,0.0,0.0,0.0,0.0,0.0,0.0,0.0,0.0,0.0,-0.8398,-0.849,-0.9337,0.0,0.0,-1.0989,-1.1322,-1.1473,-1.1423,-1.1372,-1.1723,-1.125,0.0,0.0,0.0,0.0,0.0,-0.5279,0.0,0.0,0.0,0.0,0.0,0.0,0.0,0.0685,0.161,0.2496,0.3029,0.0,0.0,0.0,0.0,0.0,0.0,0.0,0.0,0.0,0.0,0.0,0.0,0.0,0.0,0.9726,0.9392,0.9138,0.8937,0.8599,0.8418,0.8418,0.8418,0.8418,0.8418,0.8418,0.8418,0.8418,0.8418,0.8418,0.8418,0.8565,0.8679,0.8679,0.8854,0.8935,0.8935,0.8935,0.8744,0.8354,0.8036,0.7883,0.79,0.8184,0.8345,0.846,0.8808,0.8809,0.8679,-1.2896,0.0,0.0,0.0,0.0,0.0,0.0,0.0,0.0,0.0,0.0,0.0,0.0,0.0,0.0,0.0,0.0,-1.4171,-1.4535,-1.4601,-1.4697,-1.4875,-1.4507,-1.4041,-1.3467,-1.3016,0.0,0.0,0.0,0.0,0.0,0.0,0.0,0.0,0.0,0.0,0.0,0.0,0.0,-0.8546,-0.9031,0.0,-0.9921,-1.0835,-1.1208,-1.1322,-1.1473,-1.1573,-1.1623,-1.1473,-1.1267,-1.0889,0.0,0.0,0.0,0.0,0.0,0.0,0.0,0.0,0.0,0.0,0.0,0.0,0.0,0.0934,0.1914,0.0,0.0,0.0,0.0,0.0,0.0,0.0,0.0,0.0,0.0,0.0,0.0,0.0,0.0,0.0,0.9805,0.9443,0.9186,0.9128,0.8684,0.8418,0.8418,0.8418,0.8418,0.8418,0.8418,0.8418,0.8418,0.8418,0.8418,0.8418,0.8451,0.8451,0.8451,0.8496,0.8537,0.8537,0.8537,0.8456,0.8363,0.7996,0.799,0.8264,0.7897,0.8131,0.862,0.8545,0.8496,0.8492,-1.316,0.0,0.0,0.0,0.0,0.0,0.0,0.0,0.0,0.0,0.0,0.0,0.0,0.0,0.0,0.0,0.0,0.0,0.0,0.0,-1.484,-1.5108,-1.488,-1.4477,-1.3893,-1.3425,0.0,0.0,0.0,0.0,0.0,0.0,0.0,0.0,0.0,0.0,0.0,0.0,-0.8303,-0.8544,-0.8746,0.0,-0.997,-1.0416,-1.0906,-1.1326,-1.1528,-1.1728,-1.1904,-1.1895,-1.1626,0.0,0.0,-0.984,-0.8669,0.0,-0.6956,-0.5767,0.0,0.0,0.0,-0.2804,0.0,0.0,0.0,0.0464,0.1219,0.2417,0.0,0.0,0.0,0.0,0.0,0.0,0.0,0.0,0.0,0.0,0.0,0.0,0.0,0.0,1.0612,1.0262,0.9904,0.9544,0.9294,0.9025,0.8566,0.8558,0.8518,0.8422,0.8418,0.8418,0.8418,0.8418,0.8418,0.8418,0.8418,0.8418,0.8418,0.8418,0.8418,0.8418,0.8418,0.8418,0.839,0.798,0.8053,0.8335,0.7898,0.8051,0.8529,0.8455,0.8418,0.8418,-1.3421,0.0,0.0,0.0,0.0,0.0,0.0,0.0,0.0,0.0,0.0,0.0,0.0,0.0,0.0,0.0,0.0,0.0,0.0,0.0,0.0,-1.5263,-1.5355,-1.5057,-1.4367,-1.4058,0.0,0.0,0.0,0.0,0.0,0.0,0.0,0.0,0.0,0.0,0.0,0.0,0.0,-0.8769,0.0,-0.9051,-0.9989,-1.0035,-1.0553,-1.1276,-1.1623,-1.1873,-1.2126,-1.2341,-1.1982,-1.1479,-1.1722,-1.0605,0.0,0.0,0.0,0.0,0.0,0.0,0.0,0.0,0.0,-0.2387,0.0,0.0,0.0,0.1519,0.0,0.0,0.0,0.0,0.0,0.0,0.0,0.0,0.0,0.0,0.0,0.0,0.0,0.0,0.0,1.116,1.0664,1.001,0.998,0.9678,0.8972,0.8762,0.8598,0.8484,0.8409,0.8373,0.8418,0.8418,0.8418,0.8418,0.8418,0.8418,0.8418,0.8418,0.8418,0.8418,0.8418,0.8418,0.839,0.798,0.8083,0.846,0.7972,0.8091,0.8537,0.8537,0.8574,0.8651,-1.3769,-1.3365,0.0,0.0,0.0,0.0,0.0,0.0,0.0,0.0,0.0,0.0,0.0,0.0,0.0,0.0,0.0,0.0,-1.4642,0.0,0.0,0.0,-1.6221,-1.5962,-1.5018,-1.4874,-1.4592,0.0,0.0,0.0,0.0,0.0,0.0,0.0,-0.9302,0.0,0.0,0.0,-0.9139,0.0,-0.9197,-0.9169,0.0,-1.0277,-1.0736,-1.1023,-1.1673,-1.1972,-1.2081,0.0,-1.2063,-1.1932,0.0,-1.1201,-1.0698,0.0,0.0,0.0,0.0,0.0,0.0,0.0,-0.4577,0.0,0.0,0.0,-0.1625,0.0729,0.0,0.0,0.0,0.0,0.0,0.0,0.0,0.0,0.0,0.0,0.0,0.0,0.0,0.0,0.0,1.1151,1.0902,1.0552,1.0206,0.9967,0.988,0.9,0.8608,0.8846,0.8456,0.8295,0.8418,0.8418,0.8418,0.8418,0.8418,0.8418,0.8418,0.8418,0.8418,0.8418,0.8418,0.8418,0.839,0.798,0.824,0.8861,0.8085,0.8244,0.8935,0.8935,0.9164,0.9505,-1.4157,-1.3835,0.0,0.0,0.0,0.0,0.0,0.0,0.0,0.0,0.0,0.0,0.0,0.0,0.0,0.0,0.0,-1.4552,0.0,0.0,0.0,0.0,0.0,0.0,0.0,-1.5682,-1.5331,0.0,-1.4023,0.0,0.0,0.0,0.0,0.0,-1.0714,0.0,-0.9574,0.0,-0.9575,0.0,0.0,0.0,0.0,-1.0198,-1.0816,-1.1216,-1.1107,-1.1481,-1.1977,0.0,-1.2076,0.0,0.0,0.0,0.0,0.0,0.0,0.0,0.0,0.0,0.0,0.0,0.0,0.0,-0.3176,0.0,-0.2155,0.0,0.0,0.0,0.0,0.0,0.0,0.0,0.6522,0.0,0.0,0.0,0.0,0.0,0.0,0.0,0.0,0.0,0.0,0.0,1.0714,1.0477,0.9616,0.9196,0.8894,0.8683,0.8489,0.8365,0.8295,0.8295,0.8336,0.8418,0.8418,0.8418,0.8418,0.8418,0.8418,0.8418,0.8418,0.8418,0.8402,0.821,0.8359,0.8643,0.8523,0.8862,0.9319,0.9092,0.9244,0.9619,-1.4764,0.0,0.0,0.0,0.0,0.0,0.0,0.0,0.0,0.0,0.0,0.0,-1.3756,-1.3936,0.0,0.0,-1.44,-1.4829,0.0,0.0,-1.6073,0.0,0.0,0.0,0.0,0.0,-1.6154,0.0,0.0,0.0,0.0,0.0,0.0,0.0,0.0,-1.1296,-1.0148,0.0,0.0,-0.9273,-0.9365,-0.9515,-0.969,-1.0202,-1.0698,-1.1147,-1.0785,-1.1082,-1.1733,-1.1936,-1.1972,0.0,-1.2207,0.0,0.0,0.0,0.0,0.0,-0.8508,0.0,0.0,0.0,0.0,0.0,0.0,0.0,0.0,0.0,0.0,0.0,0.0,0.0,0.0,0.0,0.0,0.0,0.0,0.0,0.0,0.0,0.0,0.0,0.0,0.0,0.0,1.0852,1.1137,1.091,0.9742,0.9403,0.9089,0.8644,0.8534,0.8376,0.822,0.8216,0.8258,0.8418,0.8418,0.8418,0.8418,0.8418,0.8418,0.8418,0.8418,0.8418,0.8418,0.8418,0.8455,0.8574,0.8899,0.9324,0.9737,0.9326,0.9506,0.9914,-1.5705,-1.4857,0.0,0.0,0.0,0.0,0.0,0.0,0.0,0.0,0.0,0.0,0.0,0.0,0.0,0.0,0.0,-1.3499,-1.4772,0.0,-1.5942,0.0,0.0,-1.7804,0.0,0.0,0.0,0.0,0.0,0.0,0.0,0.0,0.0,0.0,0.0,-1.1422,-1.0292,-1.0374,-1.0034,-0.9385,-0.9395,-0.9732,-1.0274,0.0,-1.0343,-1.0401,-1.0904,0.0,0.0,-1.1599,-1.1723,0.0,0.0,0.0,0.0,0.0,0.0,0.0,0.0,0.0,0.0,-0.7928,0.0,0.0,0.0,0.0,-0.4281,0.0,0.0,0.0,0.0,0.0,0.0,0.0,0.0,0.0,0.0,0.0,0.0,0.0,0.0,0.0,0.0,0.0,0.0,1.1697,1.149,1.117,1.0584,0.968,0.916,0.8982,0.8622,0.8344,0.822,0.8216,0.8258,0.8418,0.8418,0.8418,0.8418,0.8418,0.8418,0.8418,0.8418,0.8418,0.8418,0.8418,0.8618,0.898,0.8975,0.9532,1.0229,0.9772,1.0114,1.072,0.0,0.0,0.0,0.0,0.0,0.0,0.0,-1.4827,0.0,0.0,0.0,0.0,0.0,-1.4496,-1.462,0.0,0.0,-1.5404,-1.6157,-1.6609,0.0,0.0,0.0,-1.7977,0.0,0.0,0.0,0.0,0.0,0.0,0.0,0.0,0.0,0.0,0.0,-1.2294,0.0,0.0,0.0,0.0,0.0,-0.9986,-1.0039,0.0,0.0,-1.0301,-1.0277,-1.0571,0.0,-1.1204,-1.1469,-1.1673,-1.1623,-1.1628,-1.1573,-1.0968,-1.082,0.0,0.0,0.0,-0.9187,-0.8389,0.0,0.0,0.0,0.0,0.0,0.0,0.0,0.0,0.0,0.0,0.0,0.0,0.0,0.0,0.0,0.0,0.0,0.0,0.0,0.0,0.0,0.0,0.0,1.0337,1.0392,1.0342,0.9965,0.9621,0.9375,0.9156,0.8782,0.8539,0.8411,0.8185,0.816,0.8418,0.8418,0.8418,0.8418,0.8418,0.8418,0.8418,0.8418,0.8418,0.8418,0.8418,0.8496,0.8655,0.9199,0.9593,0.985,0.9997,1.0434,1.084,-1.7086,0.0,0.0,0.0,0.0,0.0,0.0,0.0,0.0,0.0,-1.5665,0.0,-1.5068,0.0,-1.5118,0.0,-1.5846,-1.6116,-1.6378,-1.6931,0.0,-1.7123,-1.7828,0.0,0.0,0.0,0.0,0.0,0.0,-1.6706,0.0,0.0,0.0,0.0,0.0,0.0,-1.1785,0.0,-1.1046,0.0,0.0,-1.0063,0.0,0.0,-0.9971,-1.0013,0.0,-1.0321,-1.0841,-1.1068,-1.1322,-1.1523,-1.1473,-1.1477,-1.1473,-1.1023,-1.0968,-1.0918,-1.0387,-1.0186,0.0,-0.9121,-0.8751,0.0,-0.7593,0.0,0.0,0.0,0.0,0.0,0.0,0.0,0.0,0.0,0.0,0.0,0.0,0.5603,0.0,0.0,0.0,0.0,0.0,0.0,1.0212,0.9563,1.0009,1.0136,0.0,0.0,0.9479,0.9182,0.886,0.8616,0.8448,0.8146,0.8111,0.8336,0.8377,0.8418,0.8418,0.8418,0.8418,0.8418,0.8418,0.8418,0.8418,0.8418,0.8418,0.8492,0.927,0.9619,0.9644,1.0103,1.0303,1.0443,0.0,0.0,0.0,0.0,-1.7141,0.0,0.0,0.0,-1.682,0.0,-1.6126,-1.5934,-1.5599,-1.5079,-1.495,-1.5577,-1.5584,-1.5568,-1.5508,-1.6545,0.0,0.0,-1.7769,-1.8172,-1.7399,0.0,0.0,0.0,0.0,0.0,0.0,0.0,0.0,0.0,-1.3398,0.0,-1.1358,-1.1613,-1.094,-0.9808,-1.0027,-0.9995,-0.981,-0.9717,-0.9629,-0.9596,-0.9939,-1.036,-1.0779,-1.1148,-1.1322,-1.1322,-1.1322,-1.1322,-1.1322,-1.1322,-1.1322,-1.1221,-1.082,-1.0722,-1.0612,-1.0127,0.0,0.0,0.0,0.0,-0.7109,0.0,0.0,0.0,0.0,0.0,0.0,0.0,0.0,0.0,0.0,0.0,0.0,0.0,0.0,0.0,0.0,1.0089,1.0651,0.9381,1.0223,0.0,0.0,0.0,0.9449,0.9154,0.8831,0.8549,0.8397,0.8092,0.8044,0.8216,0.8336,0.8373,0.8418,0.8418,0.8418,0.8418,0.8418,0.8418,0.8418,0.8418,0.8418,0.8492,0.927,0.9584,0.969,1.0083,0.9953,0.9705,-1.9221,-1.976,-2.005,0.0,-1.93,-1.8891,0.0,0.0,0.0,0.0,-1.6468,-1.5474,-1.5441,-1.5034,-1.4675,-1.4443,-1.498,0.0,0.0,0.0,0.0,-1.6841,-1.8344,-1.9038,-1.8744,-1.8751,0.0,-1.8776,0.0,0.0,-1.7584,0.0,0.0,0.0,0.0,0.0,-1.2331,-1.187,-1.1422,-1.1005,-1.0598,-1.0475,0.0,0.0,-0.9684,-0.988,-1.0011,-1.0331,-1.0779,-1.1148,-1.1322,-1.1322,-1.1322,-1.1322,-1.1322,-1.1322,-1.1322,-1.1272,-1.1171,-1.1175,-1.1015,-1.0446,-1.0297,-1.0135,0.0,0.0,0.0,0.0,0.0,0.0,0.0,0.0,0.0,0.0,0.0,0.0,0.0,0.0,0.0,0.5889,0.0,0.0,0.8598,0.8537,0.8564,0.8878,0.9203,0.0,0.0,0.0,0.0,0.8257,0.7923,0.7843,0.8079,0.7771,0.7806,0.8216,0.8254,0.8295,0.8418,0.8418,0.8418,0.8418,0.8418,0.8418,0.8418,0.8418,0.8418,0.8455,0.8971,0.9562,1.0181,1.0553,1.0634,1.0572,-2.0922,0.0,0.0,-2.2148,0.0,0.0,-2.0037,0.0,0.0,-1.8111,-1.7003,0.0,-1.5733,-1.5295,-1.4829,-1.4322,-1.5172,0.0,-1.5418,0.0,0.0,-1.7467,-1.8573,-1.8984,-1.8629,-1.8865,0.0,-1.8594,0.0,0.0,-1.7825,0.0,0.0,0.0,0.0,-1.3017,0.0,-1.2137,-1.163,-1.1237,-1.1069,0.0,0.0,-0.9775,-0.9745,-1.0088,-1.0,-1.0392,-1.0994,-1.1203,-1.1322,-1.1322,-1.1322,-1.1322,-1.1322,-1.1322,-1.1322,-1.1322,-1.1322,-1.1322,-1.1221,-1.0863,-1.0867,-1.0816,-1.0186,-0.9447,-0.8702,0.0,0.0,0.0,0.0,0.0,0.0,0.0,0.0,0.0,0.0,0.0,0.0,0.0,0.546,0.0,0.7357,0.7416,0.7632,0.8175,0.8419,0.0,0.0,0.0,0.0,0.7934,0.7816,0.775,0.7624,0.7612,0.7671,0.7836,0.787,0.8077,0.8418,0.8418,0.8418,0.8418,0.8418,0.8418,0.8418,0.8418,0.8418,0.8455,0.9047,0.9804,1.0608,1.0805,1.0886,1.0886,0.0,0.0,0.0,0.0,0.0,0.0,0.0,-1.9757,0.0,-1.7929,0.0,-1.6821,-1.609,-1.5572,-1.5068,-1.4582,0.0,-1.6185,-1.5699,-1.6944,-1.7785,-1.7968,-1.855,-1.863,-1.8046,-1.8814,0.0,0.0,0.0,0.0,0.0,0.0,0.0,0.0,0.0,0.0,0.0,-1.2405,-1.1785,-1.1098,-1.1421,-1.1095,-1.0398,-0.9757,-0.9763,-1.0064,-0.9965,-1.049,-1.1221,-1.1322,-1.1322,-1.1322,-1.1322,-1.1322,-1.1322,-1.1322,-1.1322,-1.1322,-1.1322,-1.1322,-1.1322,-1.1322,-1.1322,-1.1171,-1.0655,-1.0032,-0.9343,-0.8373,-0.7643,-0.6907,0.0,0.0,0.0,0.0,0.0,0.0,0.0,0.0,0.0,0.0,0.0,0.0,0.5531,0.6553,0.7209,0.0,0.0,0.0,0.0,0.0,0.0,0.767,0.7905,0.0,0.7047,0.0,0.7483,0.7374,0.7443,0.7739,0.8291,0.8332,0.8336,0.8336,0.8377,0.8418,0.8418,0.8418,0.8418,0.8492,0.927,1.0069,1.0723,1.0848,1.0886,1.0848,0.0,0.0,0.0,0.0,0.0,-2.1669,-2.0862,-1.9956,-1.9037,-1.8212,-1.6655,-1.5553,-1.5466,-1.5215,-1.486,-1.4317,-1.515,0.0,0.0,0.0,0.0,-1.7346,-1.8356,-1.8865,-1.8715,-1.906,-1.9068,0.0,0.0,0.0,0.0,0.0,0.0,0.0,0.0,0.0,-1.2121,-1.269,0.0,-1.204,-1.19,-1.1428,-1.0822,-1.0027,-0.9678,-0.9514,-0.9361,-0.9988,-1.0871,-1.1322,-1.1372,-1.1322,-1.1322,-1.1322,-1.1322,-1.1322,-1.1322,-1.1322,-1.1322,-1.1322,-1.1322,-1.1322,-1.1322,-1.1272,-1.1171,-1.034,-0.9658,-0.9743,-0.9026,-0.8087,-0.7331,0.0,0.0,0.0,0.0,0.0,0.0,0.0,0.0,0.0,0.0,0.3886,0.0,0.0,0.0,0.0,0.0,0.0,0.0,0.0,0.0,0.0,0.6563,0.0,0.0,0.0,0.6957,0.7255,0.7251,0.7377,0.7583,0.7874,0.7998,0.7998,0.8291,0.8418,0.8418,0.8418,0.8418,0.8492,0.927,0.9702,0.9903,1.0636,1.069,1.0443,0.0,0.0,0.0,0.0,0.0,0.0,0.0,-1.9943,0.0,-1.7999,-1.6981,-1.6159,-1.5698,-1.5789,-1.5613,-1.4937,-1.5542,-1.5964,-1.5964,-1.6493,-1.7068,-1.7637,-1.8192,0.0,-1.8898,-1.8992,-1.9009,-1.8977,0.0,0.0,0.0,0.0,0.0,0.0,0.0,-1.3481,0.0,0.0,0.0,-1.2167,-1.1804,-1.1308,-1.0592,-0.9817,-0.9319,-0.911,-0.9309,-0.9673,-1.0142,-1.0918,-1.1322,-1.1523,-1.1427,-1.1423,-1.1372,-1.1322,-1.1322,-1.1322,-1.1322,-1.1322,-1.1322,-1.1322,-1.1322,-1.1322,-1.1322,-1.0651,-1.0083,-1.0285,-0.9614,-0.8778,-0.7969,-0.684,0.0,0.0,0.0,0.0,0.0,0.0,0.0,0.0,0.0,0.0,0.0,0.0,0.0,0.0,0.0,0.0,0.0,0.0,0.0,0.0,0.0,0.0,0.0,0.0,0.0,0.6823,0.6823,0.7034,0.7416,0.7583,0.775,0.7916,0.8081,0.825,0.8418,0.8418,0.8537,0.8777,0.935,0.9619,0.9697,1.0356,1.0166,0.973,0.0,-2.4964,0.0,0.0,-2.3441,0.0,-2.1416,-1.9703,-1.83,-1.7664,-1.737,-1.6884,-1.6107,-1.6447,-1.6419,-1.5823,-1.6258,-1.6605,-1.6638,-1.6893,-1.729,-1.7878,-1.7911,-1.8055,-1.8362,-1.861,-1.8674,0.0,0.0,0.0,0.0,0.0,0.0,0.0,0.0,0.0,0.0,0.0,-1.2675,-1.2095,-1.181,-1.1162,-1.0344,-0.9581,-0.9109,-0.8857,-0.926,-0.9409,-0.9566,-1.0446,-1.1065,-1.1477,-1.1372,-1.1377,-1.1423,-1.1322,-1.1322,-1.1322,-1.1322,-1.1322,-1.1322,-1.1322,-1.1322,-1.1322,-1.1322,-1.0812,-1.0399,-1.0506,-0.9932,-0.9145,-0.8389,-0.7371,0.0,0.0,0.0,0.0,0.0,0.0,0.0,0.0,0.0,0.0,0.2065,0.0,0.0,0.0,0.0,0.0,0.0,0.0,0.0,0.0,0.0,0.6726,0.6069,0.0,0.6692,0.0,0.6483,0.6741,0.7206,0.7251,0.7458,0.7791,0.7874,0.8081,0.8418,0.8418,0.8578,0.8935,0.943,0.9619,0.9663,1.0235,0.9932,0.9372,0.0,0.0,0.0,0.0,0.0,0.0,-2.0648,-1.9058,-1.7875,-1.7637,-1.695,-1.6388,-1.6109,-1.6445,-1.6663,-1.6609,-1.6909,-1.7203,-1.7402,-1.683,-1.6715,-1.7258,-1.7277,-1.7075,-1.6637,-1.7643,-1.7813,0.0,0.0,0.0,0.0,0.0,0.0,0.0,0.0,0.0,0.0,-1.3131,-1.2944,-1.2145,-1.2342,-1.1585,-1.0316,-0.9799,-0.9232,-0.8808,-0.8857,-0.9159,-0.9666,-1.0119,-1.049,-1.0769,-1.0769,-1.1023,-1.1322,-1.1322,-1.1322,-1.1322,-1.1322,-1.1322,-1.1322,-1.1322,-1.1322,-1.1322,-1.1322,-1.0812,-1.0506,-1.0765,-1.0091,-0.9249,-0.88,-0.8448,-0.7548,0.0,0.0,0.0,0.0,0.0,0.0,0.0,0.0,0.0,0.0,0.1341,0.0,0.0,0.0,0.0,0.0,0.0,0.0,0.5925,0.0,0.6691,0.6547,0.667,0.6603,0.6413,0.6413,0.6456,0.6499,0.679,0.7125,0.7458,0.775,0.8081,0.8418,0.8418,0.8418,0.8537,0.931,0.9619,0.9697,1.0559,1.0564,1.0123,0.0,0.0,0.0,0.0,0.0,0.0,0.0,-1.981,-1.8797,-1.8382,-1.7627,-1.6985,-1.6637,-1.7065,-1.731,-1.7015,-1.7103,-1.724,-1.7317,-1.7031,-1.6977,-1.7192,-1.7199,-1.7271,-1.7414,-1.7512,-1.7651,0.0,0.0,0.0,0.0,0.0,0.0,0.0,0.0,-1.4165,-1.254,-1.2633,-1.2425,-1.2054,-1.1468,-1.0874,-1.0316,-0.9465,-0.9012,-0.8804,-0.8692,-0.884,-0.8988,-0.9089,-0.9714,-1.0438,-1.0604,-1.0757,-1.0858,-1.0761,-1.1019,-1.1275,-1.1006,-1.1105,-1.1169,-1.0571,-1.0468,-1.0573,-1.0733,-1.0335,-1.0092,-1.0771,-1.0304,-0.9729,-0.9558,-0.861,-0.7711,0.0,0.0,0.0,0.0,0.0,0.0,0.0,0.0,0.0,0.0,0.0,0.0,0.0,0.0,0.0,0.0,0.0,0.0,0.63,0.0,0.649,0.6891,0.6786,0.66,0.6413,0.6413,0.6413,0.6413,0.6538,0.6872,0.7416,0.775,0.8081,0.8418,0.8418,0.8418,0.8455,0.9007,0.9244,0.9284,0.9651,0.9651,0.9452,-2.5528,0.0,-2.5023,0.0,-2.3095,-2.2334,-2.1369,-2.0466,-1.9702,-1.9236,-1.8524,-1.7881,-1.734,-1.7657,-1.7754,-1.7413,-1.7282,-1.724,-1.7275,-1.724,-1.7199,-1.7199,-1.7199,0.0,-1.7584,-1.7336,-1.7349,-1.7618,-1.7584,0.0,0.0,0.0,0.0,0.0,-1.536,-1.4241,-1.2776,-1.2415,-1.2231,-1.2031,-1.1005,-1.051,-1.0265,-0.9211,-0.8808,-0.8804,-0.8689,-0.8629,-0.8626,-0.8633,-0.9093,-0.9658,-1.0032,-1.019,-1.0293,-1.0186,-1.0426,-1.0594,-1.0291,-1.0478,-1.0571,-0.9774,-0.9682,-0.9879,-1.0201,-0.9926,-0.9775,-1.0489,-1.0249,-0.9888,-0.9888,-0.8827,-0.7981,-0.8093,0.0,0.0,0.0,0.0,0.0,0.0,-0.2731,-0.1509,-0.0837,-0.0336,0.0,0.0,0.0,0.0,0.0,0.0,0.0,0.0,0.0,0.0,0.0,0.6684,0.6507,0.6413,0.6413,0.6413,0.6413,0.6499,0.6875,0.7416,0.775,0.8081,0.8418,0.8418,0.8459,0.8618,0.8899,0.9052,0.9168,0.9168,0.9168,0.9128,-2.5105,-2.5394,-2.491,-2.2123,-2.2169,-2.2191,-2.1004,-2.0638,-2.0361,-2.0033,-1.9522,-1.8945,-1.8261,-1.7996,-1.7882,-1.7882,-1.7454,-1.7275,-1.7475,-1.7317,-1.7199,0.0,0.0,-1.695,-1.6428,-1.6931,-1.665,-1.5532,0.0,0.0,-1.7715,0.0,-1.766,-1.6255,-1.5131,-1.4014,-1.2997,-1.2786,-1.2485,-1.2058,-1.1291,-1.0736,-1.0265,-0.9211,-0.8808,-0.8808,-0.8808,-0.8692,-0.8679,-0.9054,-0.8745,-0.8325,-0.885,-0.9316,-0.9614,-0.9614,-0.9441,-0.9188,-0.9071,-0.928,-0.9422,-0.9086,-0.9163,-0.9435,-0.9907,-0.9739,-0.9593,-0.9931,-0.9781,-0.9614,-0.9614,-0.926,-0.8682,-0.7652,0.0,0.0,0.0,0.0,0.0,0.0,-0.3118,-0.19,-0.2625,0.0,0.0,0.0,0.0,0.0,0.0,0.0,0.0,0.4812,0.5433,0.0,0.6216,0.6287,0.6318,0.6413,0.6413,0.6413,0.6416,0.6748,0.7083,0.7416,0.775,0.8081,0.8418,0.8418,0.8614,0.8975,0.898,0.9244,0.9579,0.9579,0.9579,0.9544,-2.5454,-2.527,-2.4709,-2.3148,-2.3008,-2.2603,-2.1279,-2.0812,-2.0506,-2.0189,-1.9493,-1.9033,-1.8891,-1.8411,-1.8043,0.0,-1.7754,-1.7618,0.0,-1.7434,-1.7358,-1.7199,-1.7199,-1.712,-1.695,-1.6748,-1.6656,-1.6656,0.0,0.0,0.0,-1.7763,-1.7117,-1.5997,-1.4942,-1.3867,-1.2827,-1.2445,-1.2241,-1.2031,-1.1013,-1.0518,-1.0265,-0.9211,-0.8808,-0.8804,-0.8689,-0.8629,-0.8626,-0.8629,-0.853,-0.8374,-0.8431,-0.8738,-0.9037,-0.8939,-0.8973,-0.8974,-0.861,-0.8678,-0.8645,-0.7847,-0.7868,-0.8196,-0.8495,-0.9001,-0.9398,-0.935,-0.9103,-0.883,-0.8508,-0.7975,-0.7447,-0.712,-0.6853,0.0,0.0,0.0,0.0,0.0,-0.3439,-0.2266,0.0,-0.1105,0.0,0.0,0.0,0.0,0.0,0.0,0.0,0.0,0.5373,0.0,0.653,0.6388,0.6318,0.6413,0.6413,0.6413,0.6413,0.6499,0.6872,0.7416,0.7496,0.7874,0.8418,0.8418,0.8455,0.8618,0.8899,0.9244,0.9579,0.9284,0.9355,0.9505,-2.5248,-2.4936,-2.4422,-2.3374,-2.3113,-2.2714,-2.1658,-2.1291,-2.0999,-2.0656,-2.0015,-1.9603,-1.9645,-1.9109,0.0,-1.8043,-1.7922,-1.7835,-1.7652,-1.7652,-1.757,-1.7454,-1.7365,-1.7317,-1.7317,0.0,0.0,-1.6898,-1.6844,-1.6941,-1.7237,-1.7255,-1.6769,-1.5836,-1.4642,-1.3723,-1.3069,-1.2358,-1.2076,-1.2022,-1.1099,-1.0576,-1.0316,-0.9409,-0.8956,-0.8804,-0.8692,-0.8629,-0.8573,-0.8421,-0.8374,-0.8321,-0.8115,-0.8265,-0.8415,-0.8309,-0.8232,-0.812,-0.7749,-0.7812,-0.7779,-0.7012,-0.7134,-0.7494,-0.7656,-0.844,-0.8995,-0.8682,-0.8359,-0.8087,-0.7815,-0.7281,-0.6907,-0.6907,-0.6529,-0.6263,-0.6482,0.0,0.0,0.0,0.0,0.0,0.0,-0.1657,-0.0896,0.0,0.0,0.0,0.0,0.0,0.0,0.5024,0.4943,0.0,0.62,0.6051,0.6088,0.6413,0.6413,0.6413,0.6413,0.6413,0.6705,0.7206,0.7332,0.7708,0.8209,0.8332,0.85,0.8659,0.8814,0.9083,0.9355,0.9007,0.9003,0.9075,-2.4572,-2.4453,0.0,0.0,-2.2729,0.0,-2.2113,-2.189,-2.1661,-2.134,-2.0869,-2.0522,-2.041,-1.996,-1.9317,-1.8347,0.0,0.0,0.0,-1.7922,-1.7922,-1.7922,-1.7693,-1.7516,-1.7516,-1.7317,-1.695,-1.6447,-1.695,-1.6827,-1.6181,-1.6692,-1.6576,-1.5829,-1.4302,-1.3615,-1.352,-1.251,-1.2076,-1.2071,-1.1528,-1.0897,-1.0316,-0.9762,-0.926,-0.8755,-0.8755,-0.8692,-0.8577,-0.8421,-0.8321,-0.8165,-0.8008,-0.7901,-0.7898,-0.7726,-0.7269,-0.679,-0.665,-0.6786,-0.6893,-0.6581,-0.6868,-0.7227,-0.7413,-0.8022,-0.8412,-0.7928,-0.7602,-0.7439,-0.7385,-0.7069,-0.6799,-0.6799,-0.6423,-0.6154,-0.6154,0.0,0.0,0.0,0.0,0.0,0.0,-0.2792,-0.1903,0.0,0.0,0.0,0.0,0.0,0.3814,0.3974,0.4296,0.4797,0.5356,0.5401,0.5718,0.6413,0.6413,0.6413,0.6413,0.6413,0.6581,0.6914,0.7248,0.7621,0.7957,0.8291,0.8659,0.8975,0.8846,0.8886,0.9016,0.8801,0.8643,0.8455,0.0,0.0,-2.371,-2.3376,-2.2968,-2.2606,-2.2358,-2.189,-2.1507,-2.1309,-2.0624,-2.0143,-2.0162,-1.9754,-1.9317,-1.8997,-1.8623,-1.8507,-1.864,-1.8333,-1.8069,-1.7969,-1.8016,-1.7862,-1.7516,-1.7434,-1.7299,-1.7009,-1.714,-1.7025,-1.6726,-1.6501,-1.6233,-1.5848,-1.419,-1.3515,-1.352,-1.2412,-1.2026,-1.2026,-1.1423,-1.0799,-1.0163,-0.9562,-0.8949,-0.848,-0.848,-0.8477,-0.8421,-0.8421,-0.8371,-0.8321,-0.8165,-0.8008,-0.7898,-0.7726,-0.7402,-0.7064,-0.6954,-0.6725,-0.6541,-0.6448,-0.687,-0.7422,-0.7576,-0.7835,-0.7928,-0.7501,-0.7012,-0.6581,-0.6273,-0.5896,-0.5675,-0.5675,-0.5567,-0.5622,-0.5843,-0.5443,0.0,0.0,-0.4076,-0.3545,-0.296,-0.2259,-0.1622,0.0,0.0,0.0,0.0,0.2439,0.3203,0.3688,0.4239,0.4636,0.4853,0.5202,0.5718,0.6413,0.6413,0.6413,0.6413,0.6413,0.6581,0.6914,0.7402,0.781,0.8185,0.8647,0.8899,0.9016,0.927,0.9425,0.943,0.9239,0.9235,0.9235,-2.4275,-2.4069,-2.386,-2.3662,-2.3405,-2.3065,-2.2652,-2.2252,-2.1911,-2.1645,-2.1165,-2.0781,-2.0671,-2.0353,-2.0035,-1.9788,-1.9266,-1.8974,-1.8997,-1.8777,-1.8592,-1.8507,-1.8482,-1.8254,-1.7814,-1.7686,-1.7434,-1.708,-1.708,-1.6888,-1.6459,-1.6191,-1.5897,-1.5562,-1.4283,-1.3605,-1.3467,-1.251,-1.2026,-1.1873,-1.1578,-1.1108,-1.049,-1.0237,-0.9569,-0.8791,-0.884,-0.8685,-0.8368,-0.8321,-0.8325,-0.8271,-0.8112,-0.8008,-0.7898,-0.7726,-0.7448,-0.7155,-0.7042,-0.6845,-0.6676,-0.6734,-0.7112,-0.7504,-0.7427,-0.745,-0.7337,-0.691,-0.6317,-0.5834,-0.5629,-0.5411,-0.5299,-0.5299,-0.5299,-0.5354,-0.5519,-0.5377,0.0,-0.4558,-0.4125,-0.3641,-0.3049,-0.2269,-0.1566,-0.095,0.0,0.0,0.1233,0.1934,0.2675,0.3465,0.4128,0.4582,0.4705,0.5254,0.5829,0.6413,0.6413,0.6413,0.6413,0.6413,0.6617,0.707,0.752,0.7931,0.839,0.8809,0.902,0.9016,0.9355,0.9394,0.9315,0.9319,0.9319,0.9279,-2.4542,-2.4431,-2.4284,-2.4002,-2.3914,-2.3672,-2.3073,-2.2813,-2.2513,-2.2099,-2.1911,-2.167,-2.134,-2.115,-2.0878,-2.0436,-1.9889,-1.9472,-1.925,-1.9184,-1.914,-1.9139,-1.8898,-1.8599,-1.8228,-1.7929,-1.7475,-1.696,-1.696,-1.665,-1.6032,-1.5913,-1.5653,-1.5165,-1.4351,-1.3742,-1.3367,-1.2559,-1.2076,-1.1773,-1.1828,-1.1418,-1.0871,-1.0964,-1.0241,-0.9106,-0.9099,-0.8732,-0.8265,-0.8112,-0.8112,-0.8058,-0.7901,-0.7848,-0.7791,-0.7729,-0.7474,-0.7209,-0.7098,-0.7046,-0.7039,-0.709,-0.7405,-0.7616,-0.719,-0.7023,-0.6745,-0.6315,-0.5727,-0.5299,-0.5299,-0.5299,-0.5291,-0.5263,-0.5279,-0.5287,-0.5261,0.0,-0.5075,-0.4577,-0.4189,-0.3744,-0.3132,-0.2293,-0.151,-0.0838,-0.028,0.028,0.0841,0.1456,0.2238,0.3244,0.3964,0.4529,0.4804,0.5395,0.5922,0.6413,0.6413,0.6413,0.641,0.6492,0.6781,0.7269,0.7679,0.8136,0.8557,0.8931,0.9101,0.9141,0.9288,0.9252,0.9141,0.9244,0.9212,0.9101,-2.4936,-2.4804,-2.4719,-2.4647,-2.4413,-2.4133,-2.3857,-2.3359,-2.2847,-2.2318,-2.1994,-2.1661,-2.1339,-2.1268,-2.1039,-2.0514,-2.0455,-2.0273,-1.9884,-1.9288,-1.9058,-1.9332,-1.8846,-1.8468,-1.8279,-1.7801,-1.7441,-1.7157,-1.7157,-1.685,-1.6232,-1.6232,-1.5694,-1.4755,-1.4102,-1.3684,-1.3319,-1.2358,-1.2076,-1.218,-1.1723,-1.1167,-1.0604,-0.9932,-0.9253,-0.8626,-0.7993,-0.7732,-0.7628,-0.7628,-0.7628,-0.7628,-0.7574,-0.7571,-0.7571,-0.7518,-0.7492,-0.7413,-0.7309,-0.7197,-0.7093,-0.7077,-0.7405,-0.7616,-0.719,-0.7023,-0.6745,-0.6315,-0.5727,-0.5299,-0.5299,-0.5299,-0.5249,-0.5149,-0.5141,-0.513,-0.5145,0.0,-0.4679,-0.3849,-0.3795,-0.3238,-0.1788,-0.1733,-0.1343,-0.0224,-0.0056,0.028,0.0841,0.1456,0.2124,0.2793,0.3403,0.4257,0.5305,0.5578,0.5922,0.6413,0.6413,0.645,0.6483,0.6898,0.7192,0.7412,0.8256,0.8659,0.8788,0.9346,0.9599,0.9594,0.9634,0.9639,0.9554,0.9368,0.9417,0.9515,-2.5186,-2.5079,-2.4989,-2.4925,-2.4786,-2.4571,-2.4251,-2.3988,-2.3652,-2.323,-2.2272,-2.1519,-2.1166,-2.0365,-1.968,-1.9244,-1.9756,-1.9919,-1.9442,-1.9406,-1.9442,-1.9566,-1.9087,-1.8507,-1.7875,-1.7256,-1.685,-1.6656,-1.6656,-1.6528,-1.6256,-1.575,-1.5344,-1.4983,-1.4107,-1.35,-1.3165,-1.2559,-1.2126,-1.1728,-1.1573,-1.1217,-1.0765,-1.0498,-1.0083,-0.9514,-0.9082,-0.8718,-0.8365,-0.7999,-0.7895,-0.7842,-0.7574,-0.7521,-0.7467,-0.7416,-0.7416,-0.7365,-0.7314,-0.7201,-0.7085,-0.7085,-0.7244,-0.7295,-0.6974,-0.6699,-0.6426,-0.6055,-0.5624,-0.5299,-0.5299,-0.5299,-0.5271,-0.5131,-0.5076,0.0,0.0,-0.4961,-0.451,-0.3566,-0.3514,-0.2956,-0.1453,-0.1119,-0.0728,0.0056,0.0336,0.0617,0.101,0.1431,0.1959,0.2557,0.3361,0.4167,0.4909,0.5207,0.5572,0.601,0.6279,0.6575,0.6894,0.7098,0.7554,0.8177,0.8618,0.899,0.9293,0.9594,0.9683,0.9683,0.9683,0.9683,0.9678,0.9545,0.959,0.9678,-2.5377,-2.5315,-2.5255,-2.5155,-2.5139,-2.5013,-2.4661,-2.4542,-2.4384,-2.4076,-2.289,-2.1956,-2.1696,-2.0257,-1.9115,-1.8745,-1.9126,-1.917,-1.8688,-1.9088,-1.9442,-1.9726,-1.9243,-1.8507,-1.7516,-1.6899,-1.6485,-1.6281,-1.6281,-1.6237,-1.6194,-1.5406,-1.504,-1.4994,-1.3978,-1.3319,-1.2929,-1.2715,-1.2126,-1.1423,-1.1423,-1.1171,-1.082,-1.0863,-1.0549,-1.0138,-0.9862,-0.9399,-0.8788,-0.8265,-0.8002,-0.7788,-0.7574,-0.741,-0.7303,-0.7365,-0.7257,-0.7149,-0.7257,-0.7198,-0.7085,-0.7085,-0.7028,-0.6977,-0.6758,-0.6376,-0.6055,-0.5848,-0.5519,-0.5299,-0.5299,-0.5297,-0.5214,-0.5021,0.0,0.0,0.0,-0.4602,-0.4188,-0.3266,-0.3104,-0.2569,-0.1215,-0.0659,-0.0165,0.0277,0.0715,0.1041,0.1259,0.1545,0.1986,0.2646,0.3625,0.4251,0.4544,0.4981,0.5354,0.5741,0.6233,0.6741,0.7266,0.7391,0.7964,0.8869,0.895,0.9288,0.9683,0.9683,0.9683,0.9683,0.9683,0.9683,0.9683,0.9683,0.9683,0.9683,-2.5499,-2.5527,-2.557,-2.5558,-2.5563,-2.5479,-2.5269,-2.4967,-2.4687,-2.4479,-2.4024,-2.3712,-2.3695,-2.2242,-2.1104,-2.0641,-1.9328,-1.8307,-1.79,-1.79,-1.8496,-1.9726,-1.9042,-1.8266,-1.7516,-1.708,-1.6742,-1.6479,-1.6479,-1.6399,-1.62,-1.5623,-1.4983,-1.4269,-1.3652,-1.3137,-1.2725,-1.2426,-1.2076,-1.1628,-1.1423,-1.1023,-1.0466,-0.9781,-0.9514,-0.9413,-0.8735,-0.8206,-0.7777,-0.7777,-0.7348,-0.6866,-0.7357,-0.7139,-0.6866,-0.7357,-0.7141,-0.6812,-0.7031,-0.7085,-0.7085,-0.7085,-0.692,-0.6701,-0.6704,-0.6223,-0.585,-0.5795,-0.5519,-0.5299,-0.5299,-0.5185,-0.5023,-0.4708,0.0,0.0,-0.4275,-0.3768,-0.3241,-0.2732,-0.2381,-0.1748,-0.0586,-0.0363,-0.0052,0.0533,0.0933,0.1372,0.1826,0.1871,0.2286,0.3213,0.4053,0.4556,0.4675,0.538,0.5747,0.579,0.6404,0.6956,0.7478,0.7931,0.8431,0.9016,0.943,0.9678,0.9683,0.9683,0.9683,0.9683,0.9683,0.9683,0.9683,0.9683,0.9683,0.9683,-2.5634,-2.5615,-2.5602,-2.5604,-2.5601,-2.5574,-2.5498,-2.5377,-2.5271,-2.5193,-2.4184,-2.3474,-2.3474,-2.1988,-2.0929,-2.0741,-2.0722,-2.0111,-1.8761,-1.9202,-1.9125,-1.8179,-1.7726,-1.7229,-1.6693,-1.6082,-1.573,-1.5635,-1.5305,-1.5164,-1.5266,-1.4571,-1.3998,-1.3506,-1.3127,-1.2662,-1.2224,-1.2377,-1.2126,-1.1673,-1.1167,-1.0698,-1.0285,-0.9821,-0.9714,-0.9766,-0.9469,-0.9201,-0.8925,-0.8511,-0.8143,-0.7877,-0.7774,-0.761,-0.7396,-0.7297,-0.6864,-0.6428,-0.6537,-0.6534,-0.6534,-0.6534,-0.648,-0.634,-0.6,-0.5864,-0.5706,-0.5424,-0.5239,-0.513,-0.5073,-0.4881,-0.4611,-0.4031,0.0,-0.3703,-0.3255,-0.2987,-0.2662,-0.211,-0.1909,-0.1366,-0.0154,0.0,0.0304,0.1029,0.1422,0.1762,0.2012,0.2508,0.3097,0.3755,0.4019,0.4286,0.4636,0.522,0.5653,0.5913,0.6735,0.7409,0.7934,0.8378,0.8878,0.9435,0.9639,0.9683,0.9683,0.9683,0.9683,0.9683,0.9683,0.9683,0.9683,0.9683,0.9683,0.9683,-2.5671,-2.5629,-2.5599,-2.5601,-2.5624,-2.5633,-2.5633,-2.561,-2.5595,-2.5603,-2.4642,-2.3949,-2.3943,-2.2465,-2.1456,-2.1471,-2.1591,-2.1098,-1.9755,-2.0229,-1.9596,-1.7424,-1.7072,-1.6721,-1.638,-1.5774,-1.5334,-1.5108,-1.5296,-1.5126,-1.4555,-1.452,-1.4,-1.3168,-1.2847,-1.2377,-1.1877,-1.2175,-1.1977,-1.1423,-1.1061,-1.0541,-1.0064,-0.9862,-0.9714,-0.9614,-0.9632,-0.9521,-0.935,-0.883,-0.8517,-0.8306,-0.809,-0.7931,-0.7613,-0.692,-0.6381,-0.6052,-0.5941,-0.6048,-0.6209,-0.6209,-0.6157,-0.6,-0.559,-0.5549,-0.5486,-0.5083,-0.4997,-0.4892,-0.4839,-0.4489,-0.4098,-0.3507,-0.3254,-0.2996,-0.2524,-0.2325,-0.2036,-0.1505,-0.1311,-0.083,0.0148,0.0343,0.0636,0.1188,0.1712,0.2135,0.2569,0.3212,0.3767,0.4154,0.4058,0.4314,0.492,0.5224,0.561,0.6084,0.7024,0.7735,0.8263,0.8667,0.9168,0.9683,0.9683,0.9683,0.9683,0.9683,0.9683,0.9683,0.9683,0.9683,0.9683,0.9683,0.9683,0.9683,-2.5603,-2.56,-2.5595,-2.5595,-2.5661,-2.57,-2.57,-2.5638,-2.5603,-2.5599,-2.5601,-2.5599,-2.56,-2.4118,-2.3158,-2.3214,-2.1694,-2.074,-2.0721,-2.058,-1.9711,-1.7915,-1.7369,-1.7033,-1.6831,-1.6429,-1.5882,-1.5152,-1.6983,-1.6688,-1.435,-1.5775,-1.5346,-1.3421,-1.2967,-1.2384,-1.1733,-1.185,-1.1556,-1.0952,-1.1065,-1.0545,-0.9814,-0.9814,-0.9361,-0.8808,-0.8808,-0.8692,-0.8573,-0.8421,-0.8099,-0.778,-0.8262,-0.7999,-0.7303,-0.6173,-0.5795,-0.574,-0.5409,-0.5727,-0.6209,-0.6206,-0.6003,-0.5742,-0.5538,-0.5288,-0.5027,-0.484,-0.4707,-0.4616,-0.4565,-0.4009,-0.3466,-0.3295,-0.2802,-0.2342,-0.2111,-0.17,-0.1254,-0.094,-0.0494,-0.0046,0.0284,0.0688,0.0911,0.0901,0.1647,0.2542,0.3563,0.4052,0.4318,0.4318,0.4318,0.4748,0.5696,0.5575,0.575,0.6224,0.7224,0.7934,0.8316,0.8773,0.9266,0.9683,0.9683,0.9683,0.9683,0.9683,0.9683,0.9683,0.9683,0.9683,0.9683,0.9683,0.9683,0.9683,-2.56,-2.56,-2.5595,-2.56,-2.5615,-2.5631,-2.5631,-2.5615,-2.5616,-2.5661,-2.5629,-2.5599,-2.5601,-2.5144,-2.4858,-2.4879,-2.4345,-2.3501,-2.2318,-2.1234,-2.0407,-1.9858,-1.9532,-1.9318,-1.9255,-1.8756,-1.8291,-1.785,-1.8067,-1.7785,-1.7044,-1.7409,-1.7156,-1.6336,-1.6499,-1.6248,-1.5601,-1.4229,-1.3528,-1.3196,-1.1132,-0.9965,-0.934,-0.9187,-0.8784,-0.8381,-0.8583,-0.8629,-0.8573,-0.8573,-0.8365,-0.8206,-0.8471,-0.8153,-0.7616,-0.7343,-0.7025,-0.6707,-0.6598,-0.6374,-0.61,-0.5675,-0.5837,-0.5907,-0.5157,-0.5038,-0.489,-0.4197,-0.3999,-0.3807,-0.3277,-0.2924,-0.2492,-0.2054,-0.1823,-0.1498,-0.0853,-0.0628,-0.0404,-0.0045,0.0134,0.036,0.0683,0.0811,0.1124,0.1683,0.2604,0.3429,0.4051,0.4228,0.4318,0.4318,0.462,0.5094,0.5696,0.5655,0.5999,0.6771,0.769,0.8189,0.832,0.9145,0.9559,0.9683,0.9683,0.9683,0.9683,0.9683,0.9683,0.9683,0.9683,0.9683,0.9683,0.9683,0.9683,0.9683,-2.56,-2.56,-2.5605,-2.5597,-2.5604,-2.56,-2.56,-2.5605,-2.5604,-2.5666,-2.563,-2.558,-2.5526,-2.5547,-2.5551,-2.5522,-2.5498,-2.4999,-2.3882,-2.3003,-2.2503,-2.2441,-2.2284,-2.1629,-2.0403,-2.0058,-1.9666,-1.9198,-1.9678,-1.9392,-1.837,-1.9135,-1.8915,-1.7923,-1.8229,-1.8035,-1.7396,-1.6246,-1.5079,-1.3853,-1.2246,-1.0568,-0.9026,-0.8977,-0.8514,-0.7949,-0.8103,-0.8259,-0.8421,-0.8368,-0.8368,-0.8371,-0.8209,-0.794,-0.7563,-0.7447,-0.7179,-0.6864,-0.6645,-0.6482,-0.6157,-0.5344,-0.5452,-0.5567,-0.4835,-0.459,-0.4366,-0.367,-0.3333,-0.3009,-0.2547,-0.2181,-0.1834,-0.1477,-0.1255,-0.0942,-0.0449,-0.0405,-0.018,0.0358,0.0403,0.0582,0.1074,0.1119,0.1475,0.2366,0.3164,0.3785,0.4272,0.4318,0.4405,0.4576,0.4833,0.5308,0.595,0.6115,0.6579,0.7269,0.7979,0.8402,0.8606,0.935,0.9683,0.9683,0.9713,0.9753,0.9753,0.9753,0.9753,0.9753,0.9753,0.9753,0.9753,0.9793,0.9832,0.9793,-2.5601,-2.5601,-2.5601,-2.5601,-2.5601,-2.5601,-2.5601,-2.5601,-2.5601,-2.5601,-2.5601,-2.555,-2.5431,-2.5461,-2.5473,-2.5408,-2.5512,-2.5473,-2.5226,-2.5283,-2.5245,-2.5128,-2.5118,-2.3803,-2.097,-2.09,-2.0578,-1.9932,-2.1696,-2.1372,-1.9131,-2.095,-2.0758,-1.8909,-1.9037,-1.8758,-1.8158,-1.8107,-1.6504,-1.4048,-1.4248,-1.223,-0.9158,-0.9351,-0.8612,-0.7518,-0.7464,-0.7735,-0.8115,-0.7901,-0.8055,-0.8212,-0.7678,-0.7518,-0.7408,-0.6915,-0.675,-0.664,-0.6152,-0.6369,-0.6418,-0.537,-0.5152,-0.5067,-0.4534,-0.4052,-0.3571,-0.3178,-0.2635,-0.2235,-0.2147,-0.1701,-0.1344,-0.1344,-0.0988,-0.0675,-0.0675,-0.0675,-0.0404,0.0358,0.0447,0.0716,0.1344,0.1478,0.1922,0.281,0.3385,0.3829,0.4272,0.4362,0.4578,0.5007,0.5094,0.5521,0.6374,0.6826,0.729,0.772,0.8148,0.8565,0.9016,0.9475,0.9723,0.9723,0.9788,0.9823,0.9823,0.9823,0.9823,0.9823,0.9823,0.9823,0.9823,0.998,1.0054,1.0059,-2.5601,-2.5601,-2.5601,-2.5601,-2.5601,-2.5601,-2.5601,-2.5599,-2.5599,-2.5601,-2.5599,-2.5583,-2.556,-2.5473,-2.5426,-2.5403,-2.5381,-2.5357,-2.5359,-2.5368,-2.534,-2.5253,-2.5312,-2.495,-2.4121,-2.3999,-2.375,-2.3343,-2.3651,-2.3506,-2.2909,-2.3193,-2.3161,-2.2866,-2.2894,-2.277,-2.2431,-2.0828,-1.9716,-1.8902,-1.7257,-1.4557,-1.1509,-1.1125,-0.9529,-0.7464,-0.6972,-0.719,-0.7628,-0.7628,-0.7628,-0.7676,-0.7673,-0.7732,-0.7791,-0.7839,-0.7943,-0.799,-0.788,-0.7566,-0.7146,-0.6582,-0.6119,-0.5535,-0.4605,-0.3967,-0.3358,-0.2663,-0.2102,-0.1613,-0.1122,-0.0943,-0.0853,-0.0853,-0.0764,-0.0629,-0.036,-0.0315,-0.0045,0.0716,0.0806,0.094,0.1344,0.2099,0.2677,0.2898,0.3695,0.4186,0.4274,0.4663,0.4877,0.5007,0.565,0.6283,0.6826,0.7294,0.7592,0.7724,0.8476,0.8895,0.9016,0.9475,0.9718,0.9783,0.9783,0.9862,0.9941,0.9941,0.9941,0.9941,0.9941,0.9941,1.0019,1.0356,1.0472,1.0505,-2.5601,-2.5601,-2.5601,-2.5601,-2.5601,-2.5601,-2.5601,-2.5605,-2.5599,-2.5601,-2.5605,-2.5577,-2.5514,-2.541,-2.5293,-2.5175,-2.5215,-2.5244,-2.5213,-2.5244,-2.5244,-2.5213,-2.5245,-2.5186,-2.5063,-2.5019,-2.4896,-2.469,-2.4625,-2.4503,-2.4391,-2.4345,-2.4293,-2.4238,-2.4219,-2.4172,-2.4053,-2.2871,-2.1611,-2.0332,-1.9392,-1.7056,-1.3956,-1.2507,-1.0979,-0.9338,-0.7625,-0.7136,-0.7354,-0.7464,-0.7518,-0.7568,-0.7458,-0.7678,-0.8008,-0.7898,-0.7895,-0.7889,-0.7613,-0.7264,-0.6783,-0.629,-0.5798,-0.5327,-0.4891,-0.4027,-0.3226,-0.2968,-0.1922,-0.1077,-0.0987,-0.0764,-0.0584,-0.0584,-0.0584,-0.0494,-0.0135,0.0,0.0314,0.103,0.1164,0.1433,0.188,0.2721,0.3252,0.3252,0.3919,0.4403,0.462,0.4879,0.5178,0.5604,0.6283,0.6871,0.7335,0.8009,0.8304,0.8308,0.8846,0.9177,0.9377,0.9709,0.9872,0.9902,1.0118,1.0269,1.0351,1.0534,1.0505,1.0351,1.0539,1.05,1.039,1.0878,1.0986,1.0986,-2.5603,-2.5597,-2.5601,-2.5595,-2.5601,-2.5601,-2.5601,-2.5601,-2.5601,-2.5601,-2.5601,-2.5567,-2.5451,-2.535,-2.5191,-2.4919,-2.5046,-2.5103,-2.4994,-2.503,-2.5053,-2.5046,-2.507,-2.5049,-2.4984,-2.5041,-2.5038,-2.5006,-2.5006,-2.4911,-2.4738,-2.4827,-2.4707,-2.4411,-2.4358,-2.4339,-2.4358,-2.4266,-2.2956,-2.0994,-2.1401,-1.9672,-1.6615,-1.4485,-1.32,-1.2207,-0.9691,-0.8681,-0.8545,-0.835,-0.8329,-0.8264,-0.7497,-0.7676,-0.8115,-0.7625,-0.7464,-0.7357,-0.6807,-0.6569,-0.6305,-0.5766,-0.5392,-0.5174,-0.5194,-0.4109,-0.3151,-0.3364,-0.1967,-0.0853,-0.121,-0.0897,-0.0539,-0.0405,-0.045,-0.036,0.0,0.0269,0.0626,0.1254,0.1612,0.1968,0.2503,0.321,0.3693,0.3779,0.418,0.462,0.5094,0.5178,0.5604,0.6416,0.6868,0.7373,0.7972,0.8639,0.906,0.9177,0.9332,0.9611,0.9897,1.0127,1.021,1.0239,1.0644,1.0835,1.0867,1.1201,1.1126,1.0867,1.1201,1.1132,1.0911,1.1399,1.1584,1.1579,-2.56,-2.56,-2.5595,-2.5602,-2.5599,-2.5601,-2.5601,-2.5601,-2.5601,-2.5601,-2.5601,-2.5585,-2.5564,-2.5403,-2.5191,-2.4919,-2.4919,-2.4932,-2.4906,-2.4919,-2.4892,-2.4842,-2.4955,-2.4981,-2.4907,-2.4923,-2.4952,-2.5006,-2.5006,-2.4961,-2.487,-2.4768,-2.4635,-2.4478,-2.4411,-2.4339,-2.4248,-2.4566,-2.442,-2.4011,-2.4201,-2.2515,-1.9791,-1.877,-1.7153,-1.5305,-1.4328,-1.4311,-1.4367,-1.2066,-1.132,-1.0925,-0.8544,-0.7993,-0.8058,-0.7509,-0.7405,-0.741,-0.7136,-0.7004,-0.6937,-0.6671,-0.6565,-0.6307,-0.5486,-0.42,-0.3092,-0.2726,-0.2104,-0.1524,-0.1209,-0.1075,-0.0896,-0.0449,-0.0405,-0.0225,0.0269,0.0358,0.0671,0.1479,0.2144,0.2586,0.2674,0.3378,0.4037,0.4424,0.4785,0.5185,0.5658,0.5953,0.6371,0.691,0.7377,0.805,0.8967,0.9016,0.9297,0.9858,1.0239,1.0385,1.0346,1.084,1.1062,1.1132,1.1201,1.1276,1.1399,1.1436,1.1436,1.1399,1.1436,1.1442,1.1436,1.1847,1.2222,1.252,-2.5594,-2.5593,-2.5595,-2.5599,-2.5595,-2.5595,-2.5599,-2.5599,-2.5599,-2.5599,-2.5599,-2.5593,-2.5547,-2.5359,-2.5134,-2.487,-2.4874,-2.4874,-2.4784,-2.4828,-2.4813,-2.4744,-2.4808,-2.4818,-2.4796,-2.479,-2.4799,-2.4828,-2.4942,-2.5003,-2.5015,-2.4953,-2.4823,-2.4664,-2.4571,-2.4545,-2.4591,-2.462,-2.4657,-2.4721,-2.4785,-2.4039,-2.2704,-2.084,-1.9513,-1.8393,-1.6595,-1.5878,-1.5617,-1.4508,-1.2915,-1.1132,-0.9734,-0.8626,-0.7664,-0.6807,-0.6918,-0.7192,-0.6699,-0.6503,-0.642,-0.6321,-0.6077,-0.5743,-0.5002,-0.4292,-0.3691,-0.3339,-0.2454,-0.1609,-0.1429,-0.094,-0.0494,-0.0225,0.0,0.0269,0.0716,0.1117,0.1653,0.2504,0.321,0.3605,0.3605,0.4436,0.5037,0.5259,0.5671,0.6074,0.6567,0.6753,0.7046,0.7474,0.8215,0.8793,0.9177,0.9646,1.0035,1.0356,1.1024,1.1057,1.0611,1.1137,1.1399,1.1436,1.1658,1.1805,1.1915,1.2108,1.2071,1.1915,1.2108,1.218,1.2252,1.2437,1.2621,1.2803]},{"header":{"parameterUnit":"m.s-1","parameterCategory":1,"la1":30.6,"la2":28.766,"lo1":-90.7593,"lo2":-88.6598,"dy":0.0162,"dx":0.0183,"nx":116,"ny":114,"refTime":"2023-07-23T06:00:00:Z","depth":0,"parameterNumber":3,"parameterNumberName":"V-component_of_WINDS"},"data":[0.0,0.0,0.0,0.0,0.0,0.0,0.0,0.0,0.0,0.0,0.0,0.0,0.0,0.0,0.0,0.0,0.0,0.0,0.0,0.0,0.0,0.0,0.0,0.0,0.0,0.0,0.0,0.0,0.0,0.0,0.0,0.0,0.0,0.0,0.0,0.0,0.0,0.0,0.0,0.0,0.0,0.0,0.0,0.0,0.0,0.0,0.0,0.0,0.0,0.0,0.0,0.0,0.0,0.0,0.0,0.0,0.0,0.0,0.0,0.0,0.0,0.0,0.0,0.0,0.0,0.0,0.0,0.0,0.0,0.0,0.0,0.0,0.0,0.0,0.0,0.0,0.0,0.0,0.0,0.0,0.0,0.0,0.0,0.0,0.0,0.0,0.0,0.0,0.0,0.0,0.0,0.0,0.0,0.0,0.0,0.0,0.0,0.0,0.0,0.0,0.0,0.0,0.0,0.0,0.0,0.0,0.0,0.0,0.0,0.0,0.0,0.0,0.0,0.0,0.0,0.0,0.0,0.0,0.0,0.0,0.0,0.0,0.0,0.0,0.0,0.0,0.0,0.0,0.0,0.0,0.0,0.0,0.0,0.0,0.0,0.0,0.0,0.0,0.0,0.0,0.0,0.0,0.0,0.0,0.0,0.0,0.0,0.0,0.0,0.0,0.0,0.0,0.0,0.0,0.0,0.0,0.0,0.0,0.0,0.0,0.0,0.0,0.0,0.0,0.0,0.0,0.0,0.0,0.0,0.0,0.0,0.0,0.0,0.0,0.0,0.0,0.0,0.0,0.0,0.0,0.0,0.0,0.0,0.0,0.0,0.0,0.0,0.0,0.0,0.0,0.0,0.0,0.0,0.0,0.0,0.0,0.0,0.0,0.0,0.0,0.0,0.0,0.0,0.0,0.0,0.0,0.0,0.0,0.0,0.0,0.0,0.0,0.0,0.0,0.0,0.0,0.0,0.0,0.0,0.0,0.0,0.0,0.0,0.0,0.0,0.0,0.0,0.0,0.0,0.0,0.0,0.0,0.0,0.0,0.0,0.0,0.0,0.0,0.0,0.0,0.0,0.0,0.0,0.0,0.0,0.0,0.0,0.0,0.0,0.0,0.0,0.0,0.0,0.0,0.0,0.0,0.0,0.0,0.0,0.0,0.0,0.0,0.0,0.0,0.0,0.0,0.0,0.0,0.0,0.0,0.0,0.0,0.0,0.0,0.0,0.0,0.0,0.0,0.0,0.0,0.0,0.0,0.0,0.0,0.0,0.0,0.0,0.0,0.0,0.0,0.0,0.0,0.0,0.0,0.0,0.0,0.0,0.0,0.0,0.0,0.0,0.0,0.0,0.0,0.0,0.0,0.0,0.0,0.0,0.0,0.0,0.0,0.0,0.0,0.0,0.0,0.0,0.0,0.0,0.0,0.0,0.0,0.0,0.0,0.0,0.0,0.0,0.0,0.0,0.0,0.0,0.0,0.0,0.0,0.0,0.0,0.0,0.0,0.0,0.0,0.0,0.0,0.0,0.0,0.0,0.0,0.0,0.0,0.0,0.0,0.0,0.0,0.0,0.0,0.0,0.0,0.0,0.0,0.0,0.0,0.0,0.0,0.0,0.0,0.0,0.0,0.0,0.0,0.0,0.0,0.0,0.0,0.0,0.0,0.0,0.0,0.0,0.0,0.0,0.0,0.0,0.0,0.0,0.0,0.0,0.0,0.0,0.0,0.0,0.0,0.0,0.0,0.0,0.0,0.0,0.0,0.0,0.0,0.0,0.0,0.0,0.0,0.0,0.0,0.0,0.0,0.0,0.0,0.0,0.0,0.0,0.0,0.0,0.0,0.0,0.0,0.0,0.0,0.0,0.0,0.0,0.0,0.0,0.0,0.0,0.0,0.0,0.0,0.0,0.0,0.0,0.0,0.0,0.0,0.0,0.0,0.0,0.0,0.0,0.0,0.0,0.0,0.0,0.0,0.0,0.0,0.0,0.0,0.0,0.0,0.0,0.0,0.0,0.0,0.0,0.0,0.0,0.0,0.0,0.0,0.0,0.0,0.0,0.0,0.0,0.0,0.0,0.0,0.0,0.0,0.0,0.0,0.0,0.0,0.0,0.0,0.0,0.0,0.0,0.0,0.0,0.0,0.0,0.0,0.0,0.0,0.0,0.0,0.0,0.0,0.0,0.0,0.0,0.0,0.0,0.0,0.0,0.0,0.0,0.0,0.0,0.0,0.0,0.0,0.0,0.0,0.0,0.0,0.0,0.0,0.0,0.0,0.0,0.0,0.0,0.0,0.0,0.0,0.0,0.0,0.0,0.0,0.0,0.0,0.0,0.0,0.0,0.0,0.0,0.0,0.0,0.0,0.0,0.0,0.0,0.0,0.0,0.0,0.0,0.0,0.0,0.0,0.0,0.0,0.0,0.0,0.0,0.0,0.0,0.0,0.0,0.0,0.0,0.0,0.0,0.0,0.0,0.0,0.0,0.0,0.0,0.0,0.0,0.0,0.0,0.0,0.0,0.0,0.0,0.0,0.0,0.0,0.0,0.0,0.0,0.0,0.0,0.0,0.0,0.0,0.0,0.0,0.0,0.0,0.0,0.0,0.0,0.0,0.0,0.0,0.0,0.0,0.0,0.0,0.0,0.0,0.0,0.0,0.0,0.0,0.0,0.0,0.0,0.0,0.0,0.0,0.0,0.0,0.0,0.0,0.0,0.0,0.0,0.0,0.0,0.0,0.0,0.0,0.0,0.0,0.0,0.0,0.0,0.0,0.0,0.0,0.0,0.0,0.0,0.0,0.0,0.0,0.0,0.0,0.0,0.0,0.0,0.0,0.0,0.0,0.0,0.0,0.0,0.0,0.0,0.0,0.0,0.0,0.0,0.0,0.0,0.0,0.0,0.0,0.0,0.0,0.0,0.0,0.0,0.0,0.0,0.0,0.0,0.0,0.0,0.0,0.0,0.0,0.0,0.0,0.0,0.0,0.0,0.0,0.0,0.0,0.0,0.0,0.0,0.0,0.0,0.0,0.0,0.0,0.0,0.0,0.0,0.0,0.0,0.0,0.0,0.0,0.0,0.0,0.0,0.0,0.0,0.0,0.0,0.0,0.0,0.0,0.0,0.0,0.0,0.0,0.0,0.0,0.0,0.0,0.0,0.0,0.0,0.0,0.0,0.0,0.0,0.0,0.0,0.0,0.0,0.0,0.0,0.0,0.0,0.0,0.0,0.0,0.0,0.0,0.0,0.0,0.0,0.0,0.0,0.0,0.0,0.0,0.0,0.0,0.0,0.0,0.0,0.0,0.0,0.0,0.0,0.0,0.0,0.0,0.0,0.0,0.0,0.0,0.0,0.0,0.0,0.0,0.0,0.0,0.0,0.0,0.0,0.0,0.0,0.0,0.0,0.0,0.0,0.0,0.0,0.0,0.0,0.0,0.0,0.0,0.0,0.0,0.0,0.0,0.0,0.0,0.0,0.0,0.0,0.0,0.0,0.0,0.0,0.0,0.0,0.0,0.0,0.0,0.0,0.0,0.0,0.0,0.0,0.0,0.0,0.0,0.0,0.0,0.0,0.0,0.0,0.0,0.0,0.0,0.0,0.0,0.0,0.0,0.0,0.0,0.0,0.0,0.0,0.0,0.0,0.0,0.0,0.0,0.0,0.0,0.0,0.0,0.0,0.0,0.0,0.0,0.0,0.0,0.0,0.0,0.0,0.0,0.0,0.0,0.0,0.0,0.0,0.0,0.0,0.0,0.0,0.0,0.0,0.0,0.0,0.0,0.0,0.0,0.0,0.0,0.0,0.0,0.0,0.0,0.0,0.0,0.0,0.0,0.0,0.0,0.0,0.0,0.0,0.0,0.0,0.0,0.0,0.0,0.0,0.0,0.0,0.0,0.0,0.0,0.0,0.0,0.0,0.0,0.0,0.0,0.0,0.0,0.0,0.0,0.0,0.0,0.0,0.0,0.0,0.0,0.0,0.0,0.0,0.0,0.0,0.0,0.0,0.0,0.0,0.0,0.0,0.0,0.0,0.0,0.0,0.0,0.0,0.0,0.0,0.0,0.0,0.0,0.0,0.0,0.0,0.0,0.0,0.0,0.0,0.0,0.0,0.0,0.0,0.0,0.0,0.0,0.0,0.0,0.0,0.0,0.0,0.0,0.0,0.0,0.0,0.0,0.0,0.0,0.0,0.0,0.0,0.0,0.0,0.0,0.0,0.0,0.0,0.0,0.0,0.0,0.0,0.0,0.0,0.0,0.0,0.0,0.0,0.0,0.0,0.0,0.0,0.0,0.0,0.0,0.0,0.0,0.0,0.0,0.0,0.0,0.0,0.0,0.0,0.0,0.0,0.0,0.0,0.0,0.0,0.0,0.0,0.0,0.0,0.0,0.0,0.0,0.0,0.0,0.0,0.0,0.0,0.0,0.0,0.0,0.0,0.0,0.0,0.0,0.0,0.0,0.0,0.0,0.0,0.0,0.0,0.0,0.0,0.0,0.0,0.0,0.0,0.0,0.0,0.0,0.0,0.0,0.0,0.0,0.0,0.0,0.0,0.0,0.0,0.0,0.0,0.0,0.0,0.0,0.0,0.0,0.0,0.0,0.0,0.0,0.0,0.0,0.0,0.0,0.0,0.0,0.0,0.0,0.0,0.0,0.0,0.0,0.0,0.0,0.0,0.0,0.0,0.0,0.0,0.0,0.0,0.0,0.0,0.0,0.0,0.0,0.0,0.0,0.0,0.0,0.0,0.0,0.0,0.0,0.0,0.0,0.0,0.0,0.0,0.0,0.0,0.0,0.0,0.0,0.0,0.0,0.0,0.0,0.0,0.0,0.0,0.0,0.0,0.0,0.0,0.0,0.0,0.0,0.0,0.0,0.0,0.0,0.0,0.0,0.0,0.0,0.0,0.0,0.0,0.0,0.0,0.0,0.0,0.0,0.0,0.0,0.0,0.0,0.0,0.0,0.0,0.0,0.0,0.0,0.0,0.0,0.0,0.0,0.0,0.0,0.0,0.0,0.0,0.0,0.0,0.0,0.0,0.0,0.0,0.0,0.0,0.0,0.0,0.0,0.0,0.0,0.0,0.0,0.0,0.0,0.0,0.0,0.0,0.0,0.0,0.0,0.0,0.0,0.0,0.0,0.0,0.0,0.0,0.0,0.0,0.0,0.0,0.0,0.0,0.0,0.0,0.0,0.0,0.0,0.0,0.0,0.0,0.0,0.0,0.0,0.0,0.0,0.0,0.0,0.0,0.0,0.0,0.0,0.0,0.0,0.0,0.0,0.0,0.0,0.0,0.0,0.0,0.0,0.0,0.0,0.0,0.0,0.0,0.0,0.0,0.0,0.0,0.0,0.0,0.0,0.0,0.0,0.0,0.0,0.0,0.0,0.0,0.0,0.0,0.0,0.0,0.0,0.0,0.0,0.0,0.0,0.0,0.0,0.0,0.0,0.0,0.0,0.0,0.0,0.0,0.0,0.0,0.0,0.0,0.0,0.0,0.0,0.0,0.0,0.0,0.0,0.0,0.0,0.0,0.0,0.0,0.0,0.0,0.0,0.0,0.0,0.0,0.0,0.0,0.0,0.0,0.0,0.0,0.0,0.0,0.0,0.0,0.0,0.0,0.0,0.0,0.0,0.0,0.0,0.0,0.0,0.0,0.0,0.0,0.0,0.0,0.0,0.0,0.0,0.0,0.0,0.0,0.0,0.0,0.0,0.0,0.0,0.0,0.0,0.0,0.0,0.0,0.0,0.0,0.0,0.0,0.0,0.0,0.0,0.0,0.0,0.0,0.0,0.0,0.0,0.0,0.0,0.0,0.0,0.0,0.0,0.0,0.0,0.0,0.0,0.0,0.0,0.0,0.0,0.0,0.0,0.0,0.0,0.0,0.0,0.0,0.0,0.0,0.0,0.0,0.0,0.0,0.0,0.0,0.0,0.0,0.0,0.0,0.0,0.0,0.0,0.0,0.0,0.0,0.0,0.0,0.0,0.0,0.0,0.0,0.0,0.0,0.0,0.0,0.0,0.0,0.0,0.0,0.0,0.0,0.0,0.0,0.0,0.0,0.0,0.0,0.0,0.0,0.0,0.0,0.0,0.0,0.0,0.0,0.0,-1.5969,0.0,0.0,0.0,0.0,0.0,0.0,0.0,0.0,0.0,0.0,0.0,0.0,0.0,0.0,0.0,0.0,0.0,0.0,0.0,0.0,0.0,0.0,0.0,0.0,0.0,0.0,0.0,0.0,0.0,0.0,0.0,0.0,0.0,0.0,0.0,0.0,0.0,0.0,0.0,0.0,0.0,0.0,0.0,0.0,0.0,0.0,0.0,0.0,0.0,0.0,0.0,0.0,0.0,0.0,0.0,0.0,0.0,0.0,0.0,0.0,0.0,0.0,0.0,0.0,0.0,0.0,0.0,0.0,0.0,0.0,0.0,0.0,0.0,0.0,0.0,0.0,0.0,0.0,0.0,0.0,0.0,0.0,0.0,0.0,0.0,0.0,0.0,0.0,0.0,0.0,0.0,0.0,0.0,0.0,0.0,0.0,0.0,0.0,0.0,0.0,0.0,0.0,0.0,0.0,0.0,0.0,0.0,0.0,0.0,0.0,0.0,0.0,0.0,0.0,0.0,0.0,-1.7042,0.0,0.0,0.0,0.0,0.0,0.0,0.0,0.0,0.0,0.0,0.0,0.0,0.0,0.0,0.0,0.0,0.0,0.0,0.0,0.0,0.0,0.0,0.0,0.0,0.0,0.0,0.0,0.0,0.0,0.0,0.0,0.0,0.0,0.0,0.0,0.0,0.0,0.0,0.0,0.0,0.0,0.0,0.0,0.0,0.0,0.0,0.0,0.0,0.0,0.0,0.0,0.0,0.0,0.0,0.0,0.0,0.0,0.0,0.0,0.0,0.0,0.0,0.0,0.0,0.0,0.0,0.0,0.0,0.0,0.0,0.0,0.0,0.0,0.0,0.0,0.0,0.0,0.0,0.0,0.0,0.0,0.0,0.0,0.0,0.0,0.0,0.0,0.0,0.0,0.0,0.0,0.0,0.0,0.0,0.0,0.0,0.0,0.0,0.0,0.0,0.0,0.0,0.0,0.0,0.0,0.0,0.0,0.0,-1.8195,-1.8719,-1.9478,-1.9389,-1.9557,-1.9829,-1.9208,-1.944,-2.0188,0.0,0.0,0.0,0.0,0.0,0.0,0.0,0.0,0.0,0.0,0.0,0.0,0.0,0.0,0.0,0.0,0.0,0.0,0.0,0.0,0.0,0.0,0.0,0.0,0.0,0.0,0.0,0.0,0.0,0.0,0.0,0.0,0.0,0.0,0.0,0.0,0.0,0.0,0.0,-0.4732,-0.5235,-0.5624,-0.5893,0.0,0.0,0.0,0.0,0.0,0.0,0.0,0.0,0.0,0.0,0.0,0.0,0.0,0.0,0.0,0.0,0.0,0.0,0.0,0.0,0.0,0.0,0.0,0.0,0.0,0.0,0.0,0.0,0.0,0.0,0.0,0.0,0.0,0.0,0.0,0.0,0.0,0.0,0.0,0.0,0.0,0.0,0.0,0.0,-1.0109,-1.0148,0.0,0.0,0.0,0.0,0.0,0.0,0.0,0.0,0.0,0.0,0.0,0.0,0.0,-1.5946,-1.5597,-1.7036,-1.7684,-1.749,-1.8673,-1.9725,-2.065,-2.0242,-2.0668,-2.1686,-2.1059,0.0,-2.0042,-1.9959,0.0,0.0,0.0,0.0,0.0,0.0,0.0,0.0,0.0,0.0,0.0,0.0,0.0,0.0,0.0,0.0,0.0,0.0,0.0,0.0,0.0,0.0,0.0,0.0,0.0,0.0,0.0,0.0,0.0,0.0,0.0,0.0,0.0,0.0,0.0,0.0,-0.3013,-0.3597,-0.3983,-0.4964,-0.5487,-0.5693,-0.7085,-0.8196,-0.9166,-1.0732,0.0,0.0,0.0,0.0,0.0,0.0,0.0,0.0,0.0,0.0,0.0,0.0,0.0,0.0,0.0,0.0,0.0,0.0,0.0,0.0,0.0,0.0,0.0,0.0,0.0,0.0,0.0,0.0,0.0,0.0,0.0,0.0,0.0,0.0,0.0,0.0,0.0,0.0,0.0,0.5409,0.3024,-0.0281,0.087,-0.0236,0.0,0.0,0.0,0.0,0.0,0.0,0.0,0.0,0.0,-1.6011,-1.6396,-1.6738,-1.6949,-1.793,-1.8616,-1.9062,-1.954,-2.0246,-2.1087,-2.0611,-2.072,-2.129,-2.0927,-2.0759,-2.0727,-2.0621,-2.0965,-2.1533,0.0,0.0,0.0,0.0,-2.1931,-2.1155,0.0,0.0,0.0,0.0,0.0,0.0,0.0,0.0,0.0,0.0,0.0,0.0,0.0,0.0,0.0,0.0,0.0,0.0,0.0,0.0,0.0,0.0,0.0,0.0,0.0,0.0,0.0,0.0,-0.2706,-0.3196,-0.3404,-0.4504,-0.5132,-0.5361,-0.7075,-0.8399,-0.9451,-1.1431,-1.2361,0.0,0.0,0.0,0.0,0.0,0.0,0.0,0.0,0.0,0.0,0.0,0.0,0.0,0.0,0.0,0.0,0.0,0.0,0.0,0.0,0.0,0.0,0.0,0.0,0.0,0.0,0.0,0.0,0.0,0.0,0.0,0.0,0.0,0.0,0.0,0.0,0.0,0.0,1.3878,1.2271,0.7118,0.8093,0.5857,0.0,0.0,0.0,0.0,0.0,0.0,-1.5358,-1.5966,-1.6586,-1.7263,-1.7502,-1.784,-1.8267,-1.8785,-1.9419,-2.0169,-2.0244,-2.0591,-2.1128,-2.0706,-2.0612,-2.0705,-2.0562,-2.0751,-2.1153,-2.1235,-2.1805,-2.2629,-2.2154,-2.209,-2.2396,-2.3303,-2.273,-2.1699,0.0,0.0,0.0,0.0,0.0,0.0,0.0,0.0,0.0,0.0,0.0,0.0,0.0,0.0,0.0,0.0,0.0,0.0,0.0,0.0,0.0,0.0,0.0,0.0,0.0,0.0,0.0,-0.1902,-0.2087,-0.2558,-0.3311,-0.4025,-0.4476,-0.4762,-0.7168,-0.8607,-0.9232,-1.0735,-1.2123,-1.3393,0.0,0.0,0.0,0.0,0.0,0.0,0.0,0.0,0.0,0.0,0.0,0.0,0.0,0.0,0.0,0.0,0.0,0.0,0.0,0.0,0.0,0.0,0.0,0.0,0.0,0.0,0.0,0.0,0.0,0.0,0.0,0.0,0.0,0.0,0.0,0.0,0.0,0.0,0.0,0.5912,1.1502,0.0,0.0,0.0,0.0,-1.4201,-1.5543,-1.5995,-1.6486,-1.7366,-1.8086,-1.86,-1.9462,-1.9725,-1.931,-1.9981,-2.0085,-1.9719,-2.0379,-2.0695,-2.0751,-2.0719,-2.0705,-2.0705,-2.0562,-2.0581,-2.0788,-2.1541,-2.2173,-2.2643,-2.3069,-2.315,-2.3046,-2.2962,-2.2881,-2.2808,0.0,0.0,0.0,0.0,0.0,0.0,0.0,0.0,0.0,0.0,0.0,0.0,0.0,0.0,0.0,0.0,0.0,0.0,0.0,0.0,0.0,0.0,0.0,0.0,0.0,0.0,-0.0052,-0.0154,-0.1527,-0.2353,-0.2707,-0.4243,-0.5023,-0.5274,-0.7176,-0.845,-0.9303,-1.1617,-1.2914,-1.3575,-1.5034,-1.5405,0.0,0.0,0.0,0.0,0.0,0.0,0.0,0.0,0.0,0.0,0.0,0.0,0.0,0.0,0.0,0.0,0.0,0.0,0.0,0.0,0.0,0.0,0.0,0.0,0.0,0.0,0.0,0.0,0.0,0.0,0.0,0.0,0.0,0.0,0.0,0.0,0.0,1.8346,2.1145,0.0,0.9364,0.4843,-0.0832,-0.8871,-1.4849,-1.8243,-1.8413,-1.8747,-1.9072,-1.9443,-1.9493,-1.9398,-1.9067,-1.9568,-1.9725,-1.9525,-1.9661,-1.9855,-2.01,-1.9701,-1.9532,-1.9532,-1.9484,-1.9484,-1.9619,-2.0509,-2.1331,-2.2104,-2.2401,-2.2483,-2.2425,-2.2884,-2.252,-2.1872,0.0,0.0,0.0,0.0,0.0,0.0,0.0,0.0,0.0,0.0,0.0,0.0,0.0,0.0,0.0,0.0,0.0,0.0,0.0,0.0,0.0,0.0,0.0,0.0,0.0,0.3839,0.2727,0.2846,0.0,-0.1489,-0.1646,-0.3257,-0.4239,-0.4693,-0.6366,-0.772,-0.8951,-1.1584,-1.312,-1.3933,-1.5997,-1.6399,-1.5856,0.0,0.0,0.0,0.0,0.0,0.0,0.0,0.0,0.0,0.0,0.0,0.0,0.0,0.0,0.0,0.0,0.0,0.0,0.0,0.0,0.0,0.0,0.0,0.0,0.0,0.0,0.0,0.0,0.0,0.0,0.0,0.0,0.0,0.0,0.0,2.7928,2.5643,2.6954,2.4688,1.611,0.775,0.027,-0.6018,-1.4203,-1.8955,-1.8955,-1.9116,-1.9326,-1.9578,-1.9448,-1.9275,-1.9166,-1.9253,-1.9276,-1.935,-1.9083,-1.9124,-1.9486,-1.9087,-1.8904,-1.8904,-1.8904,-1.88,-1.8675,-1.9437,-2.0099,-2.0698,-2.1584,-2.1818,-2.1841,-2.2308,-2.1977,-2.1273,0.0,0.0,0.0,0.0,0.0,0.0,0.0,0.0,0.0,0.0,0.0,0.0,0.0,0.0,0.0,0.0,0.0,0.0,0.0,0.0,0.0,0.0,0.0,0.0,1.328,0.9567,0.7431,0.7103,0.0,0.0,0.0,0.0,0.0,0.0,-0.4692,-0.6393,-0.8022,-1.0487,-1.2594,-1.4408,-1.6546,-1.7105,-1.6763,0.0,0.0,0.0,0.0,0.0,0.0,0.0,0.0,0.0,0.0,0.0,0.0,0.0,0.0,0.0,0.0,0.0,0.0,0.0,0.0,0.0,0.0,0.0,0.0,0.0,0.0,0.0,0.0,0.0,0.0,0.0,0.0,0.0,2.6259,2.8101,2.8678,2.6445,2.8127,2.5693,1.6113,0.8698,0.1431,-0.5904,-1.3733,-1.8136,-1.8136,-1.865,-1.8914,-1.8914,-1.9424,-1.9677,-1.9643,-1.8908,-1.8649,-1.8945,-1.8172,-1.8086,-1.8617,-1.8598,-1.8682,-1.8852,-1.8852,-1.8551,-1.8105,-1.8497,-1.8515,-1.8502,-2.0586,-2.1333,-2.1245,-2.1245,-2.1245,-2.1149,0.0,0.0,0.0,0.0,0.0,0.0,0.0,0.0,0.0,0.0,0.0,0.0,0.0,0.0,0.0,0.0,0.0,0.0,0.0,0.0,0.0,0.0,0.0,0.0,1.4016,1.2435,1.1614,0.0,0.0,0.0,0.0,0.0,0.0,0.0,0.0,-0.5847,-0.6932,-0.9552,-1.1593,-1.3319,-1.6265,-1.7682,-1.8074,0.0,0.0,0.0,0.0,0.0,0.0,0.0,0.0,0.0,0.0,0.0,0.0,0.0,0.0,0.0,0.0,0.0,0.0,0.0,0.0,0.0,0.0,0.0,0.0,0.0,0.0,0.0,0.0,0.0,0.0,0.0,0.0,2.8365,2.7654,2.8664,2.9033,2.7755,2.8242,2.7434,2.4191,1.1807,0.314,0.1065,-1.163,-1.9264,-1.9264,-1.9401,-1.9476,-1.9476,-1.9614,-1.9333,-1.8575,-1.4131,-1.1866,-1.1777,-0.6875,-0.7136,-1.19,-1.1512,-1.3636,-1.7669,-1.7669,-1.7584,-1.7483,-1.788,-1.7977,-1.8062,-1.918,-1.9724,-1.9944,-2.0034,-2.0072,-2.0042,0.0,0.0,0.0,0.0,0.0,0.0,0.0,0.0,0.0,0.0,0.0,0.0,0.0,0.0,0.0,0.0,0.0,0.0,0.0,0.0,0.0,0.0,0.0,1.725,1.8458,1.6139,0.0,0.0,0.0,0.0,0.0,0.0,0.0,0.0,0.0,0.0,-0.3335,-0.5558,-0.8345,-1.1515,-1.4684,-1.6584,-1.7728,-1.9225,-1.9211,-1.8384,-1.8216,-1.8029,-1.7646,-1.6049,0.0,0.0,0.0,0.0,0.0,0.0,0.0,0.0,0.0,0.0,0.0,0.0,0.0,0.0,0.0,0.0,0.0,0.0,0.0,0.0,0.0,0.0,0.0,0.0,2.9029,2.9822,2.9034,2.9468,2.9377,2.7985,2.7846,2.7465,2.6437,1.2779,0.3958,0.3958,-0.9907,-1.8408,-1.8408,-1.8408,-1.8408,-1.8408,-1.8408,-1.6938,-1.3827,-1.0149,-0.713,-0.4655,-0.329,-0.4752,-0.876,-1.103,-1.3969,0.0,-1.7199,-1.7199,-1.724,-1.7434,-1.7632,0.0,0.0,0.0,0.0,0.0,-1.964,-1.964,0.0,0.0,0.0,0.0,0.0,0.0,0.0,0.0,0.0,0.0,0.0,0.0,0.0,0.0,0.0,0.0,0.0,0.0,0.0,0.0,0.0,0.0,2.0185,2.1503,2.3987,0.0,0.0,0.0,0.0,0.0,0.0,0.0,0.0,0.0,0.0,0.0,0.1707,0.0253,-0.3244,-0.8089,-1.1227,-1.3919,-1.6291,-1.8435,-1.8351,-1.7143,-1.7912,-1.7964,-1.7448,-1.6411,0.0,0.0,0.0,0.0,0.0,0.0,0.0,0.0,0.0,0.0,0.0,0.0,0.0,0.0,0.0,0.0,0.0,0.0,0.0,0.0,0.0,0.0,0.0,0.0,3.0857,3.1091,3.0027,3.0052,2.9453,2.7476,2.7006,2.6361,2.5097,1.3017,0.5247,0.5247,-0.7683,-1.556,-1.556,0.0,0.0,0.0,0.0,-1.2745,-0.6786,-0.5583,-0.2519,0.2304,-0.2114,-0.4798,-0.6028,-1.231,-1.554,-1.6233,-1.6902,-1.7199,-1.7199,-1.7199,-1.7434,-1.7875,-1.8745,-1.9101,-1.9139,-1.9537,-1.9682,-1.9675,0.0,0.0,0.0,0.0,0.0,0.0,0.0,0.0,0.0,0.0,0.0,0.0,0.0,0.0,0.0,0.0,0.0,0.0,0.0,0.0,0.0,1.9164,2.1272,0.0,0.0,0.0,0.0,0.0,0.0,0.0,0.0,0.0,0.0,0.0,0.0,0.0,0.5972,0.5127,0.3714,0.1679,-0.2676,-0.8562,-1.5019,-1.7961,-1.7869,-1.6262,-1.7219,-1.7109,-1.6288,-1.492,-1.4981,-1.5338,-1.3561,0.0,0.0,0.0,0.0,0.0,0.0,0.0,0.0,0.0,0.0,0.0,0.0,0.0,0.0,0.0,0.0,0.0,0.0,0.0,0.0,2.9265,3.1136,3.1625,2.8815,2.863,2.8336,2.7111,2.6011,2.5206,2.4952,1.695,1.1765,1.1765,-0.1139,-0.9025,-0.9025,-1.3836,-1.4442,-0.9676,-0.9501,-0.6478,-0.013,0.4824,0.7839,0.8989,0.0,0.0,0.6127,0.0119,-0.5365,-1.0377,-1.512,-1.7199,-1.7199,-1.7199,-1.7434,-1.7875,-1.8745,-1.9101,-1.9139,-1.9537,-1.9682,-1.9607,0.0,0.0,0.0,0.0,0.0,0.0,0.0,0.0,0.0,0.0,0.0,0.0,0.0,0.0,0.0,0.0,0.0,0.0,0.0,0.0,0.0,0.0,0.0,0.0,0.0,0.0,0.0,0.0,0.0,0.0,0.0,0.0,0.0,0.0,0.0,0.0,1.0224,0.9644,0.7929,0.5317,0.2062,-0.1571,-0.5746,-1.2222,-1.266,-1.0198,-1.3459,-1.2676,-1.0411,-1.2364,-1.1549,-0.9951,-1.154,-1.0032,-0.7659,0.0,0.0,0.0,0.0,0.0,0.0,0.0,0.0,0.0,0.0,0.0,0.0,0.0,0.0,2.8664,0.0,0.0,3.1514,3.1337,3.2,3.1593,2.8771,2.8198,2.736,2.5487,2.4629,2.4072,2.379,1.743,1.3368,1.3428,0.4385,-0.1405,-0.1959,-0.4292,-0.4702,-0.2673,-0.2259,0.0687,0.6554,0.9573,1.2577,1.5548,1.5386,1.3533,1.0077,0.3996,-0.0591,-0.4073,-0.9967,-1.2593,-1.3029,-1.5959,-1.7317,-1.7557,-1.8187,-1.8515,-1.8622,-1.884,-1.8804,-1.8657,0.0,0.0,0.0,0.0,0.0,0.0,0.0,0.0,0.0,0.0,0.0,0.0,0.0,0.0,0.0,0.0,0.0,0.0,0.0,2.0769,0.0,0.0,0.0,0.0,0.0,0.0,0.0,0.0,0.0,0.0,0.0,0.0,0.0,0.0,0.0,0.0,1.398,1.3608,1.1518,0.8264,0.5995,0.5845,0.5955,-0.3639,-0.5053,-0.2482,-0.7091,-0.5828,-0.2637,-0.7054,-0.5502,-0.242,-0.6349,-0.3865,0.0527,0.048,0.4319,0.0,0.0,0.0,0.0,0.0,0.0,0.0,0.0,0.0,2.2913,2.8907,3.0188,3.048,3.1272,3.2342,3.3091,3.3117,3.2685,3.1403,2.8715,2.8041,2.6803,2.4063,2.3656,2.3405,2.2907,1.8189,1.5265,1.5542,1.0223,0.6548,0.5624,0.5443,0.5198,0.4717,0.5249,0.8019,1.3289,1.3253,1.5654,2.0334,1.5165,1.2704,1.2398,0.6154,0.3096,0.2402,-0.3475,-0.6203,-0.7042,-1.2941,-1.5352,-1.5525,-1.7067,-1.7673,-1.7727,-1.7921,-1.7841,-1.7595,0.0,0.0,0.0,0.0,0.0,0.0,0.0,0.0,0.0,0.0,0.0,0.0,0.0,0.0,0.0,0.0,0.0,0.0,0.0,2.0538,2.1235,0.0,0.0,0.0,0.0,0.0,0.0,0.0,0.0,0.0,0.0,0.0,0.0,0.0,0.0,0.0,1.6509,1.6501,1.6256,1.5483,1.1565,1.2816,1.6027,0.7177,0.3982,0.4061,0.2905,0.3679,0.5134,0.4457,0.45,0.4987,0.5913,0.6238,0.6354,0.6669,0.0,0.8119,0.6798,1.1572,1.7437,1.943,2.3819,2.8929,0.0,0.0,3.3415,3.4959,3.4594,3.3834,3.3371,3.3327,3.2932,3.16,3.2133,3.1319,2.7306,2.7562,2.7165,2.4532,2.4059,2.3917,2.3858,2.3036,2.2835,2.3646,1.7797,1.4163,1.4048,0.8785,0.776,1.2134,1.2365,1.49,2.0138,1.991,2.0079,2.072,1.9718,1.9051,1.8513,1.2546,0.9627,0.8914,0.3012,0.0233,-0.0596,-0.645,-0.8867,-0.9395,-1.5063,-1.6843,-1.6336,-1.7308,-1.7476,-1.7184,0.0,0.0,0.0,0.0,0.0,0.0,0.0,0.0,0.0,0.0,0.0,0.0,0.0,0.0,0.0,0.0,0.0,0.0,1.9841,2.0611,2.1039,2.0893,2.0958,0.0,0.0,0.0,0.0,0.0,0.0,0.0,0.0,0.0,0.0,0.0,0.0,0.0,1.6808,1.6388,1.6318,1.6343,1.4033,1.4616,1.6529,1.3361,1.2451,1.2238,0.7768,0.8923,0.0,0.0,0.9702,1.2032,0.9436,1.0611,1.3089,1.3712,1.6216,0.0,1.9165,1.8679,1.9284,0.0,2.7917,3.0964,3.3532,3.3454,3.3199,3.4586,3.4376,3.3723,3.3248,3.3091,3.2778,0.0,3.1339,3.0275,2.8049,2.8137,2.7669,2.564,2.601,2.6056,2.5033,2.4713,2.4713,2.5097,2.2909,2.1247,2.0506,1.8267,1.7541,1.865,1.8624,1.9479,2.1291,2.115,2.1087,2.1095,2.0958,2.0788,2.056,1.8067,1.4747,1.0764,0.7475,0.3978,0.0452,-0.2391,-0.3553,-0.383,-0.6453,-0.7186,-0.7565,-1.4427,-1.6595,-1.608,0.0,0.0,0.0,0.0,0.0,0.0,0.0,0.0,0.0,0.0,0.0,0.0,0.0,0.0,0.0,0.0,0.0,0.0,0.0,2.0615,2.0828,2.0697,2.0648,0.0,1.9366,0.0,0.0,0.0,0.0,0.0,0.0,0.0,0.0,0.0,0.0,1.5906,1.5953,1.5245,1.5187,1.5512,1.4652,1.4804,1.5614,1.6168,1.7177,1.7661,1.2956,1.4389,0.0,0.0,1.5695,1.8686,1.4872,1.6474,1.984,2.0391,2.3228,2.6399,2.7317,2.4282,0.0,2.7973,3.0229,3.1388,3.2847,3.2946,3.3046,3.4114,3.4094,3.3746,3.3219,3.3133,3.2886,3.2156,3.1236,3.0106,2.8634,2.8807,2.8585,2.7182,2.8076,2.8394,2.7288,2.6621,2.6247,2.6167,2.6592,2.6253,2.4926,2.5395,2.4862,2.3046,2.2924,2.2481,2.157,2.1493,2.1432,2.1432,2.1331,2.1194,2.0977,2.0774,1.7989,1.3294,1.2297,0.9382,0.5165,0.2996,0.2099,0.1927,0.0173,-0.0274,-0.094,-0.9009,-1.2445,-1.3108,0.0,0.0,0.0,0.0,0.0,0.0,0.0,0.0,0.0,0.0,0.0,0.0,0.0,0.0,0.0,0.0,0.0,0.0,0.0,2.0424,2.0671,2.0143,1.9897,1.9826,1.9967,1.8941,1.8425,0.0,0.0,0.0,0.0,0.0,0.0,0.0,0.0,1.4464,1.3953,1.3476,1.3557,1.3912,1.3365,1.4057,1.5356,1.5165,1.6388,1.8432,2.0162,0.0,0.0,0.0,2.4293,2.4901,2.5713,2.6171,0.0,2.6203,2.6188,2.6355,2.7022,0.0,2.8072,2.9604,3.1252,3.2725,3.3433,3.5009,3.613,3.5339,3.5146,3.4888,3.4122,3.3956,3.3456,3.1869,3.2234,3.1606,2.8467,2.9363,3.0028,2.92,2.9824,3.0549,0.0,2.9825,2.8863,2.8603,2.8802,2.8316,2.6883,2.7027,2.6293,2.4492,2.4441,2.3726,2.2291,2.1953,2.1781,2.1789,2.1462,2.092,2.021,1.9441,1.8747,1.8189,1.8281,1.7999,1.7016,1.1048,0.8602,0.7989,0.1893,-0.0135,0.0292,-0.035,-0.3495,-0.747,0.0,0.0,0.0,0.0,0.0,0.0,0.0,0.0,0.0,0.0,0.0,0.0,0.0,0.0,0.0,0.0,0.0,0.0,0.0,1.9649,1.948,1.9823,1.955,1.9261,1.9072,1.8727,1.8471,1.8343,0.0,0.0,0.0,0.0,0.0,0.0,1.5561,1.5533,1.5298,1.419,1.4056,1.4475,1.3523,1.3917,1.506,1.5143,1.6098,1.7633,0.0,0.0,0.0,0.0,2.3874,2.4539,2.4973,2.4978,2.4851,2.4872,2.5215,2.5876,2.7127,0.0,2.821,3.0171,3.1101,3.1712,3.2384,3.2975,3.3478,3.3857,3.2878,3.2098,3.258,3.1611,3.0789,3.0859,3.057,3.0179,2.9662,3.0059,3.03,3.0022,3.1177,0.0,0.0,0.0,0.0,2.9914,2.9336,2.878,2.8244,2.733,2.6272,2.5114,2.4613,2.3858,2.285,2.2553,2.2398,2.239,2.1735,2.1236,2.0827,1.999,1.9437,1.9106,1.8475,1.8031,1.7552,1.5037,1.3912,1.3557,1.1606,1.0725,1.0594,1.0812,0.767,0.271,0.0,0.0,0.0,0.0,0.0,0.0,0.0,0.0,0.0,0.0,0.0,0.0,0.0,0.0,0.0,0.0,0.0,0.0,0.0,0.0,1.9439,1.9601,1.9391,1.9092,1.8717,1.832,1.8101,1.8004,0.0,0.0,0.0,0.0,1.6503,1.5457,1.5722,1.5742,1.548,1.441,1.4266,1.4614,1.3746,1.4248,1.5521,1.572,1.6723,0.0,0.0,0.0,0.0,2.2366,2.3236,2.3971,2.4104,2.4166,2.4234,2.4433,2.4835,2.5575,2.7205,2.7413,2.7661,2.9697,3.0225,3.0358,3.078,3.132,3.1792,3.2129,3.1645,3.1299,3.1705,3.1252,3.0713,3.0387,3.0349,3.0235,2.9877,3.0294,3.0768,3.1087,3.2231,3.3092,0.0,0.0,0.0,3.0688,3.0128,2.9438,2.8534,2.736,2.6338,2.5428,2.4673,2.3891,2.3109,2.2935,2.285,2.2833,2.1767,2.1176,2.1026,1.9923,1.9253,1.8959,1.8302,1.7872,1.7591,1.7062,1.6793,1.6708,1.6818,1.6596,1.6308,1.6652,1.4588,1.0771,0.0,0.0,0.0,0.0,0.0,0.0,0.0,0.0,0.0,0.0,0.0,0.0,0.0,0.0,0.0,0.0,0.0,0.0,0.0,0.0,0.0,1.9479,1.9332,1.9163,1.8842,1.7808,1.7341,1.7479,1.654,1.585,1.5452,1.5982,1.5706,1.4857,1.5238,1.5117,1.4644,1.4107,1.4121,1.4413,1.3949,1.4927,1.6635,1.6806,0.0,0.0,0.0,0.0,0.0,0.0,2.275,2.3511,2.3651,2.4169,2.4742,2.5076,2.5127,2.5464,2.7174,2.7031,2.6794,2.8371,2.8812,2.8844,2.8846,3.0162,3.1157,3.0385,3.144,3.2282,0.0,0.0,3.2926,3.0476,3.1502,3.1765,2.9336,3.0269,3.1489,0.0,0.0,0.0,0.0,0.0,0.0,3.0993,0.0,3.0313,2.8023,2.7343,2.6543,2.55,2.4664,2.3907,2.3173,2.314,2.314,2.3098,2.155,2.082,2.0767,1.9228,1.8379,1.8123,1.8059,1.7915,1.7729,1.7455,1.7453,1.7594,1.7424,1.7339,1.7316,1.7339,1.7238,1.6292,0.0,0.0,0.0,0.0,0.0,0.0,0.0,0.0,0.0,0.0,0.0,0.0,0.0,0.0,0.0,0.0,0.0,0.0,0.0,0.0,0.0,0.0,0.0,0.0,0.0,0.0,0.0,0.0,0.0,1.7358,1.7248,1.7466,1.7408,0.0,1.5956,1.5656,1.5865,1.4609,1.4347,1.4879,0.0,1.5996,1.7342,0.0,0.0,0.0,0.0,0.0,0.0,0.0,0.0,0.0,2.3735,2.4144,2.4514,2.4709,2.485,2.5203,2.6349,2.66,2.6815,2.7926,2.8222,2.8232,2.8232,2.9002,2.9864,3.039,3.0196,3.0129,0.0,0.0,0.0,3.1255,3.2106,0.0,3.1868,3.2077,0.0,3.2594,0.0,3.312,3.3928,3.4004,0.0,0.0,3.1279,3.125,3.0645,2.8631,2.7173,2.6401,2.5483,2.4693,2.4008,2.3801,2.3548,2.3221,2.1929,2.1195,2.0894,1.9468,1.8672,1.8476,1.8439,1.8366,1.8216,1.8158,1.798,1.777,1.7902,1.7791,1.7566,1.8031,1.8001,1.7625,0.0,0.0,0.0,0.0,0.0,0.0,0.0,0.0,0.0,0.0,0.0,0.0,0.0,0.0,0.0,0.0,0.0,0.0,0.0,0.0,0.0,0.0,0.0,0.0,0.0,0.0,0.0,0.0,0.0,0.0,0.0,1.732,1.7434,1.6928,1.6202,1.6081,1.6359,0.0,0.0,0.0,0.0,0.0,0.0,0.0,0.0,0.0,0.0,0.0,0.0,0.0,0.0,2.31,2.3602,2.4003,2.4302,2.4456,0.0,2.4898,2.5903,2.6015,2.6082,2.7023,2.7048,2.6856,2.6858,2.7791,2.8826,2.9423,2.9634,0.0,3.0538,3.1469,0.0,0.0,0.0,0.0,3.2561,3.2339,3.2391,0.0,3.2697,0.0,3.3818,3.3545,3.2851,0.0,3.1756,3.1284,3.0046,2.8252,2.6924,2.6205,2.5314,2.4688,2.4294,2.4164,2.3952,2.372,2.2693,2.21,2.1868,2.0368,1.9581,1.9372,0.0,1.8866,1.8708,1.8708,1.8637,1.8511,1.8574,1.8463,1.8346,1.9073,1.9142,1.8951,0.0,0.0,0.0,0.0,0.0,0.0,0.0,0.0,0.0,0.0,0.0,0.0,0.0,0.0,0.0,0.0,0.0,0.0,0.0,0.0,0.0,0.0,0.0,0.0,0.0,0.0,0.0,0.0,0.0,0.0,0.0,0.0,0.0,0.0,0.0,0.0,0.0,0.0,0.0,0.0,0.0,0.0,0.0,0.0,0.0,0.0,0.0,0.0,0.0,0.0,2.2521,2.3029,2.3427,2.3795,2.4124,2.4302,2.4364,2.4582,2.5524,2.5323,2.5061,2.5901,2.5723,2.5335,2.5383,2.678,2.8094,2.817,0.0,3.0618,3.0623,3.2666,3.3861,3.2343,0.0,3.4218,3.2586,3.2205,3.2302,3.2879,3.2746,3.2881,3.3576,3.2958,3.2465,3.2326,3.2158,3.0913,2.8326,2.7293,2.6347,2.5412,2.4727,2.4366,2.4348,2.4366,2.4366,2.4338,2.3541,2.316,2.3128,2.1616,2.076,2.0475,0.0,0.0,1.9207,1.9207,1.9374,1.9582,1.9301,1.9329,1.9589,1.9996,2.0144,2.0117,0.0,0.0,0.0,0.0,0.0,0.0,0.0,0.0,0.0,0.0,0.0,0.0,0.0,0.0,0.0,0.0,0.0,0.0,0.0,0.0,0.0,0.0,0.0,0.0,0.0,0.0,0.0,0.0,0.0,0.0,0.0,0.0,0.0,0.0,0.0,0.0,0.0,0.0,0.0,0.0,0.0,0.0,0.0,0.0,0.0,0.0,0.0,0.0,0.0,0.0,2.3655,2.3788,2.332,2.3566,2.4016,2.4066,2.4182,2.4367,2.4532,2.4623,2.4732,2.5057,2.5054,2.5034,2.5264,2.6669,0.0,0.0,2.9492,3.0696,3.0755,3.2311,3.3488,3.3185,3.4612,3.5405,3.4378,3.4146,3.388,0.0,0.0,0.0,0.0,0.0,0.0,0.0,0.0,3.1178,2.9785,2.8053,2.6414,2.4895,2.4817,2.4741,2.4632,2.4741,2.4741,2.4623,2.3823,2.3484,2.3562,2.2503,2.167,2.1055,2.0935,0.0,1.9767,1.9767,2.0138,2.0646,1.9951,2.0533,2.151,1.9541,1.9679,2.0724,0.0,0.0,0.0,0.0,0.0,0.0,0.0,0.0,0.0,0.0,0.0,0.0,0.0,0.0,0.0,0.0,0.0,0.0,0.0,0.0,0.0,0.0,0.0,0.0,0.0,0.0,0.0,0.0,0.0,0.0,0.0,0.0,0.0,0.0,0.0,0.0,0.0,0.0,0.0,0.0,0.0,0.0,0.0,0.0,0.0,0.0,0.0,0.0,0.0,0.0,2.4584,2.445,2.3965,2.397,2.4113,2.4105,2.4172,2.4247,2.4247,2.4374,2.4519,2.4623,2.4721,2.4842,2.5049,0.0,0.0,0.0,2.9467,3.071,3.0735,3.2166,0.0,3.3354,3.4459,3.5179,3.4759,3.4285,0.0,3.3348,3.2529,0.0,0.0,0.0,0.0,0.0,0.0,3.0024,2.8915,2.7111,2.5739,2.4923,2.4975,2.4975,2.4904,2.4975,2.4993,2.496,2.4577,2.4421,2.4451,2.3537,2.2945,2.2556,2.1685,0.0,2.0702,2.0244,2.0257,2.0498,1.9658,2.036,2.157,1.944,1.9999,2.17,0.0,0.0,0.0,0.0,0.0,0.0,0.0,0.0,0.0,0.0,0.0,0.0,0.0,0.0,0.0,0.0,0.0,0.0,0.0,0.0,0.0,0.0,0.0,0.0,0.0,0.0,0.0,0.0,0.0,0.0,0.0,0.0,0.0,0.0,0.0,0.0,0.0,0.0,0.0,0.0,0.0,0.0,0.0,0.0,0.0,0.0,0.0,0.0,0.0,0.0,2.537,2.5059,2.4721,2.4543,2.4439,2.4275,2.4348,2.4429,2.4247,2.4395,2.4624,2.4643,2.4905,2.5158,2.5163,2.6612,0.0,2.7961,2.9416,3.0704,3.0688,3.197,3.3035,0.0,3.3815,3.4483,3.4649,3.4098,3.3587,0.0,3.2724,0.0,0.0,0.0,0.0,0.0,0.0,0.0,2.7537,2.6015,2.5166,2.5134,2.5155,2.5166,2.5134,2.5155,2.5187,2.5233,2.5206,2.5233,2.5258,2.4546,2.414,2.3895,2.2402,0.0,0.0,2.0642,2.0419,2.0648,1.9585,2.022,2.1506,1.9782,2.0531,2.2263,0.0,0.0,0.0,0.0,0.0,0.0,0.0,0.0,0.0,0.0,0.0,0.0,0.0,0.0,0.0,0.0,0.0,0.0,0.0,0.0,0.0,0.0,0.0,0.0,0.0,0.0,0.0,0.0,0.0,0.0,0.0,0.0,0.0,0.0,0.0,0.0,0.0,0.0,0.0,0.0,0.0,0.0,0.0,0.0,0.0,0.0,0.0,0.0,0.0,0.0,0.0,2.5789,2.5136,2.5141,2.5235,2.4506,0.0,0.0,2.4431,2.4744,2.5343,2.5458,2.6043,2.6497,2.6088,0.0,2.8603,2.795,2.9361,3.0681,3.062,3.1487,0.0,0.0,0.0,3.3765,3.4506,3.4595,3.4274,3.3487,0.0,0.0,0.0,0.0,0.0,0.0,0.0,0.0,2.6799,2.5887,2.534,2.5284,2.5343,2.5333,2.5276,2.5343,2.5383,2.5379,2.526,2.5324,2.5561,2.5345,2.4899,2.4211,2.326,0.0,0.0,2.0894,2.1134,2.2405,2.0732,2.1178,2.2563,2.0869,2.0898,2.154,0.0,0.0,0.0,0.0,0.0,0.0,0.0,0.0,0.0,0.0,0.0,0.0,0.0,0.0,0.0,0.0,0.0,0.0,0.0,0.0,0.0,0.0,0.0,0.0,0.0,0.0,0.0,0.0,0.0,0.0,0.0,0.0,0.0,0.0,0.0,0.0,0.0,0.0,0.0,0.0,0.0,0.0,0.0,0.0,0.0,0.0,0.0,0.0,0.0,0.0,0.0,0.0,2.5956,2.5841,0.0,0.0,2.5243,2.5527,2.5674,2.5919,2.6137,2.62,2.6142,2.6051,2.5991,0.0,2.8056,2.7842,2.9308,3.0633,3.06,3.0991,3.132,0.0,0.0,0.0,3.2976,3.3117,3.3009,3.2663,0.0,0.0,0.0,0.0,0.0,0.0,0.0,0.0,2.6074,2.5671,2.5467,2.5482,2.5513,2.5513,2.5482,2.5477,2.5476,2.5525,2.5466,2.548,2.5536,2.5535,2.5341,2.497,2.4101,0.0,0.0,2.1556,2.1185,2.1241,1.9449,1.9836,2.1064,1.8289,1.8464,1.9902,0.0,0.0,0.0,0.0,0.0,0.0,0.0,0.0,0.0,0.0,0.0,0.0,0.0,0.0,0.0,0.0,0.0,0.0,0.0,0.0,0.0,0.0,0.0,0.0,0.0,0.0,0.0,0.0,0.0,0.0,0.0,0.0,0.0,0.0,0.0,0.0,0.0,0.0,0.0,0.0,0.0,0.0,0.0,0.0,0.0,0.0,0.0,0.0,0.0,0.0,0.0,0.0,0.0,0.0,0.0,0.0,2.5512,2.5924,2.6265,2.6636,2.6952,2.6952,2.6628,2.6303,0.0,0.0,2.7924,2.7796,2.9282,3.0586,3.0574,3.0701,3.0799,0.0,0.0,3.1106,3.1977,3.2104,3.2202,0.0,0.0,0.0,0.0,0.0,0.0,0.0,0.0,0.0,0.0,2.5535,2.5517,2.5568,2.5605,2.5605,2.5566,2.5544,2.5547,2.5599,2.5599,2.5584,2.553,2.5561,2.5539,2.5441,0.0,0.0,0.0,2.1768,2.1021,2.0585,1.8814,1.8884,1.9666,1.7223,1.7301,1.853,0.0,0.0,0.0,0.0,0.0,0.0,0.0,0.0,0.0,0.0,0.0,0.0,0.0,0.0,0.0,0.0,0.0,0.0,0.0,0.0,0.0,0.0,0.0,0.0,0.0,0.0,0.0,0.0,0.0,0.0,0.0,0.0,0.0,0.0,0.0,0.0,0.0,0.0,0.0,0.0,0.0,0.0,0.0,0.0,0.0,0.0,0.0,0.0,0.0,0.0,0.0,0.0,0.0,0.0,0.0,0.0,2.5532,2.6519,2.5734,2.6631,2.7787,2.7787,2.7883,2.7826,0.0,2.7966,2.858,2.7845,2.9255,3.0581,3.051,3.0658,3.0799,3.0799,0.0,0.0,3.1977,3.2104,0.0,0.0,0.0,0.0,0.0,0.0,0.0,0.0,0.0,0.0,0.0,2.5537,2.5498,2.5502,2.5629,2.5639,2.5502,2.5574,2.5601,2.5601,2.5601,2.5601,2.5601,2.5532,2.5497,0.0,0.0,0.0,0.0,2.1257,2.0677,2.1222,1.9543,1.8901,1.892,1.8945,1.8426,1.7716,0.0,0.0,0.0,0.0,0.0,0.0,0.0,0.0,0.0,0.0,0.0,0.0,0.0,0.0,0.0,0.0,0.0,0.0,0.0,0.0,0.0,0.0,0.0,0.0,0.0,0.0,0.0,0.0,0.0,0.0,0.0,0.0,0.0,0.0,0.0,0.0,0.0,0.0,0.0,0.0,0.0,0.0,0.0,0.0,0.0,0.0,0.0,0.0,0.0,0.0,0.0,0.0,0.0,0.0,0.0,0.0,0.0,0.0,2.6566,2.7016,2.7372,2.7335,2.7037,2.6855,2.7223,2.7755,2.8266,2.8591,2.9726,3.0649,3.0583,3.0701,3.0799,3.0799,3.0799,0.0,0.0,0.0,0.0,0.0,0.0,0.0,0.0,0.0,0.0,0.0,0.0,0.0,0.0,2.5511,2.5517,2.5567,2.561,2.5849,2.6325,2.5749,2.5761,2.634,2.5698,2.5386,2.5391,2.5364,0.0,0.0,0.0,0.0,0.0,2.1205,2.0718,2.0391,1.8478,1.7795,1.7812,1.7224,1.6412,1.5678,0.0,0.0,0.0,0.0,0.0,0.0,0.0,0.0,0.0,0.0,0.0,0.0,0.0,0.0,0.0,0.0,0.0,0.0,0.0,0.0,0.0,0.0,0.0,0.0,0.0,0.0,0.0,0.0,0.0,0.0,0.0,0.0,0.0,0.0,0.0,0.0,0.0,0.0,0.0,0.0,0.0,0.0,2.5803,0.0,0.0,0.0,0.0,0.0,0.0,0.0,0.0,0.0,0.0,0.0,0.0,0.0,2.547,2.6135,0.0,2.6974,2.7187,2.7151,2.6908,2.6829,2.7365,2.7929,2.8512,2.9062,2.9986,3.0694,3.0652,3.0735,3.0798,3.0798,3.0803,0.0,0.0,0.0,0.0,0.0,0.0,0.0,0.0,0.0,0.0,0.0,0.0,0.0,0.0,2.5498,2.5525,2.556,2.5541,2.5727,2.6166,2.5611,2.5615,2.6155,2.5543,2.512,2.4839,2.4774,0.0,0.0,0.0,0.0,0.0,2.0382,2.0004,1.9749,1.7888,1.7208,1.7221,1.6653,1.5661,1.4775,0.0,0.0,0.0,0.0,0.0,0.0,0.0,0.0,0.0,0.0,0.0,0.0,0.0,0.0,0.0,0.0,0.0,0.0,0.0,0.0,0.0,0.0,0.0,0.0,0.0,0.0,0.0,2.5216,2.4953,2.4863,2.4933,0.0,0.0,0.0,0.0,0.0,0.0,2.5568,2.5933,2.6127,2.686,2.6876,0.0,0.0,0.0,0.0,0.0,0.0,0.0,0.0,0.0,0.0,0.0,0.0,0.0,0.0,0.0,0.0,0.0,2.6594,2.7167,2.7148,2.7295,2.7491,2.7685,2.8451,0.0,2.9358,3.0098,3.0728,3.0787,3.0798,3.0837,3.0963,3.0927,0.0,0.0,0.0,0.0,0.0,0.0,0.0,0.0,0.0,0.0,0.0,0.0,0.0,0.0,2.5501,2.5493,2.5476,2.5422,2.5389,2.5389,2.5253,2.5253,2.537,2.5242,2.4802,2.407,2.3885,0.0,0.0,0.0,0.0,0.0,1.9065,1.8817,1.9337,1.777,1.7127,1.7093,1.7086,1.6019,1.4818,0.0,0.0,0.0,0.0,0.0,0.0,0.0,0.0,0.0,0.0,0.0,0.0,0.0,0.0,0.0,0.0,0.0,0.0,0.0,0.0,0.0,0.0,0.0,0.0,0.0,0.0,0.0,2.5353,2.5298,2.5235,2.5214,2.5164,0.0,0.0,0.0,0.0,2.5274,2.5447,2.5909,2.6551,2.6745,2.6741,0.0,0.0,0.0,0.0,2.5672,2.5727,0.0,0.0,0.0,0.0,0.0,0.0,0.0,0.0,2.5437,2.5694,2.6295,0.0,2.6744,2.6802,2.6853,2.7238,0.0,2.9159,2.9584,3.0236,0.0,3.0979,3.1654,3.1239,3.1236,3.2576,3.2231,3.2097,0.0,0.0,0.0,0.0,0.0,0.0,0.0,0.0,0.0,0.0,0.0,0.0,0.0,2.5447,2.5376,2.5274,2.5264,2.556,2.6211,2.549,2.5435,2.6061,2.5374,2.4631,2.3874,2.3767,0.0,0.0,0.0,0.0,1.981,1.9285,1.9239,1.9379,1.8177,1.7403,1.7012,1.7619,1.6367,1.4697,0.0,0.0,0.0,0.0,0.0,0.0,0.0,0.0,0.0,0.0,0.0,0.0,0.0,0.0,0.0,0.0,0.0,0.0,0.0,0.0,0.0,0.0,0.0,0.0,0.0,0.0,0.0,0.0,0.0,2.5475,0.0,0.0,0.0,0.0,0.0,2.5503,2.5537,2.5503,2.5991,2.6763,2.6356,0.0,0.0,0.0,0.0,0.0,2.5079,2.4931,0.0,2.3931,2.3939,2.4287,0.0,0.0,0.0,0.0,2.5684,2.5955,2.6067,2.6053,2.6121,2.6579,2.6999,2.7561,2.8569,0.0,0.0,0.0,0.0,3.094,3.1425,3.1445,3.1708,3.2654,3.2736,0.0,0.0,0.0,0.0,0.0,0.0,0.0,0.0,0.0,0.0,0.0,0.0,0.0,0.0,2.5412,2.5321,2.5255,2.519,2.5371,2.5817,2.5304,2.5292,2.5739,2.524,2.4398,2.3235,2.3079,2.2056,0.0,0.0,0.0,1.9377,1.8874,1.8923,1.9194,1.7866,1.7345,1.7364,1.7424,1.631,1.5017,0.0,0.0,0.0,0.0,0.0,0.0,0.0,0.0,0.0,0.0,0.0,0.0,0.0,0.0,0.0,0.0,0.0,0.0,0.0,0.0,0.0,0.0,0.0,0.0,0.0,0.0,0.0,0.0,0.0,0.0,0.0,0.0,2.5678,0.0,0.0,2.5768,2.5886,2.583,2.6151,2.6657,2.6054,0.0,0.0,0.0,0.0,0.0,0.0,0.0,0.0,2.329,2.2984,2.3058,2.3795,0.0,0.0,0.0,0.0,0.0,2.5857,2.5524,2.5551,2.6494,2.7387,2.8099,2.8358,0.0,0.0,0.0,0.0,0.0,0.0,3.1602,0.0,0.0,0.0,0.0,0.0,0.0,0.0,0.0,0.0,0.0,0.0,0.0,0.0,0.0,0.0,0.0,0.0,2.5367,2.5293,2.5264,2.5145,2.5063,2.4966,2.4991,2.4964,2.4898,2.4828,2.3948,2.2344,2.2123,2.1155,0.0,0.0,0.0,1.9206,1.8399,1.8471,1.8951,1.7599,1.7394,1.777,1.7107,1.6259,1.5499,0.0,0.0,0.0,0.0,0.0,0.0,0.0,0.0,0.0,0.0,0.0,0.0,0.0,0.0,0.0,0.0,0.0,0.0,0.0,0.0,0.0,0.0,0.0,0.0,0.0,0.0,0.0,0.0,0.0,0.0,2.5598,2.56,2.6025,0.0,0.0,2.611,2.6804,2.6728,2.6384,2.5933,2.6478,0.0,0.0,0.0,0.0,0.0,0.0,0.0,0.0,2.3376,2.3083,2.309,2.3232,0.0,0.0,0.0,0.0,0.0,2.6436,2.6044,2.5694,2.6627,2.7516,2.8377,2.9196,0.0,0.0,0.0,0.0,0.0,0.0,0.0,0.0,0.0,0.0,0.0,0.0,0.0,0.0,0.0,0.0,0.0,0.0,0.0,0.0,0.0,0.0,0.0,0.0,2.5303,2.5222,2.5047,2.5085,2.5008,2.4832,2.4941,2.4631,2.3914,2.3901,2.2978,2.1243,2.1204,2.0522,0.0,0.0,1.9239,1.9128,1.8977,1.8987,1.9078,1.8824,1.8282,1.7645,1.7579,1.6883,1.5913,0.0,0.0,0.0,0.0,0.0,0.0,0.0,0.0,0.0,0.0,0.0,0.0,0.0,0.0,0.0,0.0,0.0,0.0,0.0,0.0,0.0,0.0,0.0,0.0,0.0,0.0,0.0,0.0,0.0,2.5683,2.5654,2.5654,2.6141,2.6955,0.0,2.6426,2.762,2.7111,2.6942,2.6987,0.0,0.0,0.0,0.0,0.0,0.0,0.0,0.0,0.0,0.0,2.2114,2.1775,2.2248,0.0,0.0,0.0,0.0,0.0,2.6104,2.5915,2.5715,2.6136,2.6883,2.7738,2.8681,0.0,0.0,0.0,0.0,0.0,0.0,0.0,0.0,0.0,0.0,0.0,0.0,0.0,0.0,0.0,0.0,0.0,0.0,0.0,0.0,0.0,0.0,0.0,0.0,0.0,2.5153,2.5054,2.4588,2.4526,2.4894,2.4074,2.367,2.3698,2.3698,2.2521,2.0349,2.0272,1.9657,1.8653,0.0,1.8761,1.9096,1.9096,1.9096,1.9051,1.8616,1.8431,1.8293,1.7264,1.6304,1.5362,0.0,0.0,0.0,0.0,0.0,0.0,0.0,0.0,0.0,0.0,0.0,0.0,0.0,0.0,0.0,0.0,0.0,0.0,0.0,0.0,0.0,0.0,0.0,0.0,0.0,0.0,2.546,2.5648,2.5652,2.5657,2.568,2.5683,2.6136,0.0,0.0,2.6617,2.8164,2.7468,2.7548,2.8073,0.0,0.0,0.0,0.0,0.0,0.0,0.0,0.0,0.0,0.0,0.0,0.0,0.0,0.0,0.0,2.3849,2.4731,2.5398,2.5397,2.5536,2.5702,2.5702,0.0,2.7221,2.8352,0.0,0.0,0.0,0.0,0.0,0.0,0.0,0.0,0.0,0.0,0.0,0.0,0.0,0.0,0.0,0.0,0.0,0.0,0.0,0.0,0.0,0.0,0.0,0.0,0.0,2.5094,2.5079,2.4005,2.3736,2.4399,2.294,2.2609,2.3405,2.2981,2.1604,1.9438,1.932,1.8804,1.8053,1.8136,1.8542,1.9096,1.9096,1.9096,1.9033,1.8424,1.8276,1.8283,1.7143,1.5999,1.493,0.0,0.0,0.0,0.0,0.0,0.0,0.0,0.0,0.0,0.0,0.0,0.0,0.0,0.0,0.0,0.0,0.0,0.0,0.0,0.0,0.0,0.0,0.0,0.0,0.0,2.4373,2.4771,2.5508,2.5508,2.5556,2.5615,2.561,2.6067,2.6865,0.0,2.6566,2.8188,2.8065,2.8073,2.8182,2.8058,0.0,0.0,0.0,0.0,0.0,0.0,0.0,0.0,0.0,0.0,0.0,0.0,0.0,2.2148,2.3027,2.3857,2.4492,2.4492,2.5078,2.5702,2.5702,2.6346,0.0,2.9125,3.018,0.0,0.0,0.0,0.0,0.0,0.0,0.0,0.0,0.0,0.0,0.0,0.0,0.0,0.0,0.0,0.0,0.0,0.0,0.0,0.0,0.0,0.0,0.0,0.0,0.0,2.5015,2.343,2.2618,2.2675,2.1765,2.1727,2.2571,2.0887,1.9495,1.8397,1.8273,1.8099,1.7959,1.8696,1.9042,1.9096,1.9096,1.9096,1.9087,1.9033,1.7953,1.6561,1.7856,1.6932,1.5174,0.0,0.0,0.0,0.0,0.0,0.0,0.0,0.0,0.0,0.0,0.0,0.0,0.0,0.0,0.0,0.0,0.0,0.0,0.0,0.0,0.0,0.0,0.0,2.4082,2.4082,2.4226,2.4686,2.5502,2.5457,2.5447,2.5467,2.5431,0.0,0.0,0.0,2.6437,2.8071,2.8051,2.8087,2.8175,2.8696,2.8058,0.0,0.0,0.0,0.0,0.0,0.0,0.0,0.0,2.329,2.1953,0.0,0.0,0.0,0.0,2.3769,2.4521,2.5059,2.5449,2.5703,2.5703,2.5947,0.0,0.0,0.0,0.0,0.0,0.0,0.0,0.0,0.0,0.0,0.0,0.0,0.0,0.0,0.0,0.0,0.0,0.0,0.0,0.0,0.0,0.0,0.0,0.0,0.0,0.0,0.0,0.0,2.423,2.1624,2.069,2.1743,2.0271,1.9705,2.0085,2.0402,1.9757,1.83,1.8167,1.8038,1.7926,1.8225,1.8651,1.9096,1.9096,1.9096,1.9096,1.9096,1.8657,1.7999,1.8004,1.7338,1.6422,0.0,0.0,0.0,0.0,0.0,0.0,0.0,0.0,0.0,0.0,0.0,0.0,0.0,0.0,0.0,0.0,0.0,0.0,0.0,0.0,0.0,0.0,0.0,2.3746,2.3986,2.3896,2.4355,2.5444,2.5368,2.5192,2.4903,0.0,0.0,0.0,0.0,0.0,0.0,2.7542,2.7705,2.803,2.833,2.7758,0.0,0.0,0.0,0.0,0.0,0.0,0.0,0.0,2.3676,0.0,0.0,0.0,0.0,0.0,0.0,2.418,2.5049,2.5488,2.5703,0.0,0.0,0.0,0.0,0.0,0.0,0.0,0.0,0.0,0.0,0.0,0.0,0.0,0.0,0.0,0.0,0.0,0.0,0.0,0.0,0.0,0.0,0.0,0.0,0.0,0.0,0.0,0.0,0.0,0.0,0.0,1.9867,1.9078,2.0503,1.8894,1.8253,1.8584,1.9853,1.9545,1.7864,1.7973,1.7988,1.7916,1.8179,1.858,1.9096,1.9096,1.9096,1.9096,1.9096,1.8925,1.8613,1.8265,1.7772,1.7247,0.0,0.0,0.0,0.0,0.0,0.0,0.0,0.0,0.0,0.0,0.0,0.0,0.0,0.0,0.0,0.0,0.0,0.0,0.0,0.0,0.0,0.0,0.0,2.3189,2.3985,2.3228,2.3631,2.5274,2.5221,2.4715,2.3829,2.4767,0.0,0.0,0.0,0.0,0.0,0.0,2.6997,2.7709,2.6777,2.6493,2.6506,0.0,0.0,0.0,0.0,0.0,0.0,0.0,2.4526,0.0,0.0,0.0,0.0,0.0,2.249,2.3301,2.418,2.5039,2.5702,0.0,0.0,0.0,0.0,0.0,0.0,0.0,0.0,0.0,0.0,0.0,0.0,0.0,0.0,0.0,0.0,0.0,0.0,0.0,0.0,0.0,0.0,0.0,0.0,0.0,0.0,0.0,0.0,0.0,0.0,0.0,1.8393,1.7899,1.8774,1.7733,1.7628,1.8488,1.9045,1.8469,1.6954,1.7621,1.7916,1.7962,1.8743,1.9096,1.9096,1.9096,1.9096,1.9096,1.9096,1.8524,1.783,1.8756,1.8333,1.7433,0.0,0.0,0.0,0.0,0.0,0.0,0.0,0.0,0.0,0.0,0.0,0.0,0.0,0.0,0.0,0.0,0.0,0.0,0.0,0.0,0.0,0.0,0.0,0.0,0.0,0.0,2.4147,2.3467,2.4536,2.4609,0.0,0.0,0.0,2.4796,0.0,0.0,0.0,0.0,2.6584,2.6833,2.718,2.7032,2.6574,0.0,0.0,0.0,0.0,0.0,0.0,0.0,0.0,0.0,0.0,0.0,0.0,2.3242,2.3827,2.4198,2.5077,2.5496,0.0,0.0,0.0,0.0,0.0,0.0,0.0,0.0,0.0,0.0,0.0,0.0,0.0,0.0,0.0,0.0,0.0,0.0,0.0,0.0,0.0,0.0,0.0,0.0,0.0,0.0,0.0,0.0,0.0,0.0,0.0,0.0,1.6876,1.6337,1.7727,1.7233,1.7126,1.7394,1.8581,1.8961,1.8583,1.8697,1.8734,1.8752,1.8996,1.9096,1.9096,1.9096,1.9096,1.9096,1.9096,1.8934,1.872,1.9005,1.8691,1.816,0.0,0.0,0.0,0.0,0.0,0.0,0.0,0.0,0.0,0.0,0.0,0.0,0.0,0.0,0.0,0.0,0.0,0.0,0.0,0.0,0.0,0.0,0.0,0.0,0.0,2.5251,2.4635,0.0,0.0,0.0,0.0,0.0,0.0,2.46,0.0,2.4965,0.0,0.0,2.5288,2.5326,2.5825,2.5992,2.592,0.0,0.0,0.0,0.0,0.0,0.0,0.0,0.0,0.0,0.0,0.0,0.0,2.4002,2.4402,2.4587,2.5456,2.5699,0.0,0.0,0.0,0.0,0.0,0.0,0.0,0.0,0.0,0.0,0.0,0.0,0.0,0.0,0.0,0.0,0.0,0.0,0.0,0.0,0.0,0.0,0.0,0.0,0.0,0.0,0.0,0.0,0.0,0.0,0.0,0.0,1.63,1.612,1.7766,1.7547,1.7587,1.7895,1.8621,1.9017,1.9092,1.9095,1.9096,1.9096,1.9096,1.9053,1.8993,1.9079,1.9053,1.8984,1.9079,1.9053,1.8984,1.8984,1.8706,1.8339,0.0,0.0,0.0,0.0,0.0,0.0,0.0,0.0,0.0,0.0,0.0,0.0,0.0,0.0,0.0,0.0,0.0,0.0,0.0,0.0,0.0,0.0,0.0,0.0,0.0,0.0,0.0,0.0,0.0,0.0,0.0,0.0,2.3739,2.3831,0.0,2.4492,0.0,2.3523,2.3488,2.3474,2.3479,2.4011,2.4801,2.4788,0.0,0.0,0.0,0.0,0.0,0.0,0.0,0.0,2.4322,0.0,2.3383,2.4264,2.4518,2.4693,2.5484,0.0,0.0,0.0,0.0,0.0,0.0,0.0,0.0,0.0,0.0,0.0,0.0,0.0,0.0,0.0,0.0,0.0,0.0,0.0,0.0,0.0,0.0,0.0,0.0,0.0,0.0,0.0,0.0,0.0,0.0,0.0,0.0,1.7218,1.6475,1.686,1.8465,1.8281,1.8577,0.0,1.8972,1.8798,1.8788,1.8967,1.9062,1.907,1.9053,1.8949,1.8806,1.8984,1.894,1.8779,1.8975,1.8949,1.8788,1.8761,1.8489,1.812,0.0,0.0,0.0,0.0,0.0,0.0,0.0,0.0,0.0,0.0,0.0,0.0,0.0,0.0,0.0,0.0,0.0,0.0,0.0,0.0,0.0,0.0,0.0,0.0,0.0,0.0,0.0,0.0,0.0,0.0,0.0,0.0,0.0,2.3812,0.0,2.3518,2.2694,2.2566,2.2534,2.2619,2.3141,2.3616,2.4033,2.398,2.4481,0.0,0.0,0.0,0.0,0.0,0.0,0.0,2.4287,2.4183,2.4215,2.5154,2.5419,2.5457,0.0,2.5697,0.0,0.0,0.0,0.0,0.0,0.0,0.0,0.0,0.0,0.0,0.0,0.0,0.0,0.0,0.0,0.0,0.0,0.0,0.0,0.0,0.0,0.0,0.0,0.0,0.0,0.0,0.0,0.0,0.0,0.0,0.0,1.7169,1.6898,1.7256,1.8252,1.812,1.8373,0.0,1.8921,1.878,1.8576,1.8603,1.8723,1.8869,1.8705,1.8686,1.8788,1.8679,1.8596,1.8567,1.8615,1.8633,1.8641,1.8576,1.8432,1.8261,0.0,0.0,0.0,0.0,0.0,0.0,0.0,0.0,0.0,0.0,0.0,0.0,0.0,0.0,0.0,0.0,0.0,0.0,0.0,0.0,0.0,0.0,0.0,0.0,0.0,0.0,0.0,0.0,0.0,0.0,0.0,0.0,0.0,2.3752,0.0,2.2948,2.1729,2.167,2.1606,2.1616,2.2065,2.2815,2.3615,2.3196,2.3623,2.4383,2.361,0.0,0.0,0.0,0.0,0.0,0.0,0.0,2.5017,2.5549,2.5703,2.5701,0.0,0.0,0.0,0.0,0.0,0.0,0.0,0.0,0.0,0.0,0.0,0.0,0.0,0.0,0.0,0.0,0.0,0.0,0.0,0.0,0.0,0.0,0.0,0.0,0.0,0.0,0.0,0.0,0.0,0.0,0.0,1.9563,1.8666,1.8222,1.7757,1.7868,1.8584,1.851,1.8592,1.8807,1.8706,1.8528,1.827,1.843,1.8575,1.8696,1.8593,1.8545,1.8573,1.8538,1.8491,1.8404,1.851,1.8519,1.845,1.8421,1.831,1.815,0.0,0.0,0.0,0.0,0.0,0.0,0.0,0.0,0.0,0.0,0.0,0.0,0.0,0.0,0.0,0.0,0.0,0.0,0.0,0.0,0.0,0.0,0.0,0.0,0.0,0.0,0.0,0.0,0.0,0.0,0.0,0.0,0.0,2.3468,0.0,0.0,2.0799,2.0744,2.0662,2.063,2.0894,2.1825,2.2994,2.2299,2.2718,2.3566,2.2679,2.3129,2.4129,2.4099,0.0,0.0,0.0,0.0,2.5372,2.5441,2.557,2.5703,0.0,0.0,0.0,0.0,0.0,0.0,0.0,0.0,0.0,0.0,0.0,0.0,0.0,0.0,0.0,0.0,0.0,0.0,0.0,0.0,0.0,0.0,0.0,0.0,0.0,0.0,0.0,0.0,0.0,0.0,2.0699,1.9241,1.8705,1.9372,1.8689,1.8544,1.9055,1.9039,1.8939,1.8706,1.8456,1.823,1.8027,1.831,1.8471,1.8556,1.8517,1.841,1.831,1.845,1.8419,1.8278,1.8459,1.8419,1.8278,1.8278,1.818,1.8035,0.0,0.0,0.0,0.0,0.0,0.0,0.0,0.0,0.0,0.0,0.0,0.0,0.0,0.0,0.0,0.0,0.0,0.0,2.3518,0.0,0.0,2.5932,2.5926,0.0,0.0,0.0,0.0,0.0,0.0,0.0,0.0,0.0,0.0,2.2574,0.0,0.0,0.0,1.9713,1.9662,1.9815,2.0354,2.0877,2.131,2.1096,2.2098,2.3411,2.1912,2.2806,2.4619,2.4165,2.4063,0.0,0.0,0.0,2.4395,2.4469,2.5064,2.5703,0.0,0.0,0.0,0.0,0.0,0.0,0.0,0.0,0.0,0.0,0.0,0.0,0.0,0.0,0.0,0.0,0.0,0.0,0.0,0.0,0.0,0.0,0.0,0.0,0.0,0.0,0.0,0.0,0.0,0.0,2.0662,1.9761,1.9295,1.939,1.9222,1.9188,1.9259,1.9259,1.9099,1.877,1.8357,1.8143,1.816,1.8155,1.8225,1.833,1.8159,1.8171,1.829,1.8192,1.8147,1.8125,1.8168,1.8185,1.8223,1.8155,1.8143,1.816,0.0,0.0,0.0,0.0,0.0,0.0,0.0,0.0,0.0,0.0,0.0,0.0,0.0,0.0,0.0,2.1923,2.2425,2.2914,2.3296,2.3436,2.4032,2.5174,2.5618,2.6148,0.0,0.0,0.0,0.0,0.0,0.0,0.0,2.4232,2.3735,0.0,0.0,0.0,0.0,0.0,1.9484,1.9468,1.9791,2.0569,2.1401,2.0513,2.1517,2.3184,2.167,2.2417,2.4053,2.3883,2.4164,2.4503,2.4111,0.0,0.0,0.0,2.4568,0.0,2.5552,0.0,0.0,0.0,0.0,0.0,0.0,0.0,0.0,0.0,0.0,0.0,0.0,0.0,0.0,0.0,0.0,0.0,0.0,0.0,0.0,0.0,0.0,0.0,0.0,0.0,0.0,0.0,0.0,1.9717,2.0059,1.9678,1.9464,1.9453,1.9396,1.9246,1.9016,1.9016,1.8825,1.8454,1.8239,1.8181,1.8211,1.8181,1.8185,1.8239,1.8143,1.8164,1.8239,1.8185,1.8151,1.8151,1.8151,1.8172,1.819,1.8181,1.8172,1.8211,0.0,0.0,0.0,0.0,0.0,0.0,0.0,0.0,0.0,0.0,0.0,0.0,0.0,0.0,0.0,0.0,2.158,2.2277,2.2944,2.2991,2.3463,2.4582,2.5023,2.5429,2.5862,0.0,0.0,0.0,0.0,0.0,2.4164,2.4453,2.4144,0.0,2.2765,0.0,0.0,0.0,0.0,0.0,0.0,0.0,0.0,0.0,0.0,0.0,2.1704,2.2365,2.3716,2.3647,2.4077,2.4547,2.402,2.3926,0.0,0.0,0.0,0.0,0.0,0.0,0.0,0.0,0.0,0.0,0.0,0.0,0.0,0.0,0.0,0.0,0.0,0.0,0.0,0.0,0.0,0.0,0.0,0.0,0.0,0.0,0.0,0.0,0.0,0.0,0.0,0.0,0.0,1.9497,1.9497,1.9422,1.9392,1.9369,1.9304,1.9126,1.8807,1.8761,1.8582,1.8286,1.8223,1.8211,1.8211,1.8211,1.8211,1.8211,1.8211,1.8211,1.8211,1.8211,1.8211,1.8211,1.8211,1.8211,1.8211,1.8211,1.8211,1.8211,0.0,0.0,0.0,0.0,0.0,0.0,0.0,0.0,0.0,0.0,0.0,0.0,0.0,1.9848,2.0289,2.0862,2.1404,2.2,2.2677,2.2478,2.3229,2.5181,2.4443,0.0,2.6593,0.0,0.0,0.0,0.0,0.0,2.4011,2.44,2.4092,2.3219,2.33,2.2008,1.9791,0.0,0.0,0.0,0.0,0.0,0.0,0.0,0.0,0.0,0.0,2.2998,2.427,2.3624,2.3411,2.3424,2.3638,2.3764,2.3858,0.0,0.0,0.0,0.0,0.0,0.0,0.0,0.0,0.0,0.0,0.0,0.0,0.0,0.0,0.0,0.0,0.0,0.0,0.0,0.0,0.0,0.0,0.0,0.0,0.0,0.0,0.0,0.0,0.0,0.0,0.0,0.0,1.9226,1.9226,1.9166,1.9092,1.9027,1.8966,1.8887,1.8789,1.8612,1.8513,1.8474,1.8298,1.8211,1.8211,1.8211,1.8211,1.8211,1.8211,1.8211,1.8211,1.8211,1.8211,1.8211,1.8211,1.8211,1.8211,1.8211,1.8211,1.8211,0.0,0.0,0.0,0.0,0.0,0.0,0.0,0.0,0.0,0.0,0.0,0.0,0.0,1.8932,1.9319,1.9409,2.0304,2.1178,2.1869,2.1907,2.2591,2.4087,2.3816,2.4112,2.5085,2.4462,0.0,0.0,0.0,2.3719,2.4057,2.3649,2.3065,2.2367,2.2514,2.1689,2.0187,1.9896,0.0,0.0,0.0,0.0,0.0,0.0,0.0,0.0,0.0,0.0,0.0,2.41,2.429,2.4661,2.3684,2.3167,2.2964,2.325,0.0,0.0,0.0,0.0,0.0,0.0,0.0,0.0,0.0,0.0,0.0,0.0,0.0,0.0,0.0,0.0,0.0,0.0,0.0,0.0,0.0,0.0,0.0,0.0,0.0,0.0,0.0,0.0,0.0,0.0,0.0,0.0,1.9193,1.9184,1.9134,1.9067,1.9049,1.8904,1.8669,1.8478,1.8345,1.831,1.7705,1.7432,1.7432,1.7432,1.7432,1.7458,1.7974,1.8211,1.8168,1.7638,1.7725,1.8159,1.763,1.7742,1.8211,1.8211,1.8211,1.8211,0.0,0.0,0.0,0.0,0.0,0.0,0.0,0.0,0.0,0.0,0.0,0.0,0.0,0.0,1.8835,1.9179,2.0143,2.094,2.143,2.1518,2.2112,2.3375,2.3184,2.3374,2.4121,2.3842,0.0,0.0,0.0,0.0,0.0,2.313,2.2465,2.1898,2.1715,2.1099,0.0,0.0,0.0,1.9839,0.0,0.0,2.1651,0.0,0.0,0.0,0.0,0.0,0.0,0.0,2.429,2.4579,2.3765,0.0,0.0,0.0,0.0,0.0,2.6451,0.0,0.0,0.0,0.0,0.0,0.0,0.0,0.0,0.0,0.0,0.0,0.0,0.0,0.0,0.0,0.0,0.0,0.0,0.0,0.0,0.0,0.0,0.0,0.0,0.0,0.0,0.0,0.0,0.0,1.9061,1.9061,1.9026,1.893,1.8904,1.8789,1.8565,1.8419,1.8336,1.8289,1.7711,1.744,1.744,1.7409,1.7397,1.7432,1.7957,1.8043,1.775,1.7225,1.7173,1.7397,1.7113,1.7328,1.7828,1.8086,1.8215,1.8218,0.0,0.0,0.0,0.0,0.0,0.0,0.0,0.0,0.0,0.0,0.0,0.0,0.0,0.0,0.0,2.0307,2.1032,2.1386,2.1386,2.134,2.189,2.3181,2.2491,2.2668,2.3926,2.325,0.0,0.0,0.0,0.0,0.0,0.0,2.2346,2.1814,2.1022,2.0259,1.9648,0.0,2.1078,2.1506,0.0,2.1176,2.2308,0.0,0.0,0.0,2.3271,2.3606,0.0,2.3606,0.0,0.0,0.0,0.0,0.0,0.0,0.0,0.0,0.0,0.0,0.0,0.0,0.0,0.0,0.0,0.0,0.0,0.0,0.0,0.0,0.0,0.0,0.0,0.0,0.0,0.0,0.0,0.0,0.0,0.0,0.0,0.0,0.0,0.0,0.0,0.0,0.0,1.8797,1.8797,1.8797,1.8742,1.8613,1.8535,1.8513,1.8505,1.8505,1.8505,1.8494,1.8333,1.8275,1.8275,1.8205,1.8168,1.8168,1.8202,1.7754,1.7001,1.6984,1.6562,1.6002,1.67,1.7001,1.713,1.7926,1.826,1.8319,0.0,0.0,0.0,0.0,0.0,0.0,0.0,0.0,0.0,0.0,0.0,0.0,0.0,0.0,0.0,2.1026,2.1156,2.1183,2.1183,2.1159,2.1398,2.1911,2.1918,2.2177,2.2764,2.2763,0.0,0.0,0.0,0.0,0.0,0.0,0.0,0.0,2.0102,1.9647,1.9477,1.9638,0.0,0.0,2.0961,2.1603,0.0,0.0,0.0,0.0,0.0,2.3679,2.4174,0.0,2.3822,2.4272,0.0,0.0,0.0,0.0,0.0,0.0,2.6439,0.0,0.0,0.0,0.0,0.0,0.0,0.0,0.0,0.0,0.0,0.0,0.0,0.0,0.0,0.0,0.0,0.0,0.0,0.0,0.0,0.0,0.0,0.0,0.0,0.0,0.0,0.0,1.9136,1.8797,1.8797,1.8797,1.8788,1.8742,1.8732,1.8658,1.8575,1.8565,1.8554,1.8485,1.7869,1.757,1.757,1.7568,1.7558,1.7584,1.8161,1.796,1.7155,1.6491,1.6398,1.6665,1.6442,1.7009,1.7971,1.8296,1.8434,1.8437,0.0,0.0,0.0,0.0,0.0,0.0,0.0,0.0,0.0,0.0,0.0,0.0,0.0,0.0,0.0,2.0219,2.0501,2.0654,2.0654,2.099,2.1277,2.144,2.1593,2.1845,2.2239,2.2438,0.0,0.0,0.0,0.0,0.0,0.0,0.0,0.0,0.0,0.0,0.0,0.0,0.0,0.0,2.0814,0.0,0.0,2.2782,2.2944,0.0,0.0,0.0,2.3832,2.3284,2.3641,0.0,0.0,0.0,0.0,0.0,0.0,0.0,0.0,0.0,0.0,0.0,0.0,0.0,2.5762,2.6183,2.6478,0.0,0.0,0.0,0.0,0.0,0.0,0.0,0.0,0.0,0.0,0.0,0.0,0.0,0.0,0.0,0.0,2.1249,2.0351,2.0028,1.9261,1.8797,1.8797,1.8797,1.8797,1.8797,1.8797,1.8761,1.8687,1.8687,1.865,1.8629,1.8097,1.7849,1.7849,1.782,1.781,1.7837,1.8311,1.8048,1.7221,1.6376,1.6278,1.6662,1.6613,1.7139,1.7925,1.8342,1.8524,1.8535,0.0,0.0,0.0,0.0,0.0,0.0,0.0,0.0,0.0,0.0,0.0,0.0,0.0,0.0,0.0,0.0,1.954,2.0031,2.0111,2.0836,0.0,2.1432,2.1462,2.1688,2.2144,2.2239,0.0,0.0,0.0,0.0,0.0,0.0,0.0,0.0,0.0,0.0,0.0,0.0,0.0,2.1735,2.0752,2.1604,0.0,0.0,2.2531,2.3086,2.3011,2.3036,2.3061,2.2885,2.3067,0.0,0.0,0.0,0.0,0.0,2.5105,0.0,0.0,0.0,0.0,0.0,0.0,0.0,2.6153,2.6328,2.6533,2.5593,0.0,0.0,0.0,0.0,0.0,0.0,0.0,0.0,0.0,0.0,0.0,0.0,0.0,0.0,2.2638,2.1729,2.0892,2.0191,1.9315,1.8797,1.8797,1.8797,1.8797,1.8797,1.8797,1.8797,1.8797,1.8797,1.8797,1.8797,1.8687,1.8613,1.8613,1.8563,1.8524,1.8524,1.8524,1.8128,1.7416,1.6659,1.6343,1.6378,1.6967,1.7301,1.7539,1.826,1.8573,1.8613,1.5996,0.0,0.0,0.0,0.0,0.0,0.0,0.0,0.0,0.0,0.0,0.0,0.0,0.0,0.0,0.0,0.0,2.0239,2.0854,2.1047,2.1087,2.095,2.1206,2.1518,2.1869,2.2096,0.0,0.0,0.0,0.0,0.0,0.0,0.0,0.0,0.0,0.0,0.0,0.0,0.0,2.3639,2.2493,0.0,2.3658,2.3103,2.2979,2.3086,2.3011,2.2961,2.2936,2.3011,2.3102,2.3218,0.0,0.0,0.0,0.0,0.0,0.0,0.0,0.0,0.0,0.0,0.0,0.0,2.6582,2.6741,2.6533,0.0,0.0,0.0,0.0,0.0,0.0,0.0,0.0,0.0,0.0,0.0,0.0,0.0,0.0,0.0,2.3527,2.2111,2.1126,2.0992,1.9619,1.8797,1.8797,1.8797,1.8797,1.8797,1.8797,1.8797,1.8797,1.8797,1.8797,1.8797,1.8761,1.8761,1.8761,1.8751,1.8732,1.8732,1.8732,1.8662,1.8457,1.7648,1.7232,1.7037,1.665,1.7241,1.8382,1.8643,1.8751,1.8742,1.5754,0.0,0.0,0.0,0.0,0.0,0.0,0.0,0.0,0.0,0.0,0.0,0.0,0.0,0.0,0.0,0.0,0.0,0.0,0.0,2.0998,2.0794,2.0958,2.1463,2.2341,2.2124,0.0,0.0,0.0,0.0,0.0,0.0,0.0,0.0,0.0,0.0,0.0,0.0,2.3125,2.4128,2.2637,0.0,2.4219,2.3123,2.2864,2.3095,2.2995,2.2893,2.2868,2.3345,2.3317,0.0,0.0,2.4051,2.4145,0.0,2.4663,2.4978,0.0,0.0,0.0,2.6129,0.0,0.0,0.0,2.6588,2.6593,2.5687,0.0,0.0,0.0,0.0,0.0,0.0,0.0,0.0,0.0,0.0,0.0,0.0,0.0,0.0,2.3421,2.226,2.1361,2.1064,2.0276,1.969,1.9468,1.945,1.9244,1.8806,1.8797,1.8797,1.8797,1.8797,1.8797,1.8797,1.8797,1.8797,1.8797,1.8797,1.8797,1.8797,1.8797,1.8797,1.8734,1.7923,1.7772,1.7976,1.7231,1.7666,1.8715,1.8769,1.8797,1.8797,1.5507,0.0,0.0,0.0,0.0,0.0,0.0,0.0,0.0,0.0,0.0,0.0,0.0,0.0,0.0,0.0,0.0,0.0,0.0,0.0,0.0,2.1008,2.1134,2.1705,2.277,2.2388,0.0,0.0,0.0,0.0,0.0,0.0,0.0,0.0,0.0,0.0,0.0,0.0,0.0,2.4763,0.0,2.3126,2.457,2.3079,2.276,2.3119,2.2936,2.2808,2.2807,2.3456,2.3389,2.315,2.3771,2.3959,0.0,0.0,0.0,0.0,0.0,0.0,0.0,0.0,0.0,2.7288,0.0,0.0,0.0,2.5766,0.0,0.0,0.0,0.0,0.0,0.0,0.0,0.0,0.0,0.0,0.0,0.0,0.0,0.0,0.0,2.2262,2.1505,2.0868,2.0806,2.0636,2.0271,2.015,1.9774,1.9056,1.8886,1.8806,1.8797,1.8797,1.8797,1.8797,1.8797,1.8797,1.8797,1.8797,1.8797,1.8797,1.8797,1.8797,1.8734,1.7923,1.8048,1.8671,1.7905,1.8066,1.8732,1.8732,1.8705,1.8658,1.5225,1.558,0.0,0.0,0.0,0.0,0.0,0.0,0.0,0.0,0.0,0.0,0.0,0.0,0.0,0.0,0.0,0.0,2.0815,0.0,0.0,0.0,2.2327,2.2585,2.237,2.3235,2.3929,0.0,0.0,0.0,0.0,0.0,0.0,0.0,2.114,0.0,0.0,0.0,2.4608,0.0,2.4763,2.3886,0.0,2.3495,2.3289,2.3241,2.291,2.2756,2.272,0.0,2.2807,2.2799,0.0,2.3221,2.3339,0.0,0.0,0.0,0.0,0.0,0.0,0.0,2.5957,0.0,0.0,0.0,2.6562,2.5693,0.0,0.0,0.0,0.0,0.0,0.0,0.0,0.0,0.0,0.0,0.0,0.0,0.0,0.0,0.0,2.2244,2.1396,2.0599,2.0696,2.078,2.0714,2.0334,2.0036,1.9868,1.9218,1.8851,1.8797,1.8797,1.8797,1.8797,1.8797,1.8797,1.8797,1.8797,1.8797,1.8797,1.8797,1.8797,1.8734,1.7923,1.7977,1.8473,1.7844,1.7986,1.8524,1.8524,1.8379,1.8161,1.4918,1.5165,0.0,0.0,0.0,0.0,0.0,0.0,0.0,0.0,0.0,0.0,0.0,0.0,0.0,0.0,0.0,2.0496,0.0,0.0,0.0,0.0,0.0,0.0,0.0,2.3582,2.4298,0.0,2.4661,0.0,0.0,0.0,0.0,0.0,2.2717,0.0,2.462,0.0,2.4944,0.0,0.0,0.0,0.0,2.3594,2.3327,2.2996,2.1917,2.2054,2.2764,0.0,2.2712,0.0,0.0,0.0,0.0,0.0,0.0,0.0,0.0,0.0,0.0,0.0,0.0,0.0,2.587,0.0,2.5936,0.0,0.0,0.0,0.0,0.0,0.0,0.0,2.4771,0.0,0.0,0.0,0.0,0.0,0.0,0.0,0.0,0.0,0.0,0.0,2.2089,2.1965,2.1855,2.1664,2.1081,2.0089,1.9758,1.9354,1.8851,1.8851,1.8833,1.8797,1.8797,1.8797,1.8797,1.8797,1.8797,1.8797,1.8797,1.8797,1.8761,1.844,1.8449,1.8641,1.8277,1.8169,1.829,1.8437,1.8339,1.809,1.4764,0.0,0.0,0.0,0.0,0.0,0.0,0.0,0.0,0.0,0.0,0.0,1.9108,1.9628,0.0,0.0,2.0376,2.0982,0.0,0.0,2.2326,0.0,0.0,0.0,0.0,0.0,2.4756,0.0,0.0,0.0,0.0,0.0,0.0,0.0,0.0,2.4224,2.4959,0.0,0.0,2.5651,2.4397,2.3698,2.3395,2.3187,2.2811,2.2235,2.1281,2.1633,2.2539,2.2686,2.2756,0.0,2.3449,0.0,0.0,0.0,0.0,0.0,2.4192,0.0,0.0,0.0,0.0,0.0,0.0,0.0,0.0,0.0,0.0,0.0,0.0,0.0,0.0,0.0,0.0,0.0,0.0,0.0,0.0,0.0,0.0,0.0,0.0,0.0,0.0,2.3676,2.3219,2.2873,2.2812,2.27,2.1942,2.0488,2.0227,1.9731,1.8905,1.8896,1.8878,1.8797,1.8797,1.8797,1.8797,1.8797,1.8797,1.8797,1.8797,1.8797,1.8797,1.8797,1.8769,1.8705,1.8552,1.8299,1.8027,1.8012,1.7973,1.7885,1.4903,1.4987,0.0,0.0,0.0,0.0,0.0,0.0,0.0,0.0,0.0,0.0,0.0,0.0,0.0,0.0,0.0,2.0787,2.0999,0.0,2.2873,0.0,0.0,2.417,0.0,0.0,0.0,0.0,0.0,0.0,0.0,0.0,0.0,0.0,0.0,2.3548,2.4847,2.3858,2.4679,2.6503,2.4636,2.3208,2.2158,0.0,2.1564,2.0861,2.1516,0.0,0.0,2.2641,2.2885,0.0,0.0,0.0,0.0,0.0,0.0,0.0,0.0,0.0,0.0,2.4399,0.0,0.0,0.0,0.0,2.6285,0.0,0.0,0.0,0.0,0.0,0.0,0.0,0.0,0.0,0.0,0.0,0.0,0.0,0.0,0.0,0.0,0.0,0.0,2.425,2.3428,2.303,2.3359,2.2944,2.2251,2.1288,2.056,1.9777,1.8905,1.8896,1.8878,1.8797,1.8797,1.8797,1.8797,1.8797,1.8797,1.8797,1.8797,1.8797,1.8797,1.8797,1.8695,1.8513,1.8505,1.8213,1.7718,1.7012,1.7084,1.7323,0.0,0.0,0.0,0.0,0.0,0.0,0.0,1.9946,0.0,0.0,0.0,0.0,0.0,2.0703,2.0591,0.0,0.0,2.0442,2.0961,2.204,0.0,0.0,0.0,2.4406,0.0,0.0,0.0,0.0,0.0,0.0,0.0,0.0,0.0,0.0,0.0,2.4391,0.0,0.0,0.0,0.0,0.0,2.4561,2.3088,0.0,0.0,2.066,2.0388,2.0973,0.0,2.2108,2.251,2.291,2.2936,2.2944,2.2961,2.3256,2.3336,0.0,0.0,0.0,2.3932,2.4192,0.0,0.0,0.0,0.0,0.0,0.0,0.0,0.0,0.0,0.0,0.0,0.0,0.0,0.0,0.0,0.0,0.0,0.0,0.0,0.0,0.0,0.0,0.0,2.3916,2.307,2.2825,2.3619,2.3518,2.306,2.2242,2.1466,2.0616,1.9695,1.9165,1.8878,1.8797,1.8797,1.8797,1.8797,1.8797,1.8797,1.8797,1.8797,1.8797,1.8797,1.8797,1.8751,1.8667,1.8351,1.8137,1.7954,1.7581,1.7451,1.7432,1.6143,0.0,0.0,0.0,0.0,0.0,0.0,0.0,0.0,0.0,2.1561,0.0,2.0931,0.0,2.0618,0.0,2.0374,2.072,2.0776,2.1769,0.0,2.1916,2.3445,0.0,0.0,0.0,0.0,0.0,0.0,2.5481,0.0,0.0,0.0,0.0,0.0,0.0,2.6009,0.0,2.6342,0.0,0.0,2.5383,0.0,0.0,2.2264,2.0758,0.0,2.0814,2.1984,2.2199,2.2585,2.2986,2.3011,2.302,2.3011,2.3241,2.3256,2.328,2.3468,2.3567,0.0,2.3916,2.4043,0.0,2.4454,0.0,0.0,0.0,0.0,0.0,0.0,0.0,0.0,0.0,0.0,0.0,0.0,2.5015,0.0,0.0,0.0,0.0,0.0,0.0,2.3768,2.4278,2.3579,2.3312,0.0,0.0,2.346,2.2727,2.193,2.106,2.0146,1.9309,1.8878,1.8833,1.8815,1.8797,1.8797,1.8797,1.8797,1.8797,1.8797,1.8797,1.8797,1.8797,1.8797,1.8742,1.8293,1.809,1.8043,1.7498,1.7062,1.6793,0.0,0.0,0.0,0.0,1.9375,0.0,0.0,0.0,2.2321,0.0,2.1694,2.1338,2.0514,2.0755,2.0389,1.8812,2.0587,2.1329,2.0302,2.1561,0.0,0.0,2.2439,2.2341,2.0827,0.0,0.0,0.0,0.0,0.0,0.0,0.0,0.0,0.0,2.3803,0.0,2.4497,2.5336,2.609,2.6765,2.7548,2.5703,2.2697,2.4511,2.3536,2.1179,2.0956,2.136,2.2101,2.2856,2.3086,2.3086,2.3086,2.3086,2.3086,2.3086,2.3086,2.3135,2.3336,2.3392,2.3421,2.3571,0.0,0.0,0.0,0.0,2.4589,0.0,0.0,0.0,0.0,0.0,0.0,0.0,0.0,0.0,0.0,0.0,0.0,0.0,0.0,0.0,0.0,2.5614,2.5555,2.5258,2.4834,0.0,0.0,0.0,2.3535,2.2801,2.1995,2.116,2.0273,1.9416,1.8949,1.8896,1.8833,1.8806,1.8797,1.8797,1.8797,1.8797,1.8797,1.8797,1.8797,1.8797,1.8797,1.8742,1.8293,1.812,1.7941,1.6864,1.6005,1.5607,1.7459,1.8186,1.8534,0.0,1.9726,2.1073,0.0,0.0,0.0,0.0,2.1657,2.0816,2.0585,2.0133,1.9474,1.857,1.8581,0.0,0.0,0.0,0.0,1.9893,2.2352,2.3198,2.2044,2.368,0.0,2.4033,0.0,0.0,2.5229,0.0,0.0,0.0,0.0,0.0,2.5006,2.5454,2.6586,2.8118,2.8535,2.7287,0.0,0.0,2.4272,2.2858,2.2096,2.1905,2.2101,2.2856,2.3086,2.3086,2.3086,2.3086,2.3086,2.3086,2.3086,2.3111,2.316,2.3168,2.3223,2.3463,2.354,2.3589,0.0,0.0,0.0,0.0,0.0,0.0,0.0,0.0,0.0,0.0,0.0,0.0,0.0,0.0,0.0,2.5009,0.0,0.0,2.445,2.4109,2.4017,2.4392,2.4292,0.0,0.0,0.0,0.0,2.398,2.3175,2.2304,2.1324,2.0511,1.9691,1.8896,1.8869,1.8851,1.8797,1.8797,1.8797,1.8797,1.8797,1.8797,1.8797,1.8797,1.8797,1.8769,1.8496,1.8175,1.7813,1.739,1.71,1.7001,1.8027,0.0,0.0,2.0206,0.0,0.0,2.1866,0.0,0.0,2.2566,2.1861,0.0,2.0412,1.9664,1.8726,1.753,1.8081,0.0,1.8052,0.0,0.0,2.0361,2.1843,2.2326,2.1525,2.2885,0.0,2.3168,0.0,0.0,2.4421,0.0,0.0,0.0,0.0,2.3244,0.0,2.5879,2.6431,2.6961,2.8282,0.0,0.0,2.5631,2.4899,2.3481,2.2998,2.2673,2.254,2.297,2.3086,2.3086,2.3086,2.3086,2.3086,2.3086,2.3086,2.3086,2.3086,2.3086,2.3135,2.3295,2.3304,2.3327,2.3567,2.383,2.4071,0.0,0.0,0.0,0.0,0.0,0.0,0.0,0.0,0.0,0.0,0.0,0.0,0.0,2.4627,0.0,2.4444,2.3701,2.3663,2.479,2.4801,0.0,0.0,0.0,0.0,2.4417,2.3531,2.2667,2.1832,2.0914,1.9984,1.9036,1.9001,1.8914,1.8797,1.8797,1.8797,1.8797,1.8797,1.8797,1.8797,1.8797,1.8797,1.8769,1.8448,1.8057,1.7654,1.7545,1.7506,1.7506,0.0,0.0,0.0,0.0,0.0,0.0,0.0,2.1751,0.0,2.1847,0.0,2.1147,1.9781,1.9144,1.8117,1.641,0.0,1.9118,1.8544,1.9406,2.0369,2.1319,2.1153,2.0782,2.0308,2.1739,0.0,0.0,0.0,0.0,0.0,0.0,0.0,0.0,0.0,0.0,0.0,2.6303,2.6009,2.4926,2.7403,2.6459,2.3773,2.5753,2.5269,2.3566,2.3619,2.3422,2.3135,2.3086,2.3086,2.3086,2.3086,2.3086,2.3086,2.3086,2.3086,2.3086,2.3086,2.3086,2.3086,2.3086,2.3086,2.316,2.338,2.3633,2.3871,2.4146,2.4428,2.4697,0.0,0.0,0.0,0.0,0.0,0.0,0.0,0.0,0.0,0.0,0.0,0.0,2.4951,2.4035,2.4142,0.0,0.0,0.0,0.0,0.0,0.0,2.4512,2.3625,0.0,2.2015,0.0,2.0149,1.9209,1.9141,1.9034,1.8843,1.8824,1.8833,1.8833,1.8815,1.8797,1.8797,1.8797,1.8797,1.8742,1.8293,1.7888,1.7584,1.753,1.7506,1.753,0.0,0.0,0.0,0.0,0.0,2.0207,1.9369,1.9526,1.9886,2.0226,1.9075,1.813,1.7792,1.7815,1.7476,1.6616,1.7199,0.0,0.0,0.0,0.0,1.952,2.0477,2.0952,2.0876,2.1926,2.2524,0.0,0.0,0.0,0.0,0.0,0.0,0.0,0.0,0.0,2.4445,2.5874,0.0,2.5385,2.6728,2.6126,2.445,2.5134,2.4726,2.3846,2.3917,2.3673,2.3313,2.3086,2.3061,2.3086,2.3086,2.3086,2.3086,2.3086,2.3086,2.3086,2.3086,2.3086,2.3086,2.3086,2.3086,2.3111,2.316,2.3499,2.3756,2.3669,2.3983,2.4346,2.4554,0.0,0.0,0.0,0.0,0.0,0.0,0.0,0.0,0.0,0.0,2.4538,0.0,0.0,0.0,0.0,0.0,0.0,0.0,0.0,0.0,0.0,2.471,0.0,0.0,0.0,2.0945,1.9276,1.9266,1.9219,1.9128,1.901,1.8958,1.8958,1.8843,1.8797,1.8797,1.8797,1.8797,1.8742,1.8293,1.8056,1.7958,1.7614,1.7616,1.7729,0.0,0.0,0.0,0.0,0.0,0.0,0.0,1.8435,0.0,1.9134,1.8613,1.8105,1.79,1.7768,1.7493,1.6957,1.7413,1.7729,1.7729,1.8317,1.8956,1.9587,2.0204,0.0,2.0988,2.1467,2.2061,2.2716,0.0,0.0,0.0,0.0,0.0,0.0,0.0,2.335,0.0,0.0,0.0,2.4138,2.5754,2.5399,2.4072,2.4923,2.4759,2.4045,2.3937,2.3792,2.3607,2.328,2.3086,2.2986,2.3045,2.3036,2.3061,2.3086,2.3086,2.3086,2.3086,2.3086,2.3086,2.3086,2.3086,2.3086,2.3086,2.3371,2.3611,2.3513,2.3795,2.4116,2.4344,2.4665,0.0,0.0,0.0,0.0,0.0,0.0,0.0,0.0,0.0,0.0,0.0,0.0,0.0,0.0,0.0,0.0,0.0,0.0,0.0,0.0,0.0,0.0,0.0,0.0,0.0,1.9402,1.9402,1.9326,1.9193,1.9128,1.9061,1.8993,1.8923,1.8861,1.8797,1.8797,1.8732,1.861,1.8252,1.809,1.8048,1.7758,1.7878,1.8108,0.0,2.0396,0.0,0.0,1.9844,0.0,1.8291,1.7741,1.7672,1.8212,1.8304,1.8265,1.8047,1.787,1.7684,1.7343,1.7977,1.8361,1.8317,1.868,1.9203,1.9856,1.9892,2.0052,2.0393,2.0669,2.12,0.0,0.0,0.0,0.0,0.0,0.0,0.0,0.0,0.0,0.0,0.0,2.3466,2.2867,2.49,2.478,2.3508,2.4638,2.4692,2.417,2.3967,2.3887,2.3825,2.3463,2.3199,2.302,2.3061,2.307,2.3036,2.3086,2.3086,2.3086,2.3086,2.3086,2.3086,2.3086,2.3086,2.3086,2.3086,2.3319,2.3495,2.3458,2.3685,2.3979,2.4192,2.4491,0.0,0.0,0.0,0.0,0.0,0.0,0.0,0.0,0.0,0.0,2.5522,0.0,0.0,0.0,0.0,0.0,0.0,0.0,0.0,0.0,0.0,2.4048,2.2648,0.0,2.1226,0.0,1.9518,1.944,1.9273,1.9266,1.9177,1.9044,1.901,1.8923,1.8797,1.8797,1.8714,1.8524,1.8211,1.809,1.8078,1.7816,1.8009,1.8296,0.0,0.0,0.0,0.0,0.0,0.0,1.7791,1.716,1.6815,1.7106,1.6803,1.6604,1.6754,1.7405,1.779,1.7733,1.8534,1.8939,1.8743,1.8447,1.8564,1.9166,1.9188,1.8963,1.8477,1.9595,2.0045,0.0,0.0,0.0,0.0,0.0,0.0,0.0,0.0,0.0,0.0,2.4185,2.3964,2.2841,2.4619,2.4563,2.3446,2.3804,2.4051,2.4199,2.417,2.4016,2.3774,2.3553,2.3422,2.336,2.336,2.3241,2.3086,2.3086,2.3086,2.3086,2.3086,2.3086,2.3086,2.3086,2.3086,2.3086,2.3086,2.3319,2.3458,2.3351,2.3629,2.3939,2.4015,2.4192,2.4498,0.0,0.0,0.0,0.0,0.0,0.0,0.0,0.0,0.0,0.0,2.559,0.0,0.0,0.0,0.0,0.0,0.0,0.0,2.6184,0.0,2.4331,2.3408,2.2519,2.1264,1.9592,1.9592,1.9578,1.9564,1.9444,1.9314,1.9177,1.9061,1.8923,1.8797,1.8797,1.8797,1.8732,1.8273,1.809,1.8048,1.766,1.7669,1.7892,0.0,0.0,0.0,0.0,0.0,0.0,0.0,1.6697,1.6704,1.7217,1.6948,1.6837,1.7153,1.7826,1.8321,1.8569,1.8911,1.9064,1.8981,1.8832,1.8854,1.9094,1.9101,1.9181,1.9341,1.9449,1.9863,0.0,0.0,0.0,0.0,0.0,0.0,0.0,0.0,2.3229,2.3338,2.351,2.3245,2.279,2.3775,2.386,2.3446,2.3876,2.4103,2.419,2.4209,2.4125,2.4039,2.399,2.3744,2.3445,2.3403,2.3333,2.3286,2.3342,2.3232,2.2989,2.2566,2.2768,2.29,2.2039,2.2196,2.2546,2.2503,2.2678,2.2936,2.323,2.3558,2.378,2.3807,2.4146,2.4458,0.0,0.0,0.0,0.0,0.0,0.0,0.0,0.0,0.0,0.0,0.0,0.0,0.0,0.0,0.0,0.0,0.0,0.0,2.7019,0.0,2.4436,2.3452,2.2546,2.1255,1.9592,1.9592,1.9592,1.9592,1.9541,1.9405,1.9193,1.9061,1.8923,1.8797,1.8797,1.8797,1.8769,1.8467,1.8339,1.8319,1.815,1.815,1.8255,1.572,0.0,1.6406,0.0,1.5947,1.6078,1.5957,1.6061,1.6386,1.7018,1.7049,1.7192,1.7723,1.8205,1.8627,1.892,1.9026,1.9064,1.9019,1.9064,1.9101,1.9101,1.9101,0.0,1.9529,1.9254,1.9438,2.0178,2.0863,0.0,0.0,0.0,0.0,0.0,2.3653,2.3354,2.3288,2.3106,2.2883,2.2747,2.3466,2.3606,2.3468,2.3996,2.4199,2.419,2.42,2.4201,2.4192,2.421,2.3999,2.3756,2.3633,2.3576,2.3531,2.3567,2.328,2.2849,2.2322,2.2343,2.2288,2.1324,2.1494,2.193,2.2127,2.2294,2.2616,2.3284,2.3571,2.3725,2.3725,2.4088,2.4381,2.4365,0.0,0.0,0.0,0.0,0.0,0.0,2.545,2.559,2.5572,2.5652,0.0,0.0,0.0,0.0,0.0,0.0,0.0,0.0,0.0,0.0,0.0,2.2566,2.1283,1.9592,1.9592,1.9592,1.9592,1.9564,1.9414,1.9193,1.9061,1.8923,1.8797,1.8797,1.8778,1.8695,1.8552,1.8456,1.8388,1.8388,1.8388,1.8408,1.3419,1.3932,1.4237,1.3891,1.4328,1.4828,1.5051,1.5271,1.5623,1.615,1.6674,1.7284,1.8102,1.8393,1.8517,1.8517,1.8882,1.9019,1.8822,1.8981,1.9101,0.0,0.0,1.8825,1.8245,1.8804,1.8491,1.725,0.0,0.0,2.0469,0.0,2.3119,2.3107,2.2752,2.2427,2.2175,2.3305,2.3357,2.2798,2.4076,2.4114,2.3468,2.3996,2.4199,2.4199,2.4199,2.4209,2.4173,2.4056,2.419,2.4349,2.4152,2.3955,2.3795,2.3795,2.3222,2.2598,2.2593,2.1862,2.1161,2.1276,2.12,2.1316,2.2121,2.2398,2.2737,2.3538,2.3759,2.3795,2.3795,2.3967,2.4182,2.4456,0.0,0.0,0.0,0.0,0.0,0.0,2.5395,2.5564,2.551,0.0,0.0,0.0,0.0,0.0,0.0,0.0,0.0,2.6609,2.5562,0.0,2.3609,2.267,2.133,1.9592,1.9592,1.9592,1.9602,1.9459,1.9329,1.9193,1.9061,1.8923,1.8797,1.8797,1.8686,1.8505,1.8513,1.8339,1.8111,1.8111,1.8111,1.814,1.2415,1.3085,1.3556,1.35,1.3756,1.4193,1.4625,1.4983,1.5383,1.5844,1.6723,1.7288,1.7386,1.7935,1.8361,0.0,1.8627,1.8728,0.0,1.886,1.8943,1.9101,1.9101,1.9014,1.8825,1.86,1.8499,1.8499,0.0,0.0,0.0,2.2532,2.2819,2.3275,2.29,2.2518,2.2217,2.2801,2.2901,2.2747,2.3483,2.3624,2.3468,2.3996,2.4199,2.419,2.42,2.4201,2.4192,2.4201,2.4257,2.4321,2.4312,2.4172,2.401,2.4067,2.3376,2.2495,2.1998,2.1614,2.1132,2.0178,2.0767,2.1634,2.1844,2.2705,2.3556,2.389,2.4027,2.4097,2.4192,2.4363,2.455,2.4626,2.4712,0.0,0.0,0.0,0.0,0.0,2.4467,2.4662,0.0,2.5298,0.0,0.0,0.0,0.0,0.0,0.0,0.0,0.0,2.5834,0.0,2.3545,2.2651,2.133,1.9592,1.9592,1.9592,1.9592,1.9564,1.9405,1.9193,1.9152,1.901,1.8797,1.8797,1.8769,1.8695,1.8552,1.8339,1.8111,1.8319,1.8261,1.8161,1.1573,1.2162,1.2578,1.2823,1.301,1.3313,1.3931,1.4294,1.4703,1.5215,1.6064,1.6595,1.6484,1.7131,0.0,1.8361,1.8478,1.8549,1.8683,1.8683,1.876,1.8882,1.895,1.8981,1.8981,0.0,0.0,1.8767,1.9207,2.037,2.2162,2.1888,2.2152,2.2828,2.2547,2.2285,2.2076,2.2526,2.2712,2.2729,2.314,2.3341,2.3446,2.3887,2.4113,2.419,2.4209,2.4201,2.421,2.4284,2.4321,2.4339,2.443,2.4348,2.4266,2.4302,2.3409,2.2308,2.1881,2.1464,2.0946,2.008,2.0865,2.1918,2.2234,2.3189,2.4057,2.4182,2.4275,2.4346,2.4414,2.4579,2.4697,2.4697,2.4799,2.4888,2.4842,0.0,0.0,0.0,0.0,0.0,0.0,2.5287,2.5658,0.0,0.0,0.0,0.0,0.0,0.0,2.6779,2.5731,0.0,2.3139,2.2582,2.1407,1.9592,1.9592,1.9592,1.9592,1.9592,1.9474,1.9273,1.9226,1.9078,1.8878,1.8824,1.876,1.8676,1.8582,1.8419,1.8261,1.8467,1.8459,1.8402,1.0812,1.1079,0.0,0.0,1.2022,0.0,1.3025,1.3415,1.38,1.4326,1.4954,1.5394,1.5591,1.6163,1.6941,1.8029,0.0,0.0,0.0,1.8478,1.8478,1.8478,1.8644,1.8784,1.8784,1.8981,1.8825,1.8267,1.8825,1.9442,2.0071,2.0613,2.1216,2.1887,2.1814,2.1789,2.1848,2.2453,2.2712,2.2703,2.2995,2.3236,2.3446,2.3714,2.3967,2.4218,2.4218,2.4209,2.422,2.4284,2.4339,2.4403,2.4465,2.45,2.449,2.4504,2.3409,2.2208,2.2271,2.1524,2.075,2.0872,2.1457,2.2244,2.3159,2.3802,2.4257,2.4399,2.4482,2.4522,2.4538,2.4651,2.4727,2.4727,2.4837,2.4915,2.4915,0.0,0.0,0.0,0.0,0.0,0.0,2.5492,2.5603,0.0,0.0,0.0,0.0,0.0,2.7136,2.5453,2.5332,2.4396,2.2526,2.2495,2.1529,1.9592,1.9592,1.9592,1.9592,1.9592,1.9526,1.939,1.9257,1.9102,1.8975,1.8843,1.8676,1.8505,1.8545,1.8526,1.8485,1.8556,1.8641,1.8769,0.0,0.0,1.0371,1.0592,1.1451,1.221,1.2521,1.3283,1.3967,1.4373,1.5192,1.5808,1.5894,1.6429,1.6941,1.7256,1.7673,1.7794,1.7612,1.8016,1.8307,1.8365,1.8333,1.8496,1.8784,1.886,1.8878,1.8891,1.9036,1.9671,2.0748,2.0377,2.0778,2.1813,2.1851,2.184,2.1848,2.2508,2.2738,2.2738,2.3036,2.3292,2.3513,2.3816,2.4095,2.4284,2.4284,2.4275,2.4284,2.4284,2.4312,2.4339,2.4403,2.4465,2.449,2.4504,2.3838,2.3104,2.3107,2.2523,2.1906,2.1943,2.2469,2.3187,2.4029,2.4295,2.4399,2.4533,2.4657,2.4776,2.4926,2.5038,2.5079,2.5079,2.5113,2.5101,2.506,2.455,0.0,0.0,2.4359,2.4451,2.4549,2.5192,2.5603,0.0,0.0,0.0,0.0,2.6539,2.6565,2.5437,2.5331,2.4417,2.259,2.2532,2.1529,1.9592,1.9592,1.9592,1.9592,1.9592,1.9526,1.939,1.9157,1.8973,1.8825,1.865,1.8552,1.8485,1.8293,1.8203,1.8211,1.833,1.8322,1.8322,0.8299,0.8879,0.9399,0.9862,1.0482,1.1187,1.1918,1.2589,1.3231,1.3789,1.4411,1.496,1.5226,1.5617,1.6008,1.6312,1.697,1.731,1.7256,1.7509,1.772,1.7794,1.7848,1.8095,1.8528,1.8637,1.886,1.9221,1.9221,1.9686,2.0599,2.0264,2.0532,2.1321,2.158,2.1773,2.1869,2.2453,2.2738,2.2808,2.297,2.3157,2.3422,2.3544,2.3834,2.4153,2.4125,2.4191,2.4303,2.4339,2.4349,2.4367,2.442,2.4465,2.449,2.4504,2.3987,2.3403,2.3397,2.3109,2.2904,2.3294,2.3631,2.398,2.4484,2.4559,2.4572,2.4706,2.4874,2.5022,2.5129,2.5187,2.5201,2.5201,2.5201,2.5189,2.5154,2.4765,0.0,2.4591,2.4647,2.4733,2.4833,2.5299,2.5597,2.5598,0.0,0.0,2.5673,2.6032,2.5995,2.5459,2.535,2.4427,2.2621,2.1677,2.0668,1.9592,1.9592,1.9592,1.9592,1.9592,1.9493,1.9292,1.909,1.8912,1.8734,1.8573,1.8494,1.8485,1.8261,1.824,1.8281,1.829,1.829,1.831,0.727,0.7762,0.8302,0.8974,0.918,0.9684,1.0944,1.1499,1.2096,1.2953,1.3362,1.3805,1.4326,1.4536,1.4892,1.554,1.625,1.6778,1.7031,1.7047,1.7083,1.7157,1.7393,1.7727,1.8149,1.8404,1.8822,1.9339,1.9339,1.9581,2.0065,2.0185,2.0399,2.0777,2.1276,2.1675,2.192,2.2426,2.2712,2.2859,2.2842,2.3028,2.3313,2.3247,2.3553,2.4036,2.4018,2.4154,2.4348,2.442,2.442,2.4438,2.45,2.4517,2.4524,2.4513,2.4071,2.3581,2.3584,2.3599,2.3764,2.4523,2.4603,2.4528,2.4667,2.4695,2.4741,2.4865,2.5057,2.5201,2.5201,2.5201,2.5163,2.5029,2.5105,2.5143,2.5019,0.0,2.5227,2.5312,2.5369,2.5429,2.5511,2.5571,2.56,2.5611,2.5672,2.5702,2.5699,2.5642,2.5576,2.5498,2.5386,2.4437,2.2601,2.0675,1.9675,1.9592,1.9592,1.9592,1.9583,1.9546,1.9416,1.9187,1.9005,1.8825,1.8669,1.8515,1.8454,1.8434,1.8328,1.8357,1.8434,1.8339,1.8377,1.8454,0.5987,0.6357,0.6566,0.672,0.729,0.8016,0.886,0.9976,1.1143,1.2371,1.315,1.38,1.4258,1.4346,1.4663,1.5389,1.5484,1.5768,1.6318,1.6915,1.716,1.6879,1.7421,1.7834,1.8042,1.8514,1.8867,1.9139,1.9139,1.9384,1.9866,1.9866,2.0269,2.0975,2.1407,2.1688,2.1949,2.2526,2.2712,2.2667,2.2885,2.3151,2.3403,2.3685,2.3948,2.4192,2.4418,2.4523,2.4566,2.4566,2.4566,2.4566,2.4582,2.4573,2.4573,2.4589,2.4505,2.4437,2.4479,2.4492,2.4532,2.4679,2.4603,2.4528,2.4667,2.4695,2.4741,2.4865,2.5057,2.5201,2.5201,2.5201,2.4962,2.4224,2.4715,2.4937,2.4205,0.0,2.5244,2.5374,2.5392,2.5449,2.5572,2.5586,2.5619,2.5683,2.5693,2.5702,2.5699,2.5642,2.5566,2.5502,2.5418,2.4456,2.2528,2.0636,1.9675,1.9592,1.9592,1.956,1.9518,1.9344,1.9236,1.9184,1.8762,1.8569,1.8529,1.8342,1.8244,1.8236,1.8215,1.8223,1.8256,1.8287,1.8284,1.8277,0.4158,0.4761,0.5311,0.5469,0.6065,0.6814,0.7588,0.8201,0.8961,0.998,1.178,1.3123,1.3614,1.5,1.6151,1.6802,1.6213,1.6058,1.6752,1.6795,1.6752,1.6637,1.7186,1.7794,1.8429,1.8997,1.9384,1.9589,1.9589,1.9697,1.9897,2.025,2.0548,2.0812,2.1415,2.1815,2.2019,2.2426,2.2685,2.2893,2.2961,2.3126,2.3351,2.344,2.3611,2.3846,2.3972,2.4117,2.4293,2.4437,2.4481,2.4498,2.4582,2.4599,2.4615,2.4641,2.4641,2.4666,2.4691,2.4704,2.4707,2.4707,2.4651,2.4626,2.4729,2.4784,2.4847,2.498,2.511,2.5201,2.5201,2.5201,2.5067,2.4667,2.4948,0.0,0.0,2.4941,2.5255,2.5376,2.5403,2.5454,2.5593,2.563,2.5673,2.5703,2.5701,2.5696,2.5703,2.5194,2.4894,2.4849,2.43,2.3332,2.1918,2.0501,1.9757,1.9658,1.9615,1.9508,1.9335,1.924,1.9055,1.8807,1.8587,1.8432,1.8336,1.8236,1.8211,1.8211,1.8211,1.8211,1.8202,1.8239,1.8227,1.8202,0.2276,0.3052,0.3718,0.3984,0.4489,0.5146,0.592,0.6119,0.6534,0.7591,0.9657,1.1308,1.1903,1.4449,1.6398,1.6952,1.6699,1.6812,1.7504,1.7111,1.6752,1.6479,1.7025,1.7794,1.8784,1.9354,1.9733,1.9927,1.9927,1.9962,1.9998,2.0538,2.0795,2.0828,2.1524,2.1949,2.2169,2.236,2.2685,2.3036,2.3036,2.316,2.3336,2.3295,2.3417,2.3598,2.3662,2.386,2.4144,2.4348,2.4446,2.4515,2.4582,2.4622,2.4654,2.4666,2.4698,2.4729,2.4698,2.4695,2.4707,2.4707,2.4713,2.4738,2.4789,2.4879,2.498,2.5079,2.5154,2.5201,2.5201,2.5191,2.5069,2.468,0.0,0.0,0.0,2.4533,2.4696,2.4805,2.4836,2.4966,2.5293,2.5177,2.5185,2.5379,2.5214,2.5096,2.5066,2.4385,2.3902,2.3681,2.2888,2.2125,2.1378,2.0356,1.9807,1.9698,1.962,1.944,1.9178,1.913,1.8877,1.8491,1.8452,1.8328,1.8211,1.8211,1.8211,1.8211,1.8211,1.8211,1.8211,1.8211,1.8211,1.8211,0.0668,0.1003,0.134,0.1395,0.1788,0.2341,0.3103,0.3453,0.4298,0.6047,0.6775,0.7477,0.8449,1.109,1.2996,1.3597,1.5933,1.7678,1.8295,1.8295,1.7706,1.6479,1.7221,1.8028,1.8784,1.9221,1.9516,1.9726,1.9726,1.9805,2.0005,2.0361,2.0812,2.1355,2.1743,2.2081,2.2377,2.2533,2.2712,2.2944,2.3036,2.3241,2.3508,2.3759,2.3846,2.3896,2.4163,2.4348,2.4478,2.4478,2.461,2.4759,2.4638,2.4692,2.4759,2.4638,2.4701,2.4774,2.4723,2.4707,2.4707,2.4707,2.4744,2.4794,2.4803,2.4959,2.5089,2.5101,2.5154,2.5201,2.5201,2.5205,2.4689,2.3139,0.0,0.0,2.1991,2.2519,2.3064,2.3081,2.3139,2.3519,2.4397,2.3757,2.3633,2.4437,2.3751,2.326,2.32,2.3128,2.2698,2.1825,2.1605,2.1435,2.1309,2.0255,1.9717,1.9704,1.9564,1.9375,1.9106,1.8912,1.8716,1.8485,1.831,1.8202,1.8211,1.8211,1.8211,1.8211,1.8211,1.8211,1.8211,1.8211,1.8211,1.8211,-0.0224,0.0168,0.0447,0.0223,0.0838,0.1452,0.1727,0.2164,0.2656,0.3317,0.4811,0.5962,0.6345,0.8661,1.0264,1.0511,1.0331,1.1728,1.5192,1.4273,1.4875,1.7865,1.8437,1.8968,1.9545,2.0038,2.0315,2.0376,2.0589,2.0681,2.063,2.1103,2.1452,2.1719,2.2064,2.2379,2.2632,2.256,2.2685,2.291,2.3151,2.3339,2.3513,2.371,2.3744,2.3723,2.3885,2.3969,2.4031,2.4201,2.4338,2.4425,2.4469,2.451,2.4575,2.4635,2.4749,2.4856,2.4828,2.4818,2.4818,2.4818,2.4832,2.4738,2.4289,2.4664,2.4962,2.4465,2.4385,2.4398,2.439,2.3991,2.3447,2.286,0.0,2.3054,2.2451,2.2685,2.2922,2.296,2.2977,2.3163,2.3564,2.3291,2.324,2.3571,2.3248,2.3028,2.2998,2.2448,2.1694,2.0767,2.0677,2.0604,2.0488,2.0004,1.9713,1.9647,1.9422,1.9175,1.8921,1.8708,1.8508,1.8319,1.8223,1.8211,1.8211,1.8211,1.8211,1.8211,1.8211,1.8211,1.8211,1.8211,1.8211,1.8211,-0.1289,-0.0895,-0.0559,-0.0838,-0.0224,0.0336,0.0336,0.0503,0.0726,0.1062,0.2373,0.3472,0.3953,0.6072,0.7545,0.7709,0.712,0.8258,1.187,1.0587,1.2424,1.8522,1.9044,1.9405,1.9782,2.0281,2.0628,2.0794,1.9403,1.9536,2.1078,1.9894,2.0275,2.1915,2.2251,2.256,2.2816,2.2659,2.2764,2.3036,2.319,2.3399,2.3566,2.3662,2.3744,2.3795,2.3841,2.3864,2.389,2.4097,2.422,2.4293,2.4355,2.4408,2.4519,2.4744,2.4898,2.497,2.4987,2.4951,2.4902,2.4902,2.4925,2.4752,2.3976,2.4276,2.4491,2.3659,2.3508,2.352,2.3521,2.3093,2.266,2.2462,2.2441,2.2378,2.2152,2.2124,2.2162,2.2215,2.2227,2.2358,2.2656,2.2439,2.2403,2.2674,2.2376,2.2173,2.2117,2.149,2.0834,2.0192,2.0172,2.0079,1.9919,1.9841,1.9726,1.9595,1.9299,1.9025,1.878,1.8586,1.8388,1.8211,1.8211,1.8211,1.8211,1.8211,1.8211,1.8211,1.8211,1.8211,1.8211,1.8211,1.8211,1.8211,-0.2578,-0.2296,-0.2014,-0.2014,-0.1626,-0.1291,-0.1291,-0.168,-0.1622,-0.0559,-0.0838,-0.0559,0.0894,0.3175,0.4712,0.52,0.7364,0.8697,0.8742,0.8107,1.087,1.7993,1.8707,1.9,1.9192,1.9666,2.0147,2.0665,1.5494,1.5768,2.1076,1.6194,1.6747,2.1795,2.2124,2.2456,2.2781,2.2764,2.2926,2.3221,2.3199,2.3408,2.3692,2.3692,2.3917,2.4199,2.4199,2.4209,2.421,2.4284,2.4383,2.4487,2.4339,2.4437,2.4654,2.4991,2.5101,2.5114,2.5177,2.5057,2.4902,2.4892,2.5002,2.4873,2.3988,2.3854,2.3651,2.2772,2.2631,2.2689,2.269,2.2735,2.2518,2.1724,2.1646,2.1386,2.0517,2.0457,2.0499,2.0496,2.056,2.0908,2.1707,2.1014,2.0859,2.172,2.0931,2.034,2.0206,2.0143,2.0098,2.0098,2.0098,1.9971,1.9701,1.9766,1.9726,1.9592,1.9193,1.8921,1.8789,1.8601,1.8383,1.8211,1.8211,1.8211,1.8211,1.8211,1.8211,1.8211,1.8211,1.8211,1.8211,1.8211,1.8211,1.8211,-0.2183,-0.2071,-0.2127,-0.2409,-0.2128,-0.1792,-0.1792,-0.1735,-0.1567,-0.1064,-0.1511,-0.1678,-0.1118,-0.0768,-0.0488,-0.0434,-0.0212,0.1077,0.3785,0.6797,0.9408,1.1581,1.0771,1.0326,1.04,1.0775,1.0721,1.0254,0.8959,0.9062,1.0445,0.8918,0.9315,1.1385,1.1234,1.1324,1.1863,1.5665,1.7315,1.7752,2.1849,2.3619,2.3862,2.3932,2.4135,2.434,2.4238,2.4201,2.421,2.421,2.4293,2.4348,2.4257,2.4366,2.4528,2.4591,2.4704,2.4813,2.4842,2.487,2.4929,2.5079,2.5032,2.4604,2.3263,2.3449,2.351,2.2105,2.1844,2.1868,2.1924,2.1482,2.1054,2.0856,2.0838,2.0776,2.0568,2.0557,2.0553,2.0508,2.0517,2.0622,2.0858,2.0648,2.0594,2.0801,2.047,2.0219,2.0134,2.0107,2.0098,2.0098,2.0011,1.9875,1.9701,1.9723,1.9621,1.9389,1.9033,1.8834,1.8798,1.8443,1.8265,1.8211,1.8211,1.8211,1.8211,1.8211,1.8211,1.8211,1.8211,1.8211,1.8211,1.8211,1.8211,1.8211,-0.2296,-0.2296,-0.2353,-0.2634,-0.2465,-0.2296,-0.2296,-0.2128,-0.2015,-0.1851,-0.2186,-0.2407,-0.2458,-0.2741,-0.2968,-0.2964,-0.3244,-0.2627,-0.0834,0.2063,0.3564,0.3254,0.2391,0.3523,0.6976,0.7251,0.7012,0.6331,0.4453,0.4477,0.6281,0.4286,0.4585,0.6746,0.668,0.6698,0.7073,1.045,1.3108,1.5385,1.9038,2.191,2.3983,2.4011,2.4211,2.4464,2.4393,2.433,2.4284,2.4303,2.4303,2.4312,2.4357,2.4436,2.4545,2.455,2.4629,2.4749,2.4799,2.4842,2.4925,2.5141,2.5108,2.4603,2.2993,2.3073,2.2997,2.1357,2.1046,2.1075,2.1126,2.0755,2.0445,2.0484,2.0518,2.0555,2.0591,2.0601,2.0575,2.0514,2.0504,2.05,2.0499,2.0497,2.0455,2.0371,2.0262,2.0175,2.0098,2.0098,2.0079,2.0021,1.994,1.9809,1.9615,1.9544,1.9382,1.9187,1.8913,1.8761,1.8668,1.8351,1.8211,1.8211,1.8172,1.8151,1.8151,1.8151,1.8151,1.8151,1.8151,1.8151,1.8151,1.813,1.8108,1.813,-0.2691,-0.2691,-0.2691,-0.2691,-0.2691,-0.2691,-0.2691,-0.2691,-0.2691,-0.2691,-0.2691,-0.2798,-0.3066,-0.3296,-0.3354,-0.3176,-0.2963,-0.3354,-0.4562,-0.4231,-0.4395,-0.5169,-0.5167,-0.1456,0.6361,0.649,0.6242,0.581,0.0995,0.1027,0.5486,0.1052,0.1179,0.5155,0.5459,0.5512,0.5508,0.6323,0.9481,1.3987,1.4818,1.8477,2.3399,2.3291,2.3823,2.4589,2.4606,2.4532,2.443,2.45,2.4429,2.4366,2.454,2.4589,2.4613,2.4725,2.476,2.478,2.4906,2.4851,2.4818,2.4996,2.5042,2.4631,2.3055,2.2688,2.2234,2.0646,2.0357,2.0405,2.0425,2.0467,2.0513,2.0513,2.0562,2.0604,2.0604,2.0604,2.0582,2.0514,2.0503,2.0495,2.0503,2.0494,2.0427,2.0314,2.0227,2.0167,2.0098,2.0089,2.003,1.9897,1.9875,1.974,1.9472,1.9276,1.9116,1.8989,1.8852,1.8687,1.8485,1.8298,1.819,1.819,1.8121,1.8091,1.8091,1.8091,1.8091,1.8091,1.8091,1.8091,1.8091,1.8005,1.7953,1.7961,-0.2691,-0.2691,-0.2691,-0.2691,-0.2691,-0.2691,-0.2691,-0.2804,-0.2804,-0.2691,-0.2804,-0.2858,-0.2799,-0.3354,-0.363,-0.3514,-0.3737,-0.3959,-0.413,-0.4075,-0.4184,-0.468,-0.4236,-0.3507,-0.2482,-0.2947,-0.3549,-0.4326,-0.5897,-0.6189,-0.5394,-0.687,-0.6806,-0.549,-0.5496,-0.5677,-0.5541,-0.0318,0.2334,0.3418,0.8324,1.3457,1.8153,1.8243,2.091,2.4606,2.4719,2.4667,2.4566,2.4566,2.4566,2.453,2.4521,2.4523,2.4524,2.4489,2.4445,2.4409,2.4434,2.4554,2.4517,2.3936,2.3877,2.3738,2.2891,2.2217,2.1507,2.0571,2.0429,2.0493,2.0555,2.0574,2.0578,2.0578,2.0591,2.0596,2.0602,2.0603,2.0576,2.0505,2.0502,2.0496,2.0503,2.04,2.0332,2.0302,2.0182,2.0126,2.0107,2.0001,1.993,1.9897,1.9704,1.9481,1.9276,1.9125,1.903,1.8998,1.8706,1.8544,1.8485,1.8298,1.8181,1.8113,1.8113,1.807,1.8027,1.8027,1.8027,1.8027,1.8027,1.8027,1.7983,1.7758,1.7689,1.7658,-0.2691,-0.2691,-0.2691,-0.2691,-0.2691,-0.2691,-0.2691,-0.2748,-0.2804,-0.2691,-0.2748,-0.2914,-0.3189,-0.3741,-0.4346,-0.478,-0.4673,-0.4622,-0.4844,-0.4622,-0.4622,-0.4844,-0.4565,-0.4725,-0.5384,-0.5719,-0.615,-0.6673,-0.6945,-0.7433,-0.7984,-0.8028,-0.8246,-0.8524,-0.8636,-0.8738,-0.8636,-0.5385,-0.2606,-0.0044,0.3507,0.809,1.3128,1.5794,1.8547,2.1348,2.3819,2.4682,2.4629,2.4606,2.4589,2.4564,2.4587,2.454,2.4465,2.449,2.4481,2.4462,2.4519,2.4329,2.4052,2.3681,2.3041,2.2403,2.2062,2.173,2.127,2.047,2.0427,2.0548,2.0552,2.0581,2.0597,2.0597,2.0597,2.0599,2.0595,2.0566,2.0544,2.0501,2.0504,2.0487,2.0461,2.0326,2.0248,2.0248,2.016,2.0069,2.0011,1.9939,1.9843,1.9707,1.9481,1.927,1.9109,1.8869,1.8762,1.8771,1.8545,1.8406,1.8304,1.8164,1.8087,1.8048,1.7883,1.7786,1.7749,1.7618,1.7658,1.7749,1.7627,1.765,1.7726,1.7408,1.7328,1.7328,-0.2578,-0.2634,-0.2691,-0.2747,-0.2691,-0.2691,-0.2691,-0.2691,-0.2691,-0.2691,-0.2691,-0.2913,-0.352,-0.4128,-0.4954,-0.6098,-0.5553,-0.5336,-0.5828,-0.5492,-0.5382,-0.5553,-0.5443,-0.5496,-0.5653,-0.5666,-0.5723,-0.5773,-0.5773,-0.6211,-0.6977,-0.6652,-0.7085,-0.8109,-0.8268,-0.8321,-0.8268,-0.8355,-0.5777,-0.1468,-0.0794,0.2677,0.7925,1.2317,1.466,1.6125,2.0317,2.1897,2.2117,2.2942,2.3198,2.3336,2.433,2.453,2.443,2.4556,2.4606,2.4638,2.4755,2.4304,2.3737,2.3563,2.2458,2.1345,2.1028,2.1138,2.1084,2.0378,2.0423,2.0568,2.0511,2.0547,2.0589,2.0601,2.0601,2.0602,2.0576,2.0535,2.0498,2.0499,2.0483,2.0443,2.0384,2.0265,2.0172,2.0147,2.0097,2.0011,1.9875,1.9843,1.9707,1.9458,1.9261,1.9084,1.8895,1.8632,1.8474,1.8406,1.8316,1.8171,1.804,1.79,1.7864,1.7825,1.7541,1.7424,1.7392,1.7167,1.7215,1.7392,1.7167,1.7224,1.7376,1.706,1.6934,1.6926,-0.2183,-0.2409,-0.2747,-0.286,-0.2804,-0.2691,-0.2691,-0.2691,-0.2691,-0.2691,-0.2691,-0.2746,-0.2856,-0.3853,-0.4954,-0.6098,-0.6098,-0.6043,-0.6152,-0.6098,-0.6206,-0.6482,-0.5991,-0.5882,-0.6268,-0.6041,-0.5875,-0.5773,-0.5773,-0.605,-0.649,-0.6869,-0.7297,-0.7777,-0.8109,-0.8321,-0.8468,-0.7393,-0.6772,-0.649,-0.5866,-0.2615,0.1906,0.218,0.5285,0.9563,1.0267,1.0687,1.1634,1.6158,1.7683,1.8454,2.3006,2.4418,2.4438,2.4561,2.4603,2.4622,2.4682,2.4629,2.4191,2.2702,2.2163,2.1639,2.0297,2.0193,2.0382,2.0365,2.0449,2.051,2.0501,2.0509,2.0527,2.0591,2.0601,2.0585,2.0516,2.0514,2.0497,2.0503,2.0395,2.0324,2.0313,2.0188,2.0067,1.9955,1.9932,1.9872,1.9732,1.9625,1.9462,1.9246,1.9093,1.8851,1.8487,1.8485,1.8345,1.8061,1.7825,1.7718,1.7741,1.7432,1.728,1.7224,1.7167,1.7118,1.706,1.7035,1.7035,1.706,1.7035,1.7043,1.7035,1.6763,1.6517,1.6316,-0.2464,-0.2577,-0.2747,-0.2804,-0.2747,-0.2747,-0.2804,-0.2804,-0.2804,-0.2804,-0.2804,-0.2859,-0.308,-0.413,-0.5285,-0.6374,-0.6317,-0.6317,-0.6699,-0.6537,-0.6591,-0.692,-0.6647,-0.665,-0.6877,-0.6642,-0.6529,-0.6537,-0.6046,-0.583,-0.5948,-0.6164,-0.6593,-0.713,-0.7512,-0.7563,-0.7343,-0.7176,-0.7012,-0.6856,-0.6583,-0.5219,-0.2989,0.0,0.2612,0.4971,0.7738,0.8801,0.9199,1.1489,1.4219,1.7142,1.9524,2.2181,2.4493,2.4755,2.4734,2.4676,2.4784,2.4483,2.3959,2.3187,2.2292,2.1431,2.0834,2.0413,2.0163,2.0224,2.0351,2.0445,2.0438,2.0506,2.057,2.0604,2.0566,2.0526,2.0505,2.0468,2.0431,2.0394,2.0265,2.0188,2.0188,2.0432,2.0584,2.0518,2.0449,2.0343,2.021,1.9612,1.9228,1.9097,1.878,1.8538,1.8406,1.8142,1.7919,1.7758,1.7304,1.7272,1.7572,1.7232,1.706,1.7035,1.6884,1.6781,1.6704,1.6588,1.6615,1.6704,1.6588,1.6535,1.6482,1.6355,1.6226,1.6095]}]]